[[{"header":{"parameterUnit":"m.s-1","parameterCategory":1,"la1":31.0,"la2":29.5877,"lo1":-88.7671,"lo2":-86.6584,"dy":0.0162,"dx":0.0185,"nx":115,"ny":88,"refTime":"2023-04-23T00:00:00:Z","depth":0,"parameterNumber":2,"parameterNumberName":"U-component_of_WINDS"},"data":[0.0,0.0,0.0,0.0,0.0,0.0,0.0,0.0,0.0,0.0,0.0,0.0,0.0,0.0,0.0,0.0,0.0,0.0,0.0,0.0,0.0,0.0,0.0,0.0,0.0,0.0,0.0,0.0,0.0,0.0,0.0,0.0,0.0,0.0,0.0,0.0,0.0,0.0,0.0,0.0,0.0,0.0,0.0,0.0,0.0,0.0,0.0,0.0,0.0,0.0,0.0,0.0,0.0,0.0,0.0,0.0,0.0,0.0,0.0,0.0,0.0,0.0,0.0,0.0,0.0,0.0,0.0,0.0,0.0,0.0,0.0,0.0,0.0,0.0,0.0,0.0,0.0,0.0,0.0,0.0,0.0,0.0,0.0,0.0,0.0,0.0,0.0,0.0,0.0,0.0,0.0,0.0,0.0,0.0,0.0,0.0,0.0,0.0,0.0,0.0,0.0,0.0,0.0,0.0,0.0,0.0,0.0,0.0,0.0,0.0,0.0,0.0,0.0,0.0,0.0,0.0,0.0,0.0,0.0,0.0,0.0,0.0,0.0,0.0,0.0,0.0,0.0,0.0,0.0,0.0,0.0,0.0,0.0,0.0,0.0,0.0,0.0,0.0,0.0,0.0,0.0,0.0,0.0,0.0,0.0,0.0,0.0,0.0,0.0,0.0,0.0,0.0,0.0,0.0,0.0,0.0,0.0,0.0,0.0,0.0,0.0,0.0,0.0,0.0,0.0,0.0,0.0,0.0,0.0,0.0,0.0,0.0,0.0,0.0,0.0,0.0,0.0,0.0,0.0,0.0,0.0,0.0,0.0,0.0,0.0,0.0,0.0,0.0,0.0,0.0,0.0,0.0,0.0,0.0,0.0,0.0,0.0,0.0,0.0,0.0,0.0,0.0,0.0,0.0,0.0,0.0,0.0,0.0,0.0,0.0,0.0,0.0,0.0,0.0,0.0,0.0,0.0,0.0,0.0,0.0,0.0,0.0,0.0,0.0,0.0,0.0,0.0,0.0,0.0,0.0,0.0,0.0,0.0,0.0,0.0,0.0,0.0,0.0,0.0,0.0,0.0,0.0,0.0,0.0,0.0,0.0,0.0,0.0,0.0,0.0,0.0,0.0,0.0,0.0,0.0,0.0,0.0,0.0,0.0,0.0,0.0,0.0,0.0,0.0,0.0,0.0,0.0,0.0,0.0,0.0,0.0,0.0,0.0,0.0,0.0,0.0,0.0,0.0,0.0,0.0,0.0,0.0,0.0,0.0,0.0,0.0,0.0,0.0,0.0,0.0,0.0,0.0,0.0,0.0,0.0,0.0,0.0,0.0,0.0,0.0,0.0,0.0,0.0,0.0,0.0,0.0,0.0,0.0,0.0,0.0,0.0,0.0,0.0,0.0,0.0,0.0,0.0,0.0,0.0,0.0,0.0,0.0,0.0,0.0,0.0,0.0,0.0,0.0,0.0,0.0,0.0,0.0,0.0,0.0,0.0,0.0,0.0,0.0,0.0,0.0,0.0,0.0,0.0,0.0,0.0,0.0,0.0,0.0,0.0,0.0,0.0,0.0,0.0,0.0,0.0,0.0,0.0,0.0,0.0,0.0,0.0,0.0,0.0,0.0,0.0,0.0,0.0,0.0,0.0,0.0,0.0,0.0,0.0,0.0,0.0,0.0,0.0,0.0,0.0,0.0,0.0,0.0,0.0,0.0,0.0,0.0,0.0,0.0,0.0,0.0,0.0,0.0,0.0,0.0,0.0,0.0,0.0,0.0,0.0,0.0,0.0,0.0,0.0,0.0,0.0,0.0,0.0,0.0,0.0,0.0,0.0,0.0,0.0,0.0,0.0,0.0,0.0,0.0,0.0,0.0,0.0,0.0,0.0,0.0,0.0,0.0,0.0,0.0,0.0,0.0,0.0,0.0,0.0,0.0,0.0,0.0,0.0,0.0,0.0,0.0,0.0,0.0,0.0,0.0,0.0,0.0,0.0,0.0,0.0,0.0,0.0,0.0,0.0,0.0,0.0,0.0,0.0,0.0,0.0,0.0,0.0,0.0,0.0,0.0,0.0,0.0,0.0,0.0,0.0,0.0,0.0,0.0,0.0,0.0,0.0,0.0,0.0,0.0,0.0,0.0,0.0,0.0,0.0,0.0,0.0,0.0,0.0,0.0,0.0,0.0,0.0,0.0,0.0,0.0,0.0,0.0,0.0,0.0,0.0,0.0,0.0,0.0,0.0,0.0,0.0,0.0,0.0,0.0,0.0,0.0,0.0,0.0,0.0,0.0,0.0,0.0,0.0,0.0,0.0,0.0,0.0,0.0,0.0,0.0,0.0,0.0,0.0,0.0,0.0,0.0,0.0,0.0,0.0,0.0,0.0,0.0,0.0,0.0,0.0,0.0,0.0,0.0,0.0,0.0,0.0,0.0,0.0,0.0,0.0,0.0,0.0,0.0,0.0,0.0,0.0,0.0,0.0,0.0,0.0,0.0,0.0,0.0,0.0,0.0,0.0,0.0,0.0,0.0,0.0,0.0,0.0,0.0,0.0,0.0,0.0,0.0,0.0,0.0,0.0,0.0,0.0,0.0,0.0,0.0,0.0,0.0,0.0,0.0,0.0,0.0,0.0,0.0,0.0,0.0,0.0,0.0,0.0,0.0,0.0,0.0,0.0,0.0,0.0,0.0,0.0,0.0,0.0,0.0,0.0,0.0,0.0,0.0,0.0,0.0,0.0,0.0,0.0,0.0,0.0,0.0,0.0,0.0,0.0,0.0,0.0,0.0,0.0,0.0,0.0,0.0,0.0,0.0,0.0,0.0,0.0,0.0,0.0,0.0,0.0,0.0,0.0,0.0,0.0,0.0,0.0,0.0,0.0,0.0,0.0,0.0,0.0,0.0,0.0,0.0,0.0,0.0,0.0,0.0,0.0,0.0,0.0,0.0,0.0,0.0,0.0,0.0,0.0,0.0,0.0,0.0,0.0,0.0,0.0,0.0,0.0,0.0,0.0,0.0,0.0,0.0,0.0,0.0,0.0,0.0,0.0,0.0,0.0,0.0,0.0,0.0,0.0,0.0,0.0,0.0,0.0,0.0,0.0,0.0,0.0,0.0,0.0,0.0,0.0,0.0,0.0,0.0,0.0,0.0,0.0,0.0,0.0,0.0,0.0,0.0,0.0,0.0,0.0,0.0,0.0,0.0,0.0,0.0,0.0,0.0,0.0,0.0,0.0,0.0,0.0,0.0,0.0,0.0,0.0,0.0,0.0,0.0,0.0,0.0,0.0,0.0,0.0,0.0,0.0,0.0,0.0,0.0,0.0,0.0,0.0,0.0,0.0,0.0,0.0,0.0,0.0,0.0,0.0,0.0,0.0,0.0,0.0,0.0,0.0,0.0,0.0,0.0,0.0,0.0,0.0,0.0,0.0,0.0,0.0,0.0,0.0,0.0,0.0,0.0,0.0,0.0,0.0,0.0,0.0,0.0,0.0,0.0,0.0,0.0,0.0,0.0,0.0,0.0,0.0,0.0,0.0,0.0,0.0,0.0,0.0,0.0,0.0,0.0,0.0,0.0,0.0,0.0,0.0,0.0,0.0,0.0,0.0,0.0,0.0,0.0,0.0,0.0,0.0,0.0,0.0,0.0,0.0,0.0,0.0,0.0,0.0,0.0,0.0,0.0,0.0,0.0,0.0,0.0,0.0,0.0,0.0,0.0,0.0,0.0,0.0,0.0,0.0,0.0,0.0,0.0,0.0,0.0,0.0,0.0,0.0,0.0,0.0,0.0,0.0,0.0,0.0,0.0,0.0,0.0,0.0,0.0,0.0,0.0,0.0,0.0,0.0,0.0,0.0,0.0,0.0,0.0,0.0,0.0,0.0,0.0,0.0,0.0,0.0,0.0,0.0,0.0,0.0,0.0,0.0,0.0,0.0,0.0,0.0,0.0,0.0,0.0,0.0,0.0,0.0,0.0,0.0,0.0,0.0,0.0,0.0,0.0,0.0,0.0,0.0,0.0,0.0,0.0,0.0,0.0,0.0,0.0,0.0,0.0,0.0,0.0,0.0,0.0,0.0,0.0,0.0,0.0,0.0,0.0,0.0,0.0,0.0,0.0,0.0,0.0,0.0,0.0,0.0,0.0,0.0,0.0,0.0,0.0,0.0,0.0,0.0,0.0,0.0,0.0,0.0,0.0,0.0,0.0,0.0,0.0,0.0,0.0,0.0,0.0,0.0,0.0,0.0,0.0,0.0,0.0,0.0,0.0,0.0,0.0,0.0,0.0,0.0,0.0,-0.7047,0.0,0.0,0.0,0.0,0.0,0.0,0.0,0.0,0.0,0.0,0.0,0.0,0.0,0.0,0.0,0.0,0.0,0.0,0.0,0.0,0.0,0.0,0.0,0.0,0.0,0.0,0.0,0.0,0.0,0.0,0.0,0.0,0.0,0.0,0.0,0.0,0.0,0.0,0.0,0.0,0.0,0.0,0.0,0.0,0.0,0.0,0.0,0.0,0.0,0.0,0.0,0.0,0.0,0.0,0.0,0.0,0.0,0.0,0.0,0.0,0.0,0.0,0.0,0.0,0.0,0.0,0.0,0.0,0.0,0.0,0.0,0.0,0.0,0.0,0.0,0.0,0.0,0.0,0.0,0.0,0.0,0.0,0.0,0.0,0.0,0.0,0.0,0.0,0.0,0.0,0.0,0.0,0.0,0.0,0.0,0.0,0.0,0.0,0.0,0.0,0.0,0.0,0.0,0.0,0.0,0.0,0.0,0.0,0.0,0.0,-0.8057,-0.8031,-0.8047,-0.7945,-0.7752,0.0,0.0,0.0,0.0,0.0,0.0,0.0,0.0,0.0,0.0,0.0,0.0,0.0,0.0,0.0,0.0,0.0,0.0,0.0,0.0,0.0,0.0,0.0,0.0,0.0,0.0,0.0,0.0,0.0,0.0,0.0,0.0,0.0,0.0,0.0,0.0,0.0,0.0,0.0,0.0,0.0,0.0,0.0,0.0,0.0,0.0,0.0,0.0,0.0,0.0,0.0,0.0,0.0,0.0,0.0,0.0,0.0,0.0,0.0,0.0,0.0,0.0,0.0,0.0,0.0,0.0,0.0,0.0,0.0,0.0,0.0,0.0,0.0,0.0,0.0,0.0,0.0,0.0,0.0,0.0,0.0,0.0,0.0,0.0,0.0,0.0,0.0,0.0,0.0,0.0,0.0,0.0,0.0,0.0,0.0,0.0,0.0,0.0,0.0,0.0,0.0,0.0,0.0,0.0,0.0,0.0,0.0,0.0,0.0,0.0,0.0,0.0,-0.8608,-0.8526,-0.8311,0.0,0.0,0.0,0.0,0.0,0.0,0.0,0.0,0.0,0.0,0.0,0.0,0.0,0.0,0.0,0.0,0.0,0.0,0.0,0.0,0.0,0.0,0.0,0.0,0.0,0.0,0.0,0.0,0.0,0.0,0.0,0.0,0.0,0.0,0.0,0.0,0.0,0.0,0.0,0.0,0.0,0.0,0.0,0.0,0.0,0.0,0.0,0.0,0.0,0.0,0.0,0.0,0.0,0.0,0.0,0.0,0.0,0.0,0.0,0.0,0.0,0.0,0.0,0.0,0.0,0.0,0.0,0.0,0.0,0.0,0.0,0.0,0.0,0.0,0.0,0.0,0.0,0.0,0.0,0.0,0.0,0.0,0.0,0.0,0.0,0.0,0.0,0.0,0.0,0.0,0.0,0.0,0.0,0.0,0.0,0.0,0.0,0.0,0.0,0.0,0.0,0.0,0.0,0.0,0.0,0.0,0.0,0.0,0.0,0.0,-0.8952,-0.8952,-0.8952,0.0,-0.8659,0.0,0.0,0.0,0.0,0.0,0.0,0.0,0.0,0.0,0.0,0.0,0.0,0.0,0.0,0.0,0.0,0.0,0.0,0.0,0.0,0.0,0.0,0.0,0.0,0.0,0.0,0.0,0.0,0.0,0.0,0.0,0.0,0.0,0.0,0.0,0.0,0.0,0.0,0.0,0.0,0.0,0.0,0.0,0.0,0.0,0.0,0.0,0.0,0.0,0.0,0.0,0.0,0.0,0.0,0.0,0.0,0.0,0.0,0.0,0.0,0.0,0.0,0.0,0.0,0.0,0.0,0.0,0.0,0.0,0.0,0.0,0.0,0.0,0.0,0.0,0.0,0.0,0.0,0.0,0.0,0.0,0.0,0.0,0.0,0.0,0.0,0.0,0.0,0.0,0.0,0.0,0.0,0.0,0.0,0.0,0.0,0.0,0.0,0.0,0.0,0.0,0.0,0.0,0.0,0.0,0.0,0.0,0.0,0.0,0.0,-0.96,-0.9594,-0.9578,-0.9551,0.0,0.0,0.0,0.0,0.0,0.0,0.0,0.0,0.0,0.0,0.0,0.0,0.0,0.0,0.0,0.0,0.0,0.0,0.0,0.0,0.0,0.0,0.0,0.0,0.0,0.0,0.0,0.0,0.0,0.0,0.0,0.0,0.0,0.0,0.0,0.0,0.0,0.0,0.0,0.0,0.0,0.0,0.0,0.0,0.0,0.0,0.0,0.0,0.0,0.0,0.0,0.0,0.0,0.0,0.0,0.0,0.0,0.0,0.0,0.0,0.0,0.0,0.0,0.0,0.0,0.0,0.0,0.0,0.0,0.0,0.0,0.0,0.0,0.0,0.0,0.0,0.0,0.0,0.0,0.0,0.0,0.0,0.0,0.0,0.0,0.0,0.0,0.0,0.0,0.0,0.0,0.0,0.0,0.0,0.0,0.0,0.0,0.0,0.0,0.0,0.0,0.0,0.0,0.0,0.0,0.0,0.0,0.0,0.0,0.0,-1.0005,-1.0005,-1.0005,-1.0005,-1.0005,-1.0005,0.0,0.0,0.0,0.0,0.0,0.0,0.0,0.0,0.0,0.0,0.0,0.0,0.0,0.0,0.0,0.0,0.0,0.0,0.0,0.0,0.0,0.0,0.0,0.0,0.0,0.0,0.0,0.0,0.0,0.0,0.0,0.0,0.0,0.0,0.0,0.0,0.0,0.0,0.0,0.0,0.0,0.0,0.0,0.0,0.0,0.0,0.0,0.0,0.0,0.0,0.0,0.0,0.0,0.0,0.0,0.0,0.0,0.0,0.0,0.0,0.0,0.0,0.0,0.0,0.0,0.0,0.0,0.0,0.0,0.0,0.0,0.0,0.0,0.0,0.0,0.0,0.0,0.0,0.0,0.0,0.0,0.0,0.0,0.0,0.0,0.0,0.0,0.0,0.0,0.0,0.0,0.0,0.0,0.0,0.0,0.0,0.0,0.0,0.0,0.0,0.0,0.0,0.0,0.0,0.0,0.0,0.0,0.0,-1.0005,-1.0005,-1.0005,-1.0028,-1.0021,-1.0005,0.0,0.0,0.0,0.0,0.0,0.0,0.0,0.0,0.0,0.0,0.0,0.0,0.0,0.0,0.0,0.0,0.0,0.0,0.0,0.0,0.0,0.0,0.0,0.0,0.0,0.0,0.0,0.0,0.0,0.0,0.0,0.0,0.0,0.0,0.0,0.0,0.0,0.0,0.0,0.0,0.0,0.0,0.0,0.0,0.0,0.0,0.0,0.0,0.0,0.0,0.0,0.0,0.0,0.0,0.0,0.0,0.0,0.0,0.0,0.0,0.0,0.0,0.0,0.0,0.0,0.0,0.0,0.0,0.0,0.0,0.0,0.0,0.0,0.0,0.0,0.0,0.0,0.0,0.0,0.0,0.0,0.0,0.0,0.0,0.0,0.0,0.0,0.0,0.0,0.0,0.0,0.0,0.0,0.0,0.0,0.0,0.0,0.0,0.0,0.0,0.0,0.0,0.0,0.0,0.0,0.0,0.0,0.0,0.0,-1.0387,-1.0396,-1.0472,-1.0627,-1.0479,-1.0387,0.0,0.0,0.0,0.0,0.0,0.0,0.0,0.0,0.0,0.0,0.0,0.0,0.0,0.0,0.0,0.0,0.0,0.0,0.0,0.0,0.0,0.0,0.0,0.0,0.0,0.0,0.0,0.0,0.0,0.0,0.0,0.0,0.0,0.0,0.0,0.0,0.0,0.0,0.0,0.0,0.0,0.0,0.0,0.0,0.0,0.0,0.0,0.0,0.0,0.0,0.0,0.0,0.0,0.0,0.0,0.0,0.0,0.0,0.0,0.0,0.0,0.0,0.0,0.0,0.0,0.0,0.0,0.0,0.0,0.0,0.0,0.0,0.0,0.0,0.0,0.0,0.0,0.0,0.0,0.0,0.0,0.0,0.0,0.0,0.0,0.0,0.0,0.0,0.0,0.0,0.0,0.0,0.0,0.0,0.0,0.0,0.0,0.0,0.0,0.0,0.0,0.0,0.0,0.0,0.0,0.0,0.0,0.0,0.0,-1.0727,0.0,-1.0905,-1.0982,-1.0818,-1.0709,0.0,0.0,0.0,0.0,0.0,0.0,0.0,0.0,0.0,0.0,0.0,0.0,0.0,0.0,0.0,0.0,0.0,0.0,0.0,0.0,0.0,0.0,0.0,0.0,0.0,0.0,0.0,0.0,0.0,0.0,0.0,0.0,0.0,0.0,0.0,0.0,0.0,0.0,0.0,0.0,0.0,0.0,0.0,0.0,0.0,0.0,0.0,0.0,0.0,0.0,0.0,0.0,0.0,0.0,0.0,0.0,0.0,0.0,0.0,0.0,0.0,0.0,0.0,0.0,0.0,0.0,0.0,0.0,0.0,0.0,0.0,0.0,0.0,0.0,0.0,0.0,0.0,0.0,0.0,0.0,0.0,0.0,0.0,0.0,0.0,0.0,0.0,0.0,0.0,0.0,0.0,0.0,0.0,0.0,0.0,0.0,0.0,0.0,0.0,0.0,0.0,0.0,0.0,0.0,0.0,0.0,0.0,0.0,-1.0747,-1.0995,-1.1239,-1.1263,-1.1022,-1.1012,-1.0865,0.0,0.0,0.0,0.0,0.0,0.0,0.0,0.0,0.0,0.0,0.0,0.0,0.0,0.0,0.0,0.0,0.0,0.0,0.0,0.0,0.0,0.0,0.0,0.0,0.0,0.0,0.0,0.0,0.0,0.0,0.0,0.0,0.0,0.0,0.0,0.0,0.0,0.0,0.0,0.0,0.0,0.0,0.0,0.0,0.0,0.0,0.0,0.0,0.0,0.0,0.0,0.0,0.0,0.0,0.0,0.0,0.0,0.0,0.0,0.0,0.0,0.0,0.0,0.0,0.0,0.0,0.0,0.0,0.0,0.0,0.0,0.0,0.0,0.0,0.0,0.0,0.0,0.0,0.0,0.0,0.0,0.0,0.0,0.0,0.0,0.0,0.0,0.0,0.0,0.0,0.0,0.0,0.0,0.0,0.0,0.0,0.0,0.0,0.0,0.0,0.0,0.0,0.0,0.0,0.0,0.0,0.0,0.0,0.0,-1.1289,-1.1182,-1.13,-1.1581,-1.1219,-1.0965,0.0,0.0,0.0,0.0,0.0,0.0,0.0,0.0,0.0,0.0,0.0,0.0,0.0,0.0,0.0,0.0,0.0,0.0,0.0,0.0,0.0,0.0,0.0,0.0,0.0,0.0,0.0,0.0,0.0,0.0,0.0,0.0,0.0,0.0,0.0,0.0,0.0,0.0,0.0,0.0,0.0,0.0,0.0,0.0,0.0,0.0,0.0,0.0,0.0,0.0,0.0,0.0,0.0,0.0,0.0,0.0,0.0,0.0,0.0,0.0,0.0,0.0,0.0,0.0,0.0,0.0,0.0,0.0,0.0,0.0,0.0,0.0,0.0,0.0,0.0,0.0,0.0,0.0,0.0,0.0,0.0,0.0,0.0,0.0,0.0,0.0,0.0,0.0,0.0,0.0,0.0,0.0,0.0,0.0,0.0,0.0,0.0,0.0,0.0,0.0,0.0,0.0,0.0,0.0,0.0,0.0,0.0,0.0,0.0,-1.1719,-1.1559,-1.1621,-1.1899,-1.1544,-1.1233,-1.1019,0.0,0.0,0.0,0.0,0.0,0.0,0.0,0.0,0.0,0.0,0.0,0.0,0.0,0.0,0.0,0.0,0.0,0.0,0.0,0.0,0.0,0.0,0.0,0.0,0.0,0.0,0.0,0.0,0.0,0.0,0.0,0.0,0.0,0.0,0.0,0.0,0.0,0.0,0.0,0.0,0.0,0.0,0.0,0.0,0.0,0.0,0.0,0.0,0.0,0.0,0.0,0.0,0.0,0.0,0.0,0.0,0.0,0.0,0.0,0.0,0.0,0.0,0.0,0.0,0.0,0.0,0.0,0.0,0.0,0.0,0.0,0.0,0.0,0.0,0.0,0.0,0.0,0.0,0.0,0.0,0.0,0.0,0.0,0.0,0.0,0.0,0.0,0.0,0.0,0.0,0.0,0.0,0.0,0.0,0.0,0.0,0.0,0.0,0.0,0.0,0.0,0.0,0.0,0.0,0.0,0.0,0.0,0.0,-1.2271,-1.2311,-1.2191,-1.1955,-1.1902,-1.1645,0.0,0.0,0.0,0.0,0.0,0.0,0.0,0.0,0.0,0.0,0.0,0.0,0.0,0.0,0.0,0.0,0.0,0.0,0.0,0.0,0.0,0.0,0.0,0.0,0.0,0.0,0.0,0.0,0.0,0.0,0.0,0.0,0.0,0.0,0.0,0.0,0.0,0.0,0.0,0.0,0.0,0.0,0.0,0.0,0.0,0.0,0.0,0.0,0.0,0.0,0.0,0.0,0.0,0.0,0.0,0.0,0.0,0.0,0.0,0.0,0.0,0.0,0.0,0.0,0.0,0.0,0.0,0.0,0.0,0.0,0.0,0.0,0.0,0.0,0.0,0.0,0.0,0.0,0.0,0.0,0.0,0.0,0.0,0.0,0.0,0.0,0.0,0.0,0.0,0.0,0.0,0.0,0.0,0.0,0.0,0.0,0.0,0.0,0.0,0.0,0.0,0.0,0.0,0.0,0.0,0.0,0.0,0.0,0.0,-1.2015,-1.2442,-1.2649,-1.2549,-1.2134,-1.1903,0.0,0.0,0.0,0.0,0.0,0.0,0.0,0.0,0.0,0.0,0.0,0.0,0.0,0.0,0.0,0.0,0.0,0.0,0.0,0.0,0.0,0.0,0.0,0.0,0.0,0.0,0.0,0.0,0.0,0.0,0.0,0.0,0.0,0.0,0.0,0.0,0.0,0.0,0.0,0.0,0.0,0.0,0.0,0.0,0.0,0.0,0.0,0.0,0.0,0.0,0.0,0.0,0.0,0.0,0.0,0.0,0.0,0.0,0.0,0.0,0.0,0.0,0.0,0.0,0.0,0.0,0.0,0.0,0.0,0.0,0.0,0.0,0.0,0.0,0.0,0.0,0.0,0.0,0.0,0.0,0.0,0.0,0.0,0.0,0.0,0.0,0.0,0.0,0.0,0.0,0.0,0.0,0.0,0.0,0.0,0.0,0.0,0.0,0.0,0.0,0.0,0.0,0.0,0.0,0.0,0.0,0.0,0.0,-1.2497,-1.2438,-1.2785,-1.3038,-1.3139,-1.2525,-1.2249,0.0,0.0,0.0,0.0,0.0,0.0,0.0,0.0,0.0,0.0,0.0,0.0,0.0,0.0,0.0,0.0,0.0,0.0,0.0,0.0,0.0,0.0,0.0,0.0,0.0,0.0,0.0,0.0,0.0,0.0,0.0,0.0,0.0,0.0,0.0,0.0,0.0,0.0,0.0,0.0,0.0,0.0,0.0,0.0,0.0,0.0,0.0,0.0,0.0,0.0,0.0,0.0,0.0,0.0,0.0,0.0,0.0,0.0,0.0,0.0,0.0,0.0,0.0,0.0,0.0,0.0,0.0,0.0,0.0,0.0,0.0,0.0,0.0,0.0,0.0,0.0,0.0,0.0,0.0,0.0,0.0,0.0,0.0,0.0,0.0,0.0,0.0,0.0,0.0,0.0,0.0,0.0,0.0,0.0,0.0,0.0,0.0,0.0,0.0,0.0,0.0,0.0,0.0,0.0,0.0,0.0,0.0,0.0,-1.2932,-1.3153,-1.3233,-1.3393,-1.3567,-1.2978,-1.2647,0.0,0.0,0.0,0.0,0.0,0.0,0.0,0.0,0.0,0.0,0.0,0.0,0.0,0.0,0.0,0.0,0.0,0.0,0.0,0.0,0.0,0.0,0.0,0.0,0.0,0.0,0.0,0.0,0.0,0.0,0.0,0.0,0.0,0.0,0.0,0.0,0.0,0.0,0.0,0.0,0.0,0.0,0.0,0.0,0.0,0.0,0.0,0.0,0.0,0.0,0.0,0.0,0.0,0.0,0.0,0.0,0.0,0.0,0.0,0.0,0.0,0.0,0.0,0.0,0.0,0.0,0.0,0.0,0.0,0.0,0.0,0.0,0.0,0.0,0.0,0.0,0.0,0.0,0.0,0.0,0.0,0.0,0.0,0.0,0.0,0.0,0.0,0.0,0.0,0.0,0.0,0.0,0.0,0.0,0.0,0.0,0.0,0.0,0.0,0.0,0.0,0.0,0.0,0.0,0.0,0.0,0.0,0.0,-1.3026,-1.2898,-1.3561,-1.3814,-1.362,-1.3058,-1.2898,0.0,0.0,0.0,0.0,0.0,0.0,0.0,0.0,0.0,0.0,0.0,0.0,0.0,0.0,0.0,0.0,0.0,0.0,0.0,0.0,0.0,0.0,0.0,0.0,0.0,0.0,0.0,0.0,0.0,0.0,0.0,0.0,0.0,0.0,0.0,0.0,0.0,0.0,0.0,0.0,0.0,0.0,0.0,0.0,0.0,0.0,0.0,0.0,-1.2305,0.0,0.0,0.0,0.0,0.0,0.0,0.0,0.0,0.0,0.0,0.0,0.0,0.0,0.0,0.0,0.0,0.0,0.0,0.0,0.0,0.0,0.0,0.0,0.0,0.0,0.0,0.0,0.0,0.0,0.0,0.0,0.0,0.0,0.0,0.0,0.0,0.0,0.0,0.0,0.0,0.0,0.0,0.0,0.0,0.0,0.0,0.0,0.0,0.0,0.0,0.0,0.0,0.0,0.0,0.0,0.0,0.0,0.0,0.0,-1.2951,-1.2811,-1.3494,-1.378,-1.36,-1.3333,-1.3237,0.0,0.0,0.0,0.0,0.0,0.0,0.0,0.0,0.0,0.0,0.0,0.0,0.0,0.0,0.0,0.0,0.0,0.0,0.0,0.0,0.0,0.0,0.0,0.0,0.0,0.0,0.0,0.0,0.0,0.0,0.0,0.0,0.0,0.0,0.0,0.0,0.0,0.0,0.0,0.0,0.0,0.0,0.0,0.0,0.0,0.0,0.0,0.0,0.0,0.0,0.0,0.0,0.0,0.0,0.0,0.0,0.0,0.0,0.0,0.0,0.0,0.0,0.0,0.0,0.0,0.0,0.0,0.0,0.0,0.0,0.0,0.0,0.0,0.0,0.0,0.0,0.0,0.0,0.0,0.0,0.0,0.0,0.0,0.0,0.0,0.0,0.0,0.0,0.0,0.0,0.0,0.0,0.0,0.0,0.0,0.0,0.0,0.0,0.0,0.0,0.0,0.0,0.0,0.0,0.0,0.0,0.0,-1.2599,-1.2791,-1.2878,-1.3407,-1.3673,-1.3666,-1.3713,-1.3655,-1.3476,0.0,0.0,0.0,0.0,0.0,0.0,0.0,0.0,0.0,0.0,0.0,0.0,0.0,0.0,0.0,0.0,0.0,0.0,0.0,0.0,0.0,0.0,0.0,0.0,0.0,0.0,0.0,0.0,0.0,0.0,0.0,0.0,0.0,0.0,0.0,0.0,0.0,0.0,-1.242,-1.2445,0.0,0.0,0.0,0.0,0.0,0.0,0.0,0.0,-1.239,0.0,0.0,0.0,0.0,0.0,0.0,0.0,0.0,0.0,0.0,0.0,0.0,0.0,0.0,0.0,0.0,0.0,0.0,0.0,0.0,0.0,0.0,0.0,0.0,0.0,0.0,0.0,0.0,0.0,0.0,0.0,0.0,0.0,0.0,0.0,0.0,0.0,0.0,0.0,0.0,0.0,0.0,0.0,0.0,0.0,0.0,0.0,0.0,0.0,0.0,0.0,0.0,0.0,0.0,0.0,0.0,-1.204,-1.2385,-1.2738,-1.314,-1.3707,-1.4015,-1.4021,-1.4249,-1.4008,-1.3286,0.0,0.0,0.0,0.0,0.0,0.0,0.0,0.0,0.0,0.0,0.0,0.0,0.0,0.0,0.0,0.0,0.0,0.0,0.0,0.0,0.0,0.0,0.0,0.0,0.0,0.0,0.0,0.0,0.0,0.0,0.0,0.0,0.0,0.0,0.0,0.0,0.0,0.0,0.0,-1.3066,-1.304,0.0,0.0,0.0,0.0,0.0,0.0,0.0,0.0,-1.2804,0.0,0.0,0.0,0.0,0.0,0.0,0.0,0.0,0.0,0.0,0.0,0.0,0.0,0.0,0.0,0.0,0.0,0.0,0.0,0.0,0.0,0.0,0.0,0.0,0.0,0.0,0.0,0.0,0.0,0.0,0.0,0.0,0.0,0.0,0.0,0.0,0.0,0.0,0.0,0.0,0.0,0.0,0.0,0.0,0.0,0.0,0.0,0.0,0.0,0.0,0.0,0.0,0.0,0.0,0.0,-1.198,-1.21,-1.2401,-1.2986,-1.3554,-1.3834,-1.384,-1.4142,-1.3934,0.0,0.0,0.0,0.0,0.0,0.0,0.0,0.0,0.0,0.0,0.0,0.0,0.0,0.0,0.0,0.0,0.0,0.0,0.0,0.0,0.0,0.0,0.0,0.0,0.0,0.0,0.0,0.0,0.0,0.0,0.0,0.0,0.0,0.0,0.0,0.0,0.0,0.0,0.0,0.0,-1.3206,-1.3206,-1.3206,0.0,0.0,0.0,0.0,0.0,0.0,-1.3006,-1.3059,0.0,0.0,0.0,0.0,0.0,0.0,0.0,0.0,0.0,0.0,0.0,0.0,0.0,0.0,0.0,0.0,0.0,0.0,0.0,0.0,0.0,0.0,0.0,0.0,0.0,0.0,0.0,0.0,0.0,0.0,0.0,0.0,0.0,0.0,0.0,0.0,0.0,0.0,0.0,0.0,0.0,0.0,0.0,0.0,0.0,0.0,0.0,0.0,0.0,0.0,0.0,0.0,0.0,0.0,0.0,-1.2024,-1.1913,-1.226,-1.3046,-1.3547,-1.3746,-1.3706,-1.4,-1.3895,0.0,0.0,0.0,0.0,0.0,0.0,0.0,0.0,0.0,0.0,0.0,0.0,0.0,0.0,0.0,0.0,0.0,0.0,0.0,0.0,0.0,0.0,0.0,0.0,0.0,0.0,0.0,0.0,0.0,0.0,0.0,0.0,0.0,0.0,0.0,0.0,0.0,0.0,0.0,0.0,0.0,-1.3454,-1.338,-1.3387,0.0,0.0,0.0,0.0,-1.328,-1.3373,0.0,0.0,0.0,0.0,0.0,0.0,0.0,0.0,0.0,0.0,0.0,0.0,0.0,0.0,0.0,0.0,0.0,0.0,0.0,0.0,0.0,0.0,0.0,0.0,0.0,0.0,0.0,0.0,0.0,0.0,0.0,0.0,0.0,0.0,0.0,0.0,0.0,0.0,0.0,0.0,0.0,0.0,0.0,0.0,0.0,0.0,0.0,0.0,0.0,0.0,0.0,0.0,0.0,0.0,0.0,0.0,-1.2196,-1.209,-1.2616,-1.3893,-1.4255,-1.4295,-1.4048,-1.4322,-1.4174,0.0,0.0,0.0,0.0,0.0,0.0,0.0,0.0,0.0,0.0,0.0,0.0,0.0,0.0,0.0,0.0,0.0,0.0,0.0,0.0,0.0,0.0,0.0,0.0,0.0,0.0,0.0,0.0,0.0,0.0,0.0,0.0,0.0,0.0,0.0,0.0,0.0,0.0,0.0,0.0,0.0,-1.4254,-1.4042,-1.3981,-1.3895,0.0,0.0,-1.3553,-1.3553,-1.4007,0.0,0.0,0.0,0.0,0.0,0.0,0.0,0.0,0.0,0.0,0.0,0.0,0.0,0.0,0.0,0.0,0.0,0.0,0.0,0.0,0.0,0.0,0.0,0.0,0.0,0.0,0.0,0.0,0.0,0.0,0.0,0.0,0.0,0.0,0.0,0.0,0.0,0.0,0.0,0.0,0.0,0.0,0.0,0.0,0.0,0.0,0.0,0.0,0.0,0.0,0.0,0.0,0.0,0.0,0.0,-1.0177,-1.118,-1.1064,-1.1505,-1.2559,-1.3425,-1.3746,-1.3482,-1.4037,-1.405,0.0,0.0,0.0,0.0,0.0,0.0,0.0,0.0,0.0,0.0,0.0,0.0,0.0,0.0,0.0,0.0,0.0,0.0,0.0,0.0,0.0,0.0,0.0,0.0,0.0,0.0,0.0,0.0,0.0,0.0,0.0,0.0,0.0,0.0,0.0,0.0,0.0,0.0,0.0,0.0,0.0,0.0,-1.4102,-1.4109,0.0,0.0,0.0,-1.4093,-1.4099,0.0,0.0,0.0,0.0,0.0,0.0,0.0,0.0,0.0,0.0,0.0,0.0,0.0,0.0,0.0,0.0,0.0,0.0,0.0,0.0,0.0,0.0,0.0,0.0,0.0,0.0,0.0,0.0,0.0,0.0,0.0,0.0,0.0,0.0,0.0,0.0,0.0,0.0,0.0,0.0,0.0,0.0,0.0,0.0,0.0,0.0,0.0,0.0,0.0,0.0,0.0,0.0,0.0,0.0,0.0,0.0,0.0,-1.0469,-1.033,-1.0652,-1.1482,-1.2592,-1.2982,-1.2585,-1.3281,0.0,0.0,0.0,0.0,0.0,0.0,0.0,0.0,0.0,0.0,0.0,0.0,0.0,0.0,0.0,0.0,0.0,0.0,0.0,0.0,0.0,0.0,0.0,0.0,0.0,0.0,0.0,-1.2195,0.0,0.0,0.0,0.0,0.0,0.0,0.0,0.0,0.0,0.0,0.0,0.0,0.0,0.0,-1.3969,-1.4117,-1.4251,-1.4324,0.0,0.0,-1.4542,-1.4607,-1.4667,-1.4667,0.0,0.0,0.0,0.0,0.0,0.0,0.0,0.0,0.0,0.0,0.0,0.0,0.0,0.0,0.0,0.0,0.0,0.0,0.0,0.0,0.0,0.0,0.0,0.0,0.0,0.0,0.0,0.0,0.0,0.0,0.0,0.0,0.0,0.0,0.0,0.0,0.0,0.0,0.0,0.0,0.0,0.0,0.0,0.0,0.0,0.0,0.0,0.0,0.0,0.0,0.0,0.0,0.0,0.0,-0.9328,-1.062,-1.0485,-1.0818,-1.1738,-1.2303,-1.2192,-1.1473,-1.1897,-1.2266,0.0,0.0,0.0,0.0,0.0,0.0,0.0,0.0,0.0,0.0,0.0,0.0,0.0,0.0,0.0,0.0,0.0,0.0,0.0,0.0,0.0,0.0,0.0,0.0,0.0,0.0,0.0,0.0,0.0,0.0,0.0,0.0,0.0,0.0,0.0,0.0,0.0,0.0,0.0,0.0,0.0,-1.4463,-1.4246,-1.4613,-1.493,0.0,-1.4738,-1.4684,-1.4908,-1.5157,-1.5082,-1.434,0.0,0.0,0.0,0.0,0.0,0.0,0.0,0.0,0.0,0.0,0.0,0.0,0.0,0.0,0.0,0.0,0.0,0.0,0.0,0.0,0.0,0.0,0.0,0.0,0.0,0.0,0.0,0.0,0.0,0.0,0.0,0.0,0.0,0.0,0.0,0.0,0.0,0.0,0.0,0.0,0.0,0.0,0.0,0.0,0.0,0.0,0.0,0.0,0.0,0.0,0.0,0.0,0.0,-0.9145,-0.9538,-0.957,-0.9769,-1.0136,-1.0913,-1.1113,-1.0622,-1.1291,-1.1655,0.0,0.0,0.0,0.0,0.0,0.0,0.0,0.0,0.0,0.0,0.0,0.0,0.0,0.0,0.0,0.0,0.0,0.0,0.0,0.0,0.0,0.0,0.0,0.0,0.0,0.0,0.0,0.0,-1.085,-1.0591,-1.0882,0.0,0.0,0.0,0.0,0.0,0.0,0.0,0.0,0.0,0.0,-1.2945,-1.2923,-1.3072,0.0,0.0,-1.3194,-1.3338,-1.3766,-1.3924,-1.3979,-1.3953,-1.3919,0.0,0.0,0.0,0.0,0.0,0.0,0.0,0.0,0.0,0.0,0.0,0.0,0.0,0.0,0.0,0.0,0.0,0.0,0.0,0.0,0.0,0.0,0.0,0.0,0.0,0.0,0.0,0.0,0.0,0.0,0.0,0.0,0.0,0.0,0.0,0.0,0.0,0.0,0.0,0.0,0.0,0.0,0.0,0.0,0.0,0.0,0.0,0.0,0.0,0.0,0.0,0.0,-0.8954,-0.8747,-0.8978,-0.9043,-0.8961,-0.9716,-1.0017,-0.9754,-1.031,-1.0659,0.0,0.0,0.0,0.0,0.0,0.0,0.0,0.0,0.0,0.0,0.0,0.0,0.0,0.0,0.0,0.0,0.0,0.0,0.0,0.0,0.0,0.0,0.0,0.0,0.0,0.0,0.0,0.0,-1.0243,-0.9975,-1.01,0.0,0.0,0.0,0.0,0.0,0.0,0.0,0.0,0.0,0.0,-1.1988,-1.211,-1.2141,-1.2165,-1.2284,-1.2207,-1.238,-1.3,-1.3019,-1.3072,-1.3324,0.0,0.0,0.0,0.0,0.0,0.0,0.0,0.0,0.0,0.0,0.0,0.0,0.0,0.0,0.0,0.0,0.0,0.0,0.0,0.0,0.0,0.0,0.0,0.0,0.0,0.0,0.0,-0.9084,0.0,0.0,-0.9057,0.0,0.0,0.0,0.0,0.0,0.0,0.0,0.0,0.0,0.0,0.0,0.0,0.0,0.0,0.0,0.0,0.0,0.0,0.0,0.0,0.0,0.0,-0.8751,-0.8615,-0.8957,-0.8938,-0.8665,-0.8967,-0.9002,-0.8697,-0.8784,-0.9115,-0.9642,0.0,0.0,0.0,0.0,0.0,0.0,0.0,0.0,0.0,0.0,0.0,0.0,0.0,0.0,0.0,0.0,0.0,0.0,0.0,0.0,0.0,0.0,0.0,0.0,0.0,0.0,-1.0294,-0.9851,-0.9445,0.0,0.0,0.0,0.0,0.0,0.0,0.0,0.0,0.0,-1.1726,-1.191,-1.2017,-1.2148,-1.2242,-1.2315,-1.2581,-1.2194,-1.2149,-1.2906,-1.2837,-1.2635,0.0,0.0,0.0,0.0,0.0,0.0,0.0,0.0,0.0,0.0,0.0,0.0,0.0,0.0,0.0,0.0,0.0,0.0,0.0,0.0,0.0,0.0,0.0,0.0,0.0,0.0,0.0,-0.8827,-0.8827,0.0,0.0,0.0,0.0,0.0,0.0,0.0,0.0,0.0,0.0,0.0,-0.7056,-0.72,0.0,0.0,0.0,0.0,0.0,0.0,0.0,0.0,0.0,0.0,0.0,0.0,-0.9192,-0.9147,-0.9229,-0.9233,-0.9143,-0.9119,-0.9043,-0.8948,-0.8974,-0.9227,-0.9708,0.0,0.0,0.0,0.0,0.0,0.0,0.0,0.0,0.0,0.0,0.0,0.0,0.0,0.0,0.0,0.0,0.0,0.0,0.0,0.0,0.0,0.0,0.0,0.0,0.0,-0.9692,0.0,0.0,0.0,0.0,0.0,0.0,0.0,0.0,0.0,0.0,0.0,-1.0446,-1.0645,-1.0667,-1.0672,-1.0666,-1.0689,-1.0783,0.0,0.0,0.0,0.0,0.0,0.0,0.0,0.0,0.0,0.0,0.0,0.0,0.0,0.0,-1.1891,-1.2061,-1.1877,-1.1741,-1.1822,0.0,0.0,0.0,0.0,0.0,0.0,0.0,0.0,0.0,0.0,0.0,0.0,0.0,0.0,-0.8249,-0.8249,-0.8245,0.0,0.0,0.0,0.0,0.0,0.0,0.0,0.0,-0.7278,-0.7061,-0.6593,-0.6768,-0.6695,-0.6398,-0.6528,-0.6863,0.0,0.0,0.0,0.0,0.0,0.0,0.0,0.0,-0.93,-0.9292,-0.9539,-0.9629,-0.9478,-0.9421,-0.9344,-0.9283,-0.9218,-0.9326,-0.9558,-0.9763,-0.9887,0.0,0.0,0.0,0.0,0.0,0.0,0.0,0.0,0.0,0.0,0.0,0.0,0.0,0.0,0.0,0.0,0.0,0.0,0.0,0.0,0.0,0.0,0.0,-0.928,0.0,0.0,0.0,0.0,0.0,0.0,0.0,0.0,0.0,-1.04,-1.0096,-0.994,-1.0222,-1.0103,-0.9983,-1.0008,0.0,0.0,0.0,0.0,0.0,0.0,0.0,-1.0603,-1.0942,-1.0993,-1.1018,-1.1106,-1.1163,-1.1273,-1.1413,0.0,0.0,-1.1554,-1.15,-1.1404,-1.1492,-1.1497,-1.1526,-1.1497,-1.1463,-1.14,0.0,0.0,0.0,0.0,-0.8127,0.0,0.0,0.0,-0.7443,-0.7411,0.0,-0.7418,0.0,0.0,0.0,0.0,-0.755,-0.7426,0.0,0.0,-0.7344,-0.7073,-0.6239,-0.6674,-0.6458,-0.5659,-0.6125,-0.6336,-0.6298,-0.653,0.0,0.0,0.0,0.0,0.0,0.0,-0.9093,-0.9017,-0.9718,-0.9964,-0.9656,-0.9807,-0.9811,-0.9624,-0.9502,-0.9335,-0.9137,-0.932,-0.942,-0.9404,-0.966,0.0,0.0,0.0,0.0,0.0,0.0,0.0,0.0,0.0,0.0,0.0,0.0,0.0,0.0,0.0,0.0,0.0,0.0,0.0,0.0,-0.9225,0.0,0.0,0.0,0.0,0.0,0.0,0.0,0.0,0.0,-0.932,-1.0232,-0.9955,-0.9922,-1.0518,0.0,0.0,0.0,0.0,-1.019,-1.0198,-1.019,-1.0286,-1.0555,-1.0573,-1.0564,-1.059,0.0,0.0,-1.0607,-1.0767,-1.0897,-1.0897,-1.0759,-1.0824,-1.1516,-1.1599,-1.1599,-1.1618,-1.1587,-1.1657,-1.1622,-1.1469,-1.1398,-0.8269,0.0,0.0,0.0,0.0,-0.7405,-0.7397,-0.7398,-0.7296,-0.7271,-0.726,-0.7154,0.0,0.0,0.0,0.0,0.0,0.0,-0.6433,-0.6045,-0.6278,-0.6125,-0.5698,-0.5867,-0.5795,-0.5537,-0.5552,-0.5527,-0.5519,-0.5557,-0.609,-0.7134,0.0,0.0,0.0,0.0,-0.8298,-0.9041,-0.9149,-0.9515,-1.0148,-1.0123,-1.0084,-1.0035,-0.9987,-0.9873,-0.9665,-0.9731,-0.9661,-0.941,-0.9469,0.0,0.0,0.0,0.0,0.0,0.0,0.0,0.0,0.0,0.0,0.0,0.0,0.0,0.0,0.0,0.0,0.0,0.0,0.0,-0.9374,-0.9256,-0.9186,0.0,0.0,0.0,0.0,0.0,0.0,0.0,0.0,0.0,-0.956,-0.9659,-0.9801,0.0,0.0,-1.0155,-1.0182,-1.0186,-1.0235,-1.0308,-1.0276,0.0,-1.0414,-1.0381,-1.0316,-1.0316,-1.0401,-1.0461,-1.0461,-1.0644,-1.0754,-1.0754,-1.07,-1.0754,-1.093,-1.0799,-1.0693,-1.0737,-1.078,-1.078,-1.0771,-1.076,-1.0688,-0.6993,-0.6856,-0.7073,-0.7032,-0.6837,-0.6732,-0.6685,-0.6696,-0.6555,-0.6506,-0.6528,-0.6448,-0.6314,-0.6114,-0.6049,0.0,0.0,0.0,-0.5892,-0.5628,-0.5781,-0.5783,-0.5669,-0.5642,-0.5651,-0.5612,-0.548,-0.5411,-0.5346,-0.5283,-0.5644,-0.6382,0.0,-0.6665,-0.7122,-0.7304,-0.7728,-0.8397,-0.8481,-0.8804,-0.9439,-0.9371,-0.9288,-0.9193,-0.9542,-0.9675,-0.9435,-0.9423,-0.933,-0.9129,-0.8738,-0.8464,0.0,0.0,0.0,0.0,0.0,0.0,0.0,0.0,0.0,0.0,0.0,-0.908,-0.8737,0.0,0.0,0.0,-0.842,-0.8533,-0.8829,-0.8671,0.0,0.0,0.0,0.0,0.0,0.0,0.0,-0.7626,-0.757,-0.7795,-0.8535,-0.8815,-0.9268,-1.017,-1.0331,-1.0402,-1.0398,0.0,-1.0623,-1.0705,-1.0595,-1.0544,-1.0627,-1.0493,-1.0398,-1.0402,-1.0456,-1.0534,-1.0515,-1.0627,-1.0715,-1.0719,-1.0719,-1.0719,-1.0719,-1.054,-1.04,-1.0513,-1.0511,-1.0511,-1.0511,-1.0458,-1.0373,-0.5888,-0.5882,-0.6379,-0.645,-0.624,-0.6014,-0.581,-0.5648,-0.5584,-0.5512,-0.5539,-0.549,-0.5461,-0.5409,-0.539,0.0,-0.5783,-0.5606,-0.5582,-0.563,-0.5757,-0.5843,-0.5884,-0.5886,-0.5874,-0.5792,-0.5786,-0.5737,-0.562,-0.5561,-0.5518,-0.551,-0.5738,-0.6105,-0.6608,-0.7023,-0.7298,-0.7361,-0.7712,-0.794,-0.8032,-0.7995,-0.7901,-0.7667,-0.8518,-0.8876,-0.8636,-0.8619,-0.8608,-0.858,-0.772,-0.7203,-0.7175,0.0,0.0,0.0,0.0,0.0,0.0,0.0,0.0,0.0,0.0,0.0,0.0,0.0,0.0,0.0,-0.7419,0.0,-0.7947,-0.7716,0.0,0.0,0.0,-0.7337,-0.7407,-0.7162,-0.698,-0.7006,0.0,0.0,-0.7436,-0.7681,-0.8455,-1.0008,-1.0378,-1.0512,-1.0508,-1.0686,-1.0957,-1.0815,-1.0814,-1.0747,-1.0527,-1.0402,-1.0327,-1.0464,-1.0555,-1.0374,-1.0378,-1.0382,-1.0468,-1.0386,-1.0472,-1.0425,-1.0461,-1.0363,-1.0472,-1.0402,-1.0586,-1.0715,-1.0676,-1.0539,-1.0446,-0.6106,-0.6113,-0.6233,-0.6211,-0.6078,-0.6017,-0.6005,-0.6037,-0.5886,-0.5821,-0.5806,-0.56,-0.5461,-0.5414,-0.5477,-0.5504,-0.5573,-0.5744,-0.5794,-0.5759,-0.5884,-0.5932,-0.5888,-0.5888,-0.5876,-0.5882,-0.5814,-0.5769,-0.5745,-0.5626,-0.5583,-0.5579,-0.5633,-0.5707,-0.5777,-0.5843,-0.6242,-0.6932,-0.7043,-0.7468,-0.8191,-0.8184,-0.8127,-0.8066,-0.8186,-0.8179,-0.8015,-0.8032,-0.7908,-0.7721,-0.7477,-0.7283,-0.7054,-0.6933,0.0,0.0,0.0,0.0,0.0,0.0,0.0,0.0,0.0,-0.7509,-0.7132,0.0,-0.6955,0.0,-0.722,-0.7501,-0.7606,-0.7356,0.0,0.0,-0.6828,-0.6574,-0.6579,-0.6165,-0.5958,-0.6165,-0.61,-0.6305,-0.7035,-0.7315,-0.7759,-0.8597,-0.8799,-0.8858,-0.8864,-0.8938,-0.8977,-0.8975,-0.9004,-0.8889,-0.8826,-0.8667,-0.8923,-0.9581,-0.914,-0.8668,-0.864,-0.864,-0.864,-0.864,-0.8637,-0.868,-0.8835,-0.8719,-0.8718,-0.8856,-0.9783,-1.0719,-1.0719,-1.0655,-1.0604,-0.6241,-0.6241,-0.6241,-0.6237,-0.6225,-0.6113,-0.6137,-0.6168,-0.6037,-0.6,-0.6025,-0.5874,-0.5812,-0.5771,-0.5786,-0.5808,-0.5818,-0.5965,-0.6006,-0.5965,-0.6063,-0.603,-0.5949,-0.6016,-0.5961,-0.5886,-0.5876,-0.5882,-0.5839,-0.576,-0.5737,-0.5735,-0.5735,-0.5711,-0.5688,-0.5534,-0.575,-0.6256,-0.6256,-0.6544,-0.7063,-0.7046,-0.6964,-0.6971,-0.7271,-0.737,-0.7278,-0.7246,-0.7152,-0.6963,-0.6563,-0.6231,-0.6027,-0.5967,-0.5886,0.0,0.0,0.0,0.0,0.0,0.0,0.0,0.0,0.0,0.0,0.0,-0.629,-0.639,-0.6499,-0.6615,-0.6785,-0.6561,-0.6396,-0.6442,-0.6049,-0.5826,-0.5872,-0.5635,-0.5544,-0.5692,-0.5625,-0.5791,-0.6367,-0.6534,-0.6672,-0.7114,-0.7198,-0.7479,-0.8195,-0.8429,-0.8449,-0.8385,-0.8338,-0.8247,-0.8111,-0.8093,-0.8258,-0.873,-0.8442,-0.8093,-0.809,-0.8041,-0.7999,-0.7999,-0.7999,-0.8023,-0.8096,-0.8057,-0.8032,-0.8217,-0.8835,-0.9423,-0.9499,-0.9499,-0.9581,-0.6312,-0.6333,-0.6333,-0.6415,-0.651,-0.6314,-0.6241,-0.6192,-0.6075,-0.6104,-0.6198,-0.6208,-0.6182,-0.6182,-0.6182,-0.6182,-0.6182,-0.6192,-0.6192,-0.6182,-0.6192,-0.6153,-0.6042,-0.6145,-0.61,-0.5926,-0.5999,-0.5997,-0.5922,-0.592,-0.592,-0.592,-0.592,-0.592,-0.5943,-0.5762,-0.5666,-0.5634,-0.5632,-0.5607,-0.5617,-0.559,-0.55,-0.5448,-0.6156,-0.6516,-0.6463,-0.6458,-0.6379,-0.6216,-0.5439,-0.4971,-0.4866,-0.485,-0.485,0.0,-0.4951,0.0,0.0,0.0,0.0,0.0,0.0,0.0,0.0,-0.5598,-0.5554,-0.5789,-0.5616,-0.5598,-0.5809,-0.5625,-0.5524,-0.5546,-0.5368,-0.5266,-0.5369,-0.5392,-0.5455,-0.55,-0.5451,-0.5537,-0.5767,-0.567,-0.5697,-0.5934,-0.5982,-0.6453,-0.7688,-0.8092,-0.8142,-0.8248,-0.808,-0.7732,-0.7857,-0.786,-0.7803,-0.7999,-0.7832,-0.786,-0.7717,-0.7673,-0.7638,-0.7623,-0.7549,-0.7591,-0.7665,-0.7635,-0.7626,-0.7569,-0.761,-0.7756,-0.8057,-0.8168,-0.8278,-0.6528,-0.6462,-0.6462,-0.647,-0.6485,-0.6483,-0.6392,-0.6251,-0.6196,-0.6127,-0.6052,-0.6151,-0.6182,-0.6182,-0.6182,-0.6182,-0.6186,-0.6257,-0.6251,-0.6184,-0.6255,-0.6243,-0.6159,-0.6206,-0.6195,-0.6165,-0.6181,-0.6147,-0.6131,-0.6131,-0.6163,-0.6161,-0.6163,-0.6161,-0.6129,0.0,0.0,0.0,-0.5783,-0.579,-0.5829,-0.5776,-0.5686,-0.5567,-0.5664,0.0,-0.5611,-0.5633,-0.5558,-0.5439,-0.5256,0.0,0.0,0.0,0.0,0.0,0.0,0.0,0.0,0.0,0.0,0.0,-0.5408,-0.5412,-0.5255,-0.5256,-0.5272,-0.5329,-0.5395,-0.5441,-0.5494,-0.5469,-0.542,-0.5434,-0.5383,-0.5389,-0.5409,-0.5469,-0.549,-0.5504,-0.5528,-0.5581,-0.5638,-0.5716,-0.5767,-0.5816,-0.5857,-0.6005,-0.6278,-0.6423,-0.6396,-0.6341,-0.6297,-0.6365,-0.6956,-0.6503,-0.6398,-0.6722,-0.6415,-0.6072,-0.6048,-0.6047,-0.5984,-0.5981,-0.5942,-0.6015,-0.6015,-0.5931,-0.6011,-0.6004,-0.5957,-0.6323,-0.767,-0.7974,-0.8057,-0.6631,-0.6588,-0.6588,-0.6588,0.0,-0.6588,-0.6537,-0.6443,-0.6306,-0.6225,-0.6158,-0.6308,-0.6347,-0.6349,-0.6349,-0.6349,-0.6351,-0.6364,-0.6392,-0.6351,-0.6364,-0.6335,-0.6249,-0.6327,-0.63,-0.6182,-0.6227,-0.6225,-0.6184,-0.6182,-0.6182,-0.6182,-0.6182,-0.6182,-0.6182,-0.6182,-0.6114,-0.6011,-0.6009,-0.6,-0.6041,-0.5961,-0.5841,-0.5752,-0.566,0.0,0.0,0.0,0.0,0.0,0.0,0.0,0.0,-0.5175,0.0,-0.5278,-0.5308,-0.5304,-0.5306,-0.5319,-0.5364,-0.538,-0.5455,-0.5473,-0.5352,-0.5388,-0.5386,-0.5386,-0.5455,-0.5482,-0.551,-0.551,-0.5482,-0.5484,-0.5482,-0.5482,-0.5488,-0.5518,-0.5563,-0.5633,-0.5614,-0.5644,-0.5737,-0.5772,-0.5853,-0.5894,-0.5872,-0.5867,-0.5894,-0.5766,-0.569,-0.5604,-0.5557,-0.5651,-0.6018,-0.5849,-0.5604,-0.5994,-0.5794,-0.5518,-0.5451,-0.5473,-0.5431,-0.5394,-0.5418,-0.5445,-0.5443,-0.5438,-0.5394,-0.5459,-0.5412,-0.5633,-0.6571,-0.6707,-0.6874,-0.6706,-0.6727,-0.6727,-0.6727,-0.6727,-0.6727,-0.6647,-0.6602,-0.6439,0.0,0.0,-0.6477,-0.6545,-0.6545,-0.6512,-0.6512,-0.6514,-0.6528,-0.6536,-0.6534,-0.6536,-0.6495,-0.6361,-0.6468,-0.6423,-0.6286,-0.6353,-0.6316,-0.6278,-0.6294,-0.6253,-0.6251,-0.6271,-0.6261,-0.6261,-0.6229,-0.6261,-0.6259,-0.623,-0.6182,-0.6212,-0.6079,-0.6004,-0.5943,-0.5853,-0.5761,-0.5642,-0.5624,-0.5549,-0.5437,-0.5426,-0.5394,-0.5265,-0.5287,-0.5319,-0.5422,-0.5494,-0.5533,-0.5504,-0.5573,-0.5622,-0.5638,-0.564,-0.5632,-0.5618,-0.563,-0.5632,-0.5618,-0.5628,-0.5632,-0.5618,-0.5584,-0.5586,-0.5586,-0.5586,-0.5584,-0.5584,-0.5632,-0.5694,-0.5757,-0.5701,-0.5717,-0.5853,-0.5849,-0.5857,-0.5941,-0.5872,-0.5841,-0.5916,-0.5786,-0.5679,-0.5571,-0.5629,-0.5614,-0.5598,-0.5619,-0.5598,-0.5652,-0.559,-0.5553,-0.5527,-0.5488,-0.5479,-0.5447,-0.5439,-0.5457,-0.5437,-0.5424,-0.5432,-0.5404,-0.5418,-0.5409,-0.5409,-0.5409,-0.5689,-0.683,-0.6727,-0.6727,-0.6727,-0.6727,-0.6727,-0.6686,-0.6698,-0.6596,-0.6551,-0.6553,-0.6564,-0.6606,-0.6606,-0.6606,-0.6606,-0.6578,-0.6651,-0.6653,-0.6653,-0.6653,-0.668,-0.6635,-0.6682,-0.6676,-0.6619,-0.6627,-0.6627,-0.6607,-0.6568,-0.6567,-0.6521,-0.6487,-0.6448,-0.6481,-0.645,-0.6448,-0.6446,-0.6294,-0.6182,-0.618,-0.62,-0.6121,-0.5974,-0.5918,-0.5857,-0.5765,-0.566,-0.5574,-0.5579,-0.5577,-0.5571,-0.5559,-0.5555,-0.5536,-0.5577,-0.5589,-0.5595,-0.5597,-0.5578,-0.5648,-0.5753,-0.5763,-0.5729,-0.5624,-0.5716,-0.5729,-0.563,-0.5718,-0.5729,-0.5628,-0.5598,-0.5609,-0.5598,-0.5592,-0.5588,-0.5603,-0.5695,-0.5772,-0.5786,-0.5843,-0.5845,-0.5874,-0.5902,-0.587,-0.5898,-0.5894,-0.5888,-0.5874,-0.5896,-0.5949,-0.5904,-0.5906,-0.588,-0.5759,-0.5808,-0.5744,-0.5634,-0.5664,-0.5694,-0.5593,-0.5649,-0.5653,-0.5583,-0.5612,-0.5663,-0.5581,-0.5512,-0.5492,-0.5478,-0.5459,-0.5414,-0.5409,-0.5409,-0.5463,-0.6949,-0.6874,-0.6868,-0.687,-0.6797,-0.5973,-0.5115,-0.4324,-0.4298,-0.4708,-0.5376,-0.5408,-0.4956,-0.4194,-0.4159,-0.416,-0.4159,-0.4189,-0.4222,-0.4185,-0.4189,-0.4672,-0.5431,-0.5434,-0.5468,-0.5506,-0.6318,-0.6279,-0.561,-0.6239,-0.6664,-0.6662,-0.6621,-0.66,-0.66,-0.6602,-0.6602,-0.6598,-0.6454,-0.6362,-0.6362,-0.6362,-0.6286,-0.6168,-0.6123,-0.609,-0.6033,-0.5957,-0.5861,-0.5766,-0.5764,-0.574,-0.5723,-0.5718,-0.5739,-0.5758,-0.5762,-0.5762,-0.5762,-0.5095,-0.4412,-0.3805,-0.3746,-0.3737,-0.3649,-0.5008,-0.5837,-0.577,-0.5843,-0.5884,-0.5843,-0.5876,-0.5935,-0.5937,-0.5935,-0.5884,-0.5847,-0.587,-0.5908,-0.5839,-0.589,-0.5886,-0.5888,-0.5888,-0.591,-0.5947,-0.5959,-0.5941,-0.5898,-0.5963,-0.5936,-0.5811,-0.5839,-0.5817,-0.5711,-0.5784,-0.5748,-0.5632,-0.572,-0.5735,-0.5636,-0.5658,-0.5656,-0.5626,-0.5654,-0.5658,-0.562,-0.5543,-0.5492,-0.55,-0.5439,-0.539,-0.5409,-0.5409,-0.5409,-0.6334,-0.5931,-0.5969,-0.5932,-0.5822,-0.4658,-0.342,-0.2329,-0.2329,-0.2734,-0.3392,-0.3729,-0.3232,-0.2178,-0.2108,-0.2143,-0.2141,-0.2127,-0.2155,-0.2151,-0.2131,-0.2781,-0.387,-0.3975,-0.397,-0.4067,-0.5155,-0.5115,-0.4208,-0.5137,-0.5705,-0.5691,-0.5655,-0.5655,-0.5655,-0.5655,-0.5655,-0.5648,-0.5537,-0.5856,-0.6484,-0.6499,-0.6452,-0.6353,-0.6325,-0.6121,-0.5793,-0.574,-0.548,-0.5052,-0.4979,-0.4983,-0.4926,-0.4904,-0.4931,-0.4967,-0.4993,-0.4993,-0.4946,-0.4042,-0.3015,-0.2083,-0.199,-0.199,-0.2146,-0.3795,-0.5002,-0.4995,-0.4909,-0.4978,-0.4933,-0.5073,-0.5246,-0.5246,-0.5246,-0.5209,-0.5487,-0.5541,-0.5711,-0.5864,-0.5928,-0.5918,-0.5912,-0.5898,-0.591,-0.5965,-0.596,-0.596,-0.596,-0.596,-0.5861,-0.5776,-0.5798,-0.5851,-0.5729,-0.5772,-0.581,-0.5693,-0.5765,-0.5782,-0.5707,-0.5683,-0.5681,-0.5691,-0.5685,-0.5697,-0.5677,-0.561,-0.5582,-0.5553,-0.548,-0.5438,-0.5414,-0.5412,-0.5409,-0.4161,-0.2841,-0.2876,-0.2728,-0.2766,-0.2584,-0.2366,-0.2184,-0.2257,-0.1527,-0.0652,-0.1826,-0.2279,-0.2209,-0.2101,-0.203,-0.2032,-0.2233,-0.2168,-0.2167,-0.2277,-0.2408,-0.2522,-0.2557,-0.2579,-0.2586,-0.2833,-0.2903,-0.2614,-0.2766,-0.2733,-0.253,-0.2526,-0.2636,-0.2598,-0.2599,-0.2597,-0.2527,-0.2521,-0.3851,-0.6395,-0.653,-0.6483,-0.6477,-0.6326,-0.5688,-0.4462,-0.4278,-0.3601,-0.2405,-0.2339,-0.2306,-0.2299,-0.2305,-0.2272,-0.2334,-0.2341,-0.2275,-0.2271,-0.2149,-0.2014,-0.1924,-0.1758,-0.1757,-0.179,-0.208,-0.2262,-0.2303,-0.2297,-0.2506,-0.2308,-0.2447,-0.2614,-0.2714,-0.2614,-0.2766,-0.3921,-0.4208,-0.4686,-0.6062,-0.5731,-0.5978,-0.578,-0.5852,-0.5931,-0.5924,-0.592,-0.5922,-0.593,-0.5928,-0.5928,-0.5902,-0.6027,-0.6076,-0.5977,-0.5983,-0.5932,-0.5867,-0.5863,-0.5857,-0.587,-0.5837,-0.5857,-0.5809,-0.5839,-0.5833,-0.5823,-0.5816,-0.5718,-0.5639,-0.5559,-0.5475,-0.5436,-0.5418,-0.542,-0.3313,-0.2649,-0.241,-0.1748,-0.0983,-0.0947,-0.0437,0.0401,0.0437,0.0801,0.1238,0.0724,0.047,0.0469,0.047,0.047,0.047,0.0433,0.0396,0.0432,0.0358,-0.0107,-0.0928,-0.1027,-0.1056,-0.1156,-0.194,-0.1939,-0.1334,-0.1872,-0.2267,-0.2221,-0.222,-0.2247,-0.2264,-0.2263,-0.2289,-0.227,-0.2217,-0.2827,-0.3864,-0.3956,-0.3894,-0.3891,-0.3838,-0.3594,-0.3027,-0.2911,-0.2596,-0.2024,-0.1957,-0.1949,-0.19,-0.1904,-0.1894,-0.1904,-0.1942,-0.1619,-0.0815,-0.0785,-0.0439,0.0314,0.0408,0.0408,0.0408,0.0411,0.0414,0.0288,-0.0997,-0.1945,-0.1924,-0.197,-0.2046,-0.2046,-0.2079,-0.227,-0.2741,-0.2803,-0.3088,-0.3609,-0.3619,-0.3957,-0.4712,-0.5484,-0.5909,-0.5959,-0.5928,-0.5943,-0.5953,-0.5936,-0.5989,-0.6068,-0.6139,-0.6108,-0.5987,-0.5962,-0.5973,-0.5924,-0.5932,-0.5959,-0.5929,-0.5888,-0.5886,-0.5888,-0.5888,-0.5888,-0.5878,-0.5845,-0.5763,-0.5704,-0.562,-0.5534,-0.5475,-0.5455,-0.5439,-0.2138,-0.1595,-0.1175,-0.044,0.0478,0.0477,0.1062,0.194,0.2118,0.215,0.2187,0.226,0.2301,0.2343,0.23,0.2296,0.2293,0.2275,0.2302,0.23,0.2244,0.1675,0.0681,0.0569,0.0567,0.039,-0.0498,-0.0496,0.0316,-0.0499,-0.1081,-0.1045,-0.1081,-0.1112,-0.1137,-0.1136,-0.1131,-0.112,-0.1108,-0.1069,-0.1033,-0.0986,-0.1281,-0.2014,-0.2114,-0.1912,-0.1544,-0.151,-0.1304,-0.0894,-0.0827,-0.0824,-0.0783,-0.0771,-0.0797,-0.0797,-0.0824,-0.0442,0.0537,0.06,0.1012,0.1899,0.2057,0.2057,0.206,0.2044,0.2065,0.1924,0.0296,-0.0761,-0.0862,-0.0901,-0.094,-0.0974,-0.1007,-0.107,-0.1392,-0.1456,-0.1615,-0.186,-0.2242,-0.2263,-0.3345,-0.4529,-0.5326,-0.535,-0.5722,-0.6006,-0.6038,-0.6058,-0.6079,-0.6202,-0.618,-0.6133,-0.6019,-0.5989,-0.5987,-0.5957,-0.5969,-0.5947,-0.5929,-0.589,-0.5888,-0.5888,-0.5888,-0.5886,-0.5886,-0.5855,-0.5802,-0.5769,-0.571,-0.5603,-0.553,-0.5518,-0.5508,-0.0225,0.1487,0.2005,0.183,0.1699,0.164,0.1521,0.1332,0.1685,0.1822,0.1859,0.2114,0.2312,0.237,0.2273,0.2297,0.2297,0.2298,0.2297,0.2297,0.2294,0.2256,0.2221,0.222,0.2146,0.1996,0.1801,0.1819,0.2008,0.1937,0.2003,0.1903,0.1769,0.1867,0.1761,0.1692,0.1931,0.1649,0.1645,0.1856,0.1853,0.1866,0.0579,-0.1583,-0.2014,-0.131,-0.0269,-0.0101,0.0504,0.1917,0.1814,0.1881,0.1945,0.1854,0.1739,0.1773,0.1859,0.1939,0.1968,0.1964,0.2032,0.2171,0.2158,0.2172,0.2154,0.216,0.2166,0.218,0.191,0.1712,0.1712,0.1478,0.1615,0.1682,0.1818,0.1176,0.0067,-0.0067,-0.0738,-0.1536,-0.1753,-0.1834,-0.2036,-0.3217,-0.3954,-0.4339,-0.5233,-0.6036,-0.5977,-0.608,-0.6218,-0.623,-0.62,-0.6178,-0.6163,-0.6062,-0.599,-0.5962,-0.5947,-0.5933,-0.5894,-0.5888,-0.5888,-0.5888,-0.5888,-0.5886,-0.5884,-0.5865,-0.5859,-0.5812,-0.5713,-0.5644,-0.5618,-0.5612,-0.5573,0.0494,0.1429,0.1579,0.1539,0.1421,0.1414,0.1331,0.1212,0.1352,0.1422,0.1423,0.1532,0.1755,0.2019,0.1989,0.2113,0.2352,0.2353,0.2353,0.2354,0.2353,0.2353,0.2351,0.2371,0.2362,0.236,0.2352,0.2352,0.232,0.2303,0.2341,0.232,0.2322,0.2305,0.2273,0.2265,0.2248,0.2214,0.221,0.221,0.2212,0.2199,0.1632,0.0725,0.065,0.0882,0.138,0.1391,0.1664,0.219,0.2189,0.2188,0.2186,0.2125,0.21,0.2116,0.2123,0.2129,0.2129,0.2129,0.2129,0.2129,0.2129,0.2166,0.2132,0.2147,0.2159,0.2129,0.2179,0.2188,0.2188,0.2188,0.2188,0.2188,0.2188,0.1986,0.1581,0.1413,0.1177,0.0638,-0.0067,-0.0699,-0.0925,-0.187,-0.2677,-0.2837,-0.3918,-0.4692,-0.5048,-0.5613,-0.6217,-0.6339,-0.6388,-0.6388,-0.6386,-0.6168,-0.6018,-0.5995,-0.5961,-0.5912,-0.5888,-0.5888,-0.5888,-0.5888,-0.5888,-0.5888,-0.5886,-0.5882,-0.5886,-0.5843,-0.577,-0.5733,-0.5743,-0.5705,-0.5658,0.0729,0.0991,0.1143,0.114,0.1021,0.1013,0.0933,0.0853,0.0958,0.1028,0.1029,0.1143,0.1329,0.159,0.1608,0.178,0.2065,0.2281,0.2423,0.2423,0.2423,0.2429,0.2433,0.2455,0.2451,0.2419,0.2412,0.2414,0.242,0.2403,0.2404,0.2421,0.2423,0.2367,0.2331,0.2325,0.23,0.2261,0.2253,0.2249,0.2238,0.2184,0.221,0.2208,0.219,0.2206,0.2185,0.2204,0.22,0.2208,0.2204,0.2199,0.2187,0.2135,0.2148,0.2129,0.2127,0.2125,0.2126,0.2158,0.2127,0.2127,0.2127,0.2126,0.2127,0.2145,0.2156,0.2162,0.2174,0.2188,0.2188,0.2188,0.2188,0.2188,0.2188,0.2188,0.2188,0.2145,0.214,0.1906,0.1274,0.0772,0.0537,-0.0566,-0.1194,-0.1358,-0.2526,-0.3345,-0.3665,-0.4704,-0.5677,-0.5834,-0.6205,-0.6404,-0.6434,-0.6241,-0.6091,-0.6058,-0.5951,-0.5906,-0.5888,-0.5888,-0.5888,-0.5888,-0.5888,-0.5888,-0.5888,-0.5888,-0.5888,-0.5888,-0.5863,-0.5821,-0.5837,-0.5827,-0.5772,0.0579,0.0656,0.1041,0.093,0.0622,0.0611,0.0381,0.0191,0.045,0.0595,0.0633,0.094,0.1094,0.1212,0.1184,0.124,0.1478,0.1993,0.2319,0.2357,0.2394,0.2445,0.2506,0.2505,0.2477,0.2498,0.2517,0.2452,0.2395,0.2427,0.2426,0.2427,0.2395,0.2392,0.2423,0.2381,0.2406,0.2377,0.2404,0.2356,0.2294,0.2242,0.2216,0.2216,0.2213,0.221,0.2208,0.2208,0.2191,0.2198,0.2194,0.2184,0.2192,0.2185,0.2186,0.2181,0.2184,0.2186,0.2184,0.2181,0.2179,0.2179,0.2184,0.2179,0.2177,0.2181,0.2184,0.2184,0.2186,0.2188,0.2188,0.2188,0.2188,0.2188,0.2188,0.2188,0.2183,0.2129,0.2111,0.2086,0.1972,0.2153,0.185,0.0904,0.0067,-0.02,-0.1164,-0.2058,-0.2224,-0.3322,-0.415,-0.4522,-0.4983,-0.5413,-0.5907,-0.631,-0.6235,-0.6121,-0.5979,-0.5888,-0.5888,-0.5888,-0.5888,-0.5888,-0.5888,-0.5888,-0.5888,-0.5888,-0.5888,-0.5886,-0.5886,-0.5886,-0.5865,-0.5841,-0.5855,0.0195,0.0195,0.0312,0.0311,0.0194,0.0192,0.0115,0.0,0.0,0.0,0.0226,0.0303,0.053,0.0759,0.0805,0.0928,0.1241,0.1551,0.1786,0.2057,0.2329,0.245,0.2497,0.25,0.2505,0.2508,0.2483,0.2515,0.248,0.2465,0.2464,0.2482,0.2485,0.2474,0.2455,0.2454,0.244,0.2411,0.2426,0.241,0.2359,0.2307,0.225,0.2265,0.2288,0.2277,0.224,0.2222,0.2186,0.2207,0.2203,0.2198,0.219,0.2188,0.2188,0.2188,0.2188,0.2188,0.2188,0.2188,0.2188,0.2189,0.2189,0.2188,0.2188,0.219,0.2189,0.2189,0.2188,0.2188,0.2188,0.2188,0.2188,0.2188,0.2188,0.2188,0.2186,0.2179,0.2175,0.2174,0.2183,0.2179,0.2097,0.1493,0.1356,0.1214,0.0164,-0.0687,-0.0915,-0.1931,-0.2806,-0.2969,-0.3578,-0.4204,-0.4669,-0.5066,-0.5187,-0.561,-0.5851,-0.5898,-0.5892,-0.5888,-0.5888,-0.5888,-0.5888,-0.5894,-0.5892,-0.5898,-0.5906,-0.5898,-0.59,-0.5896,-0.589,-0.5874,-0.5882,0.0,0.0,0.0,0.0,0.0,0.0,0.0,0.0,0.0,0.0,0.0,0.0,0.0115,0.0344,0.0386,0.0505,0.0777,0.094,0.1178,0.1453,0.1885,0.2043,0.2082,0.2239,0.2278,0.2315,0.2417,0.2495,0.2512,0.2497,0.2495,0.2511,0.2514,0.2505,0.2487,0.2485,0.2471,0.2442,0.2423,0.2439,0.241,0.2331,0.2274,0.2278,0.23,0.2286,0.224,0.223,0.2234,0.2216,0.2196,0.2189,0.2188,0.2188,0.2188,0.2188,0.2188,0.2188,0.2188,0.2188,0.2195,0.2202,0.2206,0.2206,0.2206,0.2206,0.2203,0.219,0.2188,0.2188,0.2188,0.2188,0.2188,0.2188,0.2188,0.2183,0.2177,0.2182,0.218,0.2175,0.218,0.2176,0.2165,0.2112,0.2104,0.1954,0.1326,0.0709,0.0419,-0.0516,-0.1062,-0.1643,-0.2303,-0.2869,-0.339,-0.3733,-0.4037,-0.483,-0.5656,-0.5794,-0.5902,-0.5892,-0.5888,-0.5888,-0.5888,-0.5926,-0.5932,-0.5947,-0.5957,-0.5939,-0.5926,-0.5922,-0.592,-0.5892,-0.5874,0.0,0.0,0.0,0.0,0.0,0.0,0.0,0.0,0.0,0.0,0.0,0.0,0.0,0.0,0.0,0.0,0.0,0.0432,0.0589,0.0707,0.1021,0.1257,0.1453,0.1728,0.1846,0.1924,0.2198,0.2356,0.2318,0.2314,0.2435,0.2396,0.2396,0.2475,0.2509,0.2513,0.2497,0.2475,0.2505,0.2475,0.2426,0.2348,0.2287,0.2303,0.2295,0.228,0.2228,0.227,0.2257,0.2207,0.2214,0.2201,0.2194,0.2191,0.2194,0.219,0.2188,0.2188,0.2188,0.2195,0.2201,0.2185,0.2192,0.2198,0.219,0.2185,0.2211,0.2191,0.2188,0.219,0.2192,0.2195,0.2195,0.2192,0.2192,0.2178,0.2121,0.2173,0.2177,0.2162,0.2171,0.2186,0.2178,0.2122,0.2109,0.2096,0.198,0.1841,0.161,0.0772,0.0193,-0.0321,-0.0771,-0.1382,-0.1832,-0.2131,-0.2505,-0.3598,-0.4551,-0.5123,-0.5761,-0.5937,-0.592,-0.5914,-0.5918,-0.5953,-0.5989,-0.6014,-0.6012,-0.5991,-0.5979,-0.5967,-0.5937,-0.59,-0.5888,0.0,0.0,0.0,0.0,0.0,0.0,0.0,0.0,0.0,0.0,0.0,0.0,0.0,0.0,0.0,0.0,0.0,0.0,0.0157,0.0196,0.0275,0.0746,0.1218,0.1414,0.1453,0.1492,0.161,0.161,0.161,0.1689,0.1807,0.2043,0.2082,0.22,0.2435,0.2475,0.2511,0.25,0.2517,0.2502,0.2475,0.237,0.2343,0.2352,0.2314,0.229,0.2277,0.2264,0.2218,0.2201,0.2192,0.2211,0.2191,0.2188,0.2214,0.2197,0.2192,0.219,0.2194,0.221,0.2181,0.2204,0.2189,0.219,0.2202,0.2201,0.2197,0.2188,0.2188,0.2197,0.2181,0.2187,0.2187,0.2185,0.2206,0.2188,0.2179,0.2183,0.2184,0.2179,0.2183,0.2178,0.2163,0.2116,0.2101,0.2118,0.2105,0.2096,0.1932,0.1826,0.1118,0.1366,0.1047,0.0349,-0.0191,-0.0479,-0.1086,-0.2218,-0.3161,-0.4028,-0.4988,-0.5996,-0.5976,-0.5958,-0.5993,-0.602,-0.6102,-0.6143,-0.6114,-0.6044,-0.6016,-0.5991,-0.593,-0.5888,-0.5888,0.0,0.0,0.0,0.0,0.0,0.0,0.0,0.0,0.0,0.0,0.0,0.0,0.0,0.0,0.0,0.0,0.0,0.0,0.0,0.0,0.0,0.0,0.0707,0.0903,0.1021,0.106,0.1218,0.1335,0.1335,0.1296,0.1453,0.161,0.1649,0.1767,0.1924,0.2003,0.2121,0.2197,0.2262,0.2289,0.2464,0.2405,0.2385,0.2383,0.2341,0.2273,0.2305,0.2256,0.2237,0.2218,0.2209,0.2202,0.2187,0.2184,0.2211,0.2193,0.2193,0.2189,0.2213,0.2191,0.2191,0.2181,0.2192,0.2189,0.2213,0.2207,0.2206,0.219,0.2189,0.2197,0.2212,0.2192,0.2199,0.2198,0.2195,0.2181,0.2193,0.2188,0.2188,0.2189,0.2188,0.2183,0.2129,0.2119,0.2102,0.2119,0.2107,0.21,0.2063,0.2078,0.2037,0.2037,0.2026,0.1297,0.0918,0.07,0.0128,-0.092,-0.2072,-0.2909,-0.4041,-0.5414,-0.6025,-0.6007,-0.6043,-0.6093,-0.6182,-0.6204,-0.6159,-0.6121,-0.6054,-0.5993,-0.5928,-0.5888,-0.5888,0.0,0.0,0.0,0.0,0.0,0.0,0.0,0.0,0.0,0.0,0.0,0.0,0.0,0.0,0.0,0.0,0.0,0.0,0.0,0.0,0.0,0.0,0.0157,0.0432,0.055,0.0589,0.0982,0.106,0.1021,0.1099,0.1178,0.1218,0.1218,0.1296,0.1414,0.1375,0.1532,0.1767,0.1844,0.1952,0.2168,0.2137,0.2123,0.2116,0.2192,0.2239,0.2272,0.2299,0.2278,0.2228,0.2222,0.2221,0.2218,0.2215,0.2206,0.2198,0.219,0.2182,0.22,0.2193,0.2196,0.2191,0.2193,0.2197,0.219,0.2185,0.221,0.219,0.2189,0.2193,0.2204,0.2189,0.2206,0.2212,0.2194,0.2215,0.2213,0.2195,0.2193,0.2192,0.2192,0.2188,0.2182,0.2168,0.2114,0.215,0.2135,0.2131,0.2123,0.2111,0.2104,0.21,0.205,0.1995,0.1869,0.1839,0.1147,0.0287,-0.0998,-0.2001,-0.2905,-0.4183,-0.5463,-0.6058,-0.613,-0.6188,-0.6233,-0.6255,-0.6204,-0.6135,-0.6046,-0.5979,-0.5914,-0.5896,-0.5888,0.0,0.0,0.0,0.0,0.0,0.0,0.0,0.0,0.0,0.0,0.0,0.0,0.0,0.0,0.0,0.0,0.0,0.0,0.0,0.0,0.0,0.0,0.0,0.0,0.0,0.0,0.0,0.0,0.0,0.0,0.0471,0.0707,0.0785,0.0942,0.1218,0.1178,0.1335,0.1414,0.1414,0.149,0.1562,0.1584,0.1534,0.1531,0.1777,0.2067,0.2323,0.2381,0.2363,0.2348,0.2288,0.2226,0.2246,0.2278,0.2259,0.2226,0.2213,0.2199,0.2212,0.2189,0.219,0.2212,0.2189,0.2189,0.22,0.22,0.2197,0.2188,0.2189,0.2198,0.2182,0.2181,0.2191,0.2195,0.2202,0.2205,0.2189,0.2203,0.2191,0.2187,0.2206,0.2189,0.219,0.2188,0.2178,0.2177,0.2172,0.2168,0.2156,0.2143,0.2137,0.2132,0.2076,0.2055,0.2054,0.2055,0.1706,0.1226,0.0195,-0.0916,-0.1844,-0.2892,-0.4145,-0.5312,-0.6255,-0.6284,-0.6343,-0.6257,-0.6235,-0.6119,-0.6036,-0.5967,-0.5914,-0.5898,-0.5888,0.0,0.0,0.0,0.0,0.0,0.0,0.0,0.0,0.0,0.0,0.0,0.0,0.0,0.0,0.0,0.0,0.0,0.0,0.0,0.0,0.0,0.0,0.0,0.0,0.0,0.0,0.0,0.0,0.0,0.0,0.0157,0.0275,0.0,0.0432,0.0668,0.0707,0.0785,0.0942,0.0982,0.106,0.1254,0.1242,0.119,0.1188,0.1413,0.1639,0.1778,0.1795,0.1934,0.2074,0.2092,0.2138,0.2261,0.2291,0.2266,0.2197,0.2187,0.2181,0.2207,0.221,0.2181,0.2198,0.2201,0.219,0.2209,0.2199,0.2188,0.2188,0.219,0.2197,0.2213,0.2205,0.2186,0.2192,0.2203,0.221,0.2208,0.2196,0.2187,0.2184,0.221,0.2193,0.2184,0.2209,0.2196,0.219,0.2183,0.2179,0.2179,0.2168,0.2167,0.2158,0.2101,0.2087,0.2086,0.2087,0.2092,0.18,0.1378,0.0363,-0.056,-0.1639,-0.2778,-0.4111,-0.5532,-0.6347,-0.6425,-0.6329,-0.6217,-0.6166,-0.6048,-0.5967,-0.5912,-0.5894,-0.5888,0.0,0.0,0.0,0.0,0.0,0.0,0.0,0.0,0.0,0.0,0.0,0.0,0.0,0.0,0.0,0.0,0.0,0.0,0.0,0.0,0.0,0.0,0.0,0.0,0.0,0.0,0.0,0.0,0.0,0.0,0.0,0.0,0.0,0.0,0.0,0.0,0.0236,0.051,0.051,0.0628,0.0942,0.0934,0.0925,0.1075,0.1078,0.1194,0.1298,0.136,0.1421,0.1751,0.1803,0.1961,0.212,0.2295,0.2284,0.222,0.2217,0.221,0.2202,0.2206,0.2206,0.221,0.2189,0.2209,0.2202,0.2189,0.221,0.2198,0.2196,0.2189,0.2191,0.2186,0.22,0.2207,0.2193,0.221,0.2216,0.2217,0.2216,0.2207,0.2198,0.2185,0.2208,0.2198,0.2183,0.2201,0.2195,0.2188,0.2188,0.2188,0.2183,0.2181,0.2159,0.2151,0.215,0.2146,0.2119,0.2078,0.1984,0.1426,0.0499,-0.0496,-0.1742,-0.3428,-0.469,-0.5496,-0.6133,-0.6124,-0.6049,-0.6104,-0.6086,-0.5971,-0.5924,-0.5892,-0.5888,0.0,0.0,0.0,0.0,0.0,0.0,0.0,0.0,0.0,0.0,0.0,0.0,0.0,0.0,0.0,0.0,0.0,0.0,0.0,0.0,0.0,0.0,0.0,0.0,0.0,0.0,0.0,0.0,0.0,0.0,0.0,0.0,0.0,0.0,0.0,0.0,0.0,0.0,0.0,0.0,0.0,0.0,0.0,0.0661,0.0702,0.0858,0.1128,0.1195,0.1374,0.1737,0.1789,0.1794,0.1841,0.2095,0.2197,0.2247,0.2239,0.223,0.2218,0.2213,0.2212,0.2209,0.2206,0.2204,0.2201,0.2195,0.2211,0.2191,0.2206,0.219,0.219,0.2214,0.2196,0.2206,0.2186,0.2213,0.2267,0.2273,0.2268,0.222,0.2214,0.2212,0.2202,0.2224,0.2206,0.2222,0.2207,0.2196,0.2188,0.2188,0.2187,0.2186,0.2184,0.2181,0.2181,0.2176,0.2173,0.2121,0.2086,0.2086,0.126,0.0495,-0.076,-0.1872,-0.3387,-0.4652,-0.518,-0.5659,-0.6006,-0.6121,-0.6046,-0.5942,-0.5926,-0.5888,-0.5888,0.0,0.0,0.0,0.0,0.0,0.0,0.0,0.0,0.0,0.0,0.0,0.0,0.0,0.0,0.0,0.0,0.0,0.0,0.0,0.0,0.0,0.0,0.0,0.0,0.0,0.0,0.0,0.0,0.0,0.0,0.0,0.0,0.0,0.0,0.0,0.0,0.0,0.0,0.0,0.0,0.0,0.0,0.0,0.0,0.0,0.0393,0.0549,0.0582,0.0767,0.106,0.116,0.1289,0.1457,0.1631,0.1808,0.196,0.2129,0.2237,0.2233,0.2234,0.2276,0.2252,0.2243,0.2234,0.2229,0.2218,0.2205,0.2187,0.2197,0.2212,0.2214,0.2181,0.221,0.2213,0.2193,0.2215,0.2239,0.2258,0.2262,0.2228,0.2244,0.2244,0.227,0.2253,0.2232,0.2211,0.2189,0.2209,0.2197,0.2193,0.2195,0.219,0.219,0.2191,0.219,0.2187,0.2186,0.217,0.2161,0.2161,0.1996,0.1229,0.0999,0.047,-0.124,-0.3546,-0.4666,-0.5296,-0.5726,-0.6085,-0.6058,-0.5968,-0.5928,-0.5888,-0.59,0.0,0.0,0.0,0.0,0.0,0.0,0.0,0.0,0.0,0.0,0.0,0.0,0.0,0.0,0.0,0.0,0.0,0.0,0.0,0.0,0.0,0.0,0.0,0.0,0.0,0.0,0.0,0.0,0.0,0.0,0.0,0.0,0.0,0.0,0.0,0.0,0.0,0.0,0.0,0.0,0.0,0.0,0.0,0.0,0.0,0.0,0.0,0.0,0.0,0.0569,0.0713,0.0778,0.1025,0.1167,0.1301,0.1492,0.1875,0.2134,0.229,0.2299,0.2271,0.2284,0.2273,0.2302,0.2292,0.2241,0.2221,0.2214,0.2192,0.2209,0.2206,0.2189,0.221,0.2202,0.2205,0.221,0.2203,0.2226,0.225,0.2232,0.2267,0.2271,0.2291,0.2281,0.2259,0.2245,0.2224,0.2208,0.2196,0.221,0.2206,0.2196,0.2193,0.2195,0.2193,0.2188,0.2188,0.2182,0.2177,0.2177,0.2181,0.2015,0.1851,0.148,-0.0403,-0.2581,-0.3742,-0.473,-0.5099,-0.542,-0.5788,-0.6015,-0.6014,-0.5971,-0.5959,0.0,0.0,0.0,0.0,0.0,0.0,0.0,0.0,0.0,0.0,0.0,0.0,0.0,0.0,0.0,0.0,0.0,0.0,0.0,0.0,0.0,0.0,0.0,0.0,0.0,0.0,0.0,0.0,0.0,0.0,0.0,0.0,0.0,0.0,0.0,0.0,0.0,0.0,0.0,0.0,0.0,0.0,0.0,0.0,0.0,0.0,0.0,0.0,0.0,0.0494,0.0567,0.0635,0.0734,0.1022,0.0948,0.1054,0.1379,0.196,0.2179,0.2287,0.2287,0.2295,0.229,0.2291,0.2281,0.2302,0.2285,0.2284,0.2222,0.2206,0.2205,0.2199,0.2185,0.2202,0.2188,0.219,0.2202,0.2207,0.2229,0.2212,0.224,0.2263,0.2267,0.2295,0.2287,0.2274,0.226,0.2208,0.2191,0.2206,0.2193,0.2186,0.2209,0.2208,0.2201,0.2195,0.219,0.219,0.2189,0.2189,0.2188,0.2188,0.2188,0.1481,-0.0168,-0.0873,-0.1307,-0.2337,-0.3821,-0.4799,-0.5241,-0.5727,-0.6163,-0.6117,-0.6059,0.0,0.0,0.0,0.0,0.0,0.0,0.0,0.0,0.0,0.0,0.0,0.0,0.0,0.0,0.0,0.0,0.0,0.0,0.0,0.0,0.0,0.0,0.0,0.0,0.0,0.0,0.0,0.0,0.0,0.0,0.0,0.0,0.0,0.0,0.0,0.0,0.0,0.0,0.0,0.0,0.0,0.0,0.0,0.0,0.0,0.0,0.0,0.0,0.0,0.0268,0.0266,0.0263,0.0296,0.044,0.0474,0.0693,0.0875,0.1385,0.1895,0.215,0.226,0.2296,0.2296,0.2295,0.2293,0.2286,0.2277,0.2278,0.2252,0.2238,0.2231,0.222,0.2195,0.2213,0.221,0.2204,0.2204,0.2202,0.2213,0.2195,0.2212,0.2236,0.2256,0.2254,0.2286,0.2285,0.2274,0.2227,0.2212,0.2197,0.2188,0.2182,0.2204,0.2193,0.2181,0.2205,0.2195,0.2192,0.219,0.219,0.2189,0.2188,0.2188,0.2188,0.1346,0.0942,0.0942,-0.0704,-0.2867,-0.3866,-0.4679,-0.531,-0.5934,-0.6188,-0.6151,0.0,0.0,0.0,0.0,0.0,0.0,0.0,0.0,0.0,0.0,0.0,0.0,0.0,0.0,0.0,0.0,0.0,0.0,0.0,0.0,0.0,0.0,0.0,0.0,0.0,0.0,0.0,0.0,0.0,0.0,0.0,0.0,0.0,0.0,0.0,0.0,0.0,0.0,0.0,0.0,0.0,0.0,0.0,0.0,0.0,0.0,0.0,0.0,0.0,0.0,0.0,0.0,0.0,0.0,0.0,0.0404,0.0586,0.0912,0.1422,0.1823,0.215,0.226,0.226,0.226,0.215,0.2223,0.2296,0.2293,0.2279,0.2267,0.2296,0.2245,0.2228,0.2245,0.223,0.2221,0.2213,0.2181,0.2184,0.2198,0.221,0.221,0.2227,0.2236,0.2279,0.2288,0.2286,0.2279,0.2235,0.2225,0.2216,0.221,0.2241,0.2226,0.2208,0.2193,0.2212,0.2198,0.2197,0.2192,0.219,0.2189,0.2188,0.2188,0.2188,0.202,0.1548,-0.0235,-0.1974,-0.2924,-0.3927,-0.4993,-0.5687,-0.6018,-0.6284,0.0,0.0,0.0,0.0,0.0,0.0,0.0,0.0,0.0,0.0,0.0,0.0,0.0,0.0,0.0,0.0,0.0,0.0,0.0,0.0,0.0,0.0,0.0,0.0,0.0,0.0,0.0,0.0,0.0,0.0,0.0,0.0,0.0,0.0,0.0,0.0,0.0,0.0,0.0,0.0,0.0,0.0,0.0,0.0,0.0,0.0,0.0,0.0,0.0,0.0,0.0,0.0,0.0,0.0,0.0,0.0,0.0,0.062,0.0948,0.1458,0.1932,0.215,0.2187,0.2042,0.1859,0.2114,0.2223,0.2187,0.2143,0.2216,0.2253,0.2287,0.2263,0.2277,0.2258,0.2247,0.2205,0.2199,0.2203,0.2208,0.221,0.221,0.221,0.2222,0.2276,0.2287,0.2303,0.2261,0.2265,0.2257,0.2245,0.224,0.2278,0.2266,0.2211,0.2193,0.2208,0.2191,0.2183,0.2204,0.2192,0.219,0.2189,0.2188,0.2188,0.2188,0.2087,0.0739,-0.0637,-0.1973,-0.3063,-0.3843,-0.517,-0.6029,-0.6275,0.0,0.0,0.0,0.0,0.0,0.0,0.0,0.0,0.0,0.0,0.0,0.0,0.0,0.0,0.0,0.0,0.0,0.0,0.0,0.0,0.0,0.0,0.0,0.0,0.0,0.0,0.0,0.0,0.0,0.0,0.0,0.0,0.0,0.0,0.0,0.0,0.0,0.0,0.0,0.0,0.0,0.0,0.0,0.0,0.0,0.0,0.0,0.0,0.0,0.0,0.0,0.0,0.0,0.0,0.0,0.0,0.0,0.0329,0.062,0.1095,0.1459,0.1568,0.1605,0.1568,0.1459,0.1568,0.1605,0.1678,0.1859,0.1969,0.2004,0.2148,0.2283,0.23,0.225,0.2204,0.2161,0.2084,0.2152,0.2122,0.2148,0.221,0.221,0.2212,0.2231,0.2286,0.2303,0.228,0.2282,0.2284,0.2271,0.2258,0.2294,0.229,0.2234,0.2217,0.2199,0.2182,0.22,0.2181,0.2196,0.219,0.2188,0.2188,0.2188,0.2188,0.2054,0.1716,0.0672,-0.0871,-0.1707,-0.2273,-0.3818,-0.5746,-0.6185,0.0,0.0,0.0,0.0,0.0,0.0,0.0,0.0,0.0,0.0,0.0,0.0,0.0,0.0,0.0,0.0,0.0,0.0,0.0,0.0,0.0,0.0,0.0,0.0,0.0,0.0,0.0,0.0,0.0,0.0,0.0,0.0,0.0,0.0,0.0,0.0,0.0,0.0,0.0,0.0,0.0,0.0,0.0,0.0,0.0,0.0,0.0,0.0,0.0,0.0,0.0,0.0,0.0,0.0,0.0,0.0,0.0,0.0,0.0,0.0912,0.1095,0.1095,0.124,0.1167,0.1058,0.1131,0.1313,0.1277,0.1495,0.1641,0.1641,0.1786,0.1857,0.1771,0.1806,0.1763,0.1864,0.1859,0.1963,0.2033,0.2133,0.2239,0.2228,0.2231,0.2238,0.2294,0.2274,0.2286,0.229,0.2291,0.2291,0.2277,0.2304,0.2298,0.2289,0.2227,0.2201,0.2213,0.2196,0.2182,0.2201,0.2194,0.2188,0.2188,0.2188,0.2188,0.2087,0.1885,0.1144,0.0134,-0.0772,-0.1843,-0.3354,-0.5175,-0.5882,0.0,0.0,0.0,0.0,0.0,0.0,0.0,0.0,0.0,0.0,0.0,0.0,0.0,0.0,0.0,0.0,0.0,0.0,0.0,0.0,0.0,0.0,0.0,0.0,0.0,0.0,0.0,0.0,0.0,0.0,0.0,0.0,0.0,0.0,0.0,0.0,0.0,0.0,0.0,0.0,0.0,0.0,0.0,0.0,0.0,0.0,0.0,0.0,0.0,0.0,0.0,0.0,0.0,0.0,0.0,0.0,0.0,0.0,0.0,0.0,0.0876,0.0693,0.0803,0.0876,0.0766,0.0876,0.1022,0.0912,0.1131,0.1204,0.124,0.1277,0.1348,0.1384,0.1418,0.1453,0.1556,0.1589,0.1695,0.18,0.2062,0.2284,0.2266,0.2291,0.2291,0.2303,0.2283,0.2291,0.2292,0.2287,0.2284,0.2268,0.2253,0.2249,0.2238,0.2224,0.2202,0.2213,0.2194,0.2181,0.2202,0.2192,0.2188,0.219,0.2188,0.2188,0.2188,0.2155,0.1481,0.074,-0.0772,-0.2013,-0.3425,-0.4367,-0.4871,0.0,0.0,0.0,0.0,0.0,0.0,0.0,0.0,0.0,0.0,0.0,0.0,0.0,0.0,0.0,0.0,0.0,0.0,0.0,0.0,0.0,0.0,0.0,0.0,0.0,0.0,0.0,0.0,0.0,0.0,0.0,0.0,0.0,0.0,0.0,0.0,0.0,0.0,0.0,0.0,0.0,0.0,0.0,0.0,0.0,0.0,0.0,0.0,0.0,0.0,0.0,0.0,0.0,0.0,0.0,0.0,0.0,0.0,0.0,0.0292,0.0328,0.0,0.0,0.0,0.0,0.0,0.0401,0.0511,0.0693,0.0766,0.0803,0.1095,0.1203,0.124,0.1275,0.1276,0.131,0.1347,0.1418,0.149,0.1676,0.2076,0.2246,0.2275,0.2273,0.2275,0.2289,0.2281,0.2278,0.2303,0.2296,0.224,0.2226,0.2225,0.222,0.2209,0.2195,0.2208,0.2195,0.2185,0.2206,0.2201,0.2197,0.2202,0.2195,0.2189,0.2198,0.2169,0.2023,0.1244,0.0034,-0.084,-0.1645,-0.2585,-0.3424,0.0,0.0,0.0,0.0,0.0,0.0,0.0,0.0,0.0,0.0,0.0,0.0,0.0,0.0,0.0,0.0,0.0,0.0,0.0,0.0,0.0,0.0,0.0,0.0,0.0,0.0,0.0,0.0,0.0,0.0,0.0,0.0,0.0,0.0,0.0,0.0,0.0,0.0,0.0,0.0,0.0,0.0,0.0,0.0,0.0,0.0,0.0,0.0,0.0,0.0,0.0,0.0,0.0,0.0,0.0,0.0,0.0,0.0,0.0,0.0,0.0,0.0,0.0,0.0,0.0,0.0,0.0,0.0,0.0,0.0,0.0,0.0,0.0876,0.0876,0.0876,0.0876,0.1022,0.1022,0.1168,0.124,0.1531,0.1896,0.2223,0.2258,0.2291,0.2293,0.2296,0.2282,0.2306,0.2298,0.2289,0.2236,0.2217,0.2215,0.221,0.2197,0.2183,0.2202,0.22,0.22,0.2204,0.2204,0.2192,0.2185,0.2192,0.2196,0.2189,0.2151,0.2076,0.1897,0.1349,0.064,0.0134,-0.1041,-0.235,0.0,0.0,0.0,0.0,0.0,0.0,0.0,0.0,0.0,0.0,0.0,0.0,0.0,0.0,0.0,0.0,0.0,0.0,0.0,0.0,0.0,0.0,0.0,0.0,0.0,0.0,0.0,0.0,0.0,0.0,0.0,0.0,0.0,0.0,0.0,0.0,0.0,0.0,0.0,0.0,0.0,0.0,0.0,0.0,0.0,0.0,0.0,0.0,0.0,0.0,0.0,0.0,0.0,0.0,0.0,0.0,0.0,0.0,0.0,0.0,0.0,0.0,0.0,0.0,0.0,0.0,0.0,0.0,0.0,0.0,0.0,0.0,0.0292,0.0328,0.0328,0.0438,0.062,0.0766,0.0949,0.1204,0.1568,0.1895,0.2187,0.2296,0.2296,0.2296,0.2296,0.2294,0.2283,0.2275,0.2266,0.2253,0.2234,0.2213,0.2204,0.2197,0.2191,0.2183,0.2192,0.2195,0.2199,0.2199,0.2188,0.2185,0.22,0.22,0.2185,0.221,0.217,0.1953,0.1602,0.0945,0.0067,-0.0706,-0.1947,0.0,0.0,0.0,0.0,0.0,0.0,0.0,0.0,0.0,0.0,0.0,0.0,0.0,0.0,0.0,0.0,0.0,0.0,0.0,0.0,0.0,0.0,0.0,0.0,0.0,0.0,0.0,0.0,0.0,0.0,0.0,0.0,0.0,0.0,0.0,0.0,0.0,0.0,0.0,0.0,0.0,0.0,0.0,0.0,0.0,0.0,0.0,0.0,0.0,0.0,0.0,0.0,0.0,0.0,0.0,0.0,0.0,0.0,0.0,0.0,0.0,0.0,0.0,0.0,0.0,0.0,0.0,0.0,0.0,0.0,0.0,0.0,0.0,0.0219,0.0255,0.0401,0.062,0.0803,0.0985,0.1277,0.1677,0.1968,0.2223,0.2296,0.2296,0.2296,0.2296,0.2296,0.2294,0.2285,0.2277,0.2265,0.2245,0.2224,0.2215,0.2208,0.2204,0.2201,0.2214,0.222,0.2213,0.2212,0.2211,0.2214,0.2219,0.2216,0.2207,0.2201,0.2233,0.177,0.1346,0.0716,-0.0034,-0.1043,-0.2019,0.0,0.0,0.0,0.0,0.0,0.0,0.0,0.0,0.0,0.0,0.0,0.0,0.0,0.0,0.0,0.0,0.0,0.0,0.0,0.0,0.0,0.0,0.0,0.0,0.0,0.0,0.0,0.0,0.0,0.0,0.0,0.0,0.0,0.0,0.0,0.0,0.0,0.0,0.0,0.0,0.0,0.0,0.0,0.0,0.0,0.0,0.0,0.0,0.0,0.0,0.0,0.0,0.0,0.0,0.0,0.0,0.0,0.0,0.0,0.0,0.0,0.0,0.0,0.0,0.0,0.0,0.0,0.0,0.0,0.0,0.0,0.0,0.0,0.0255,0.0365,0.0511,0.0693,0.0876,0.1131,0.1458,0.175,0.2041,0.2223,0.226,0.2296,0.2296,0.2296,0.2296,0.2295,0.229,0.2284,0.2275,0.2255,0.2233,0.2228,0.2228,0.2228,0.2233,0.2248,0.2249,0.2234,0.2228,0.2232,0.2232,0.2266,0.2232,0.2237,0.2231,0.2191,0.1759,0.1222,0.0448,-0.0613,-0.209,-0.3072,0.0,0.0,0.0,0.0,0.0,0.0,0.0,0.0,0.0,0.0,0.0,0.0,0.0,0.0,0.0,0.0,0.0,0.0,0.0,0.0,0.0,0.0,0.0,0.0,0.0,0.0,0.0,0.0,0.0,0.0,0.0,0.0,0.0,0.0,0.0,0.0,0.0,0.0,0.0,0.0,0.0,0.0,0.0,0.0,0.0,0.0,0.0,0.0,0.0,0.0,0.0,0.0,0.0,0.0,0.0,0.0,0.0,0.0,0.0,0.0,0.0,0.0,0.0,0.0,0.0,0.0,0.0,0.0,0.0,0.0,0.0,0.0,0.0,0.0292,0.0438,0.0584,0.073,0.1022,0.1386,0.1677,0.1969,0.2223,0.226,0.2296,0.2296,0.2296,0.2296,0.2296,0.2295,0.2293,0.2289,0.2284,0.2271,0.2257,0.2257,0.2257,0.2258,0.2302,0.2277,0.2277,0.2261,0.2257,0.2291,0.229,0.2288,0.2266,0.2271,0.2263,0.2219,0.1999,0.1345,0.0314,-0.1101,-0.2852,-0.4165,0.0,0.0,0.0,0.0,0.0,0.0,0.0,0.0,0.0,0.0,0.0,0.0,0.0,0.0,0.0,0.0,0.0,0.0,0.0,0.0,0.0,0.0,0.0,0.0,0.0,0.0,0.0,0.0,0.0,0.0,0.0,0.0,0.0,0.0,0.0,0.0,0.0,0.0,0.0,0.0,0.0,0.0,0.0,0.0,0.0,0.0,0.0,0.0,0.0,0.0,0.0,0.0,0.0,0.0,0.0,0.0,0.0,0.0,0.0,0.0,0.0,0.0,0.0,0.0,0.0,0.0,0.0,0.0,0.0,0.0,0.0,0.0,0.0,0.0,0.0511,0.062,0.0766,0.1203,0.164,0.1932,0.2187,0.226,0.2296,0.2296,0.2296,0.2296,0.2296,0.2296,0.2296,0.2295,0.2295,0.2291,0.2293,0.2285,0.2283,0.2281,0.2277,0.228,0.2288,0.2287,0.2283,0.2293,0.2273,0.23,0.2277,0.2273,0.2273,0.2287,0.2208,0.1868,0.0889,-0.0349,-0.197,-0.3756,-0.5044,0.0,0.0,0.0,0.0,0.0,0.0,0.0,0.0,0.0,0.0,0.0,0.0,0.0,0.0,0.0,0.0,0.0,0.0,0.0,0.0,0.0,0.0,0.0,0.0,0.0,0.0,0.0,0.0,0.0,0.0,0.0,0.0,0.0,0.0,0.0,0.0,0.0,0.0,0.0,0.0,0.0,0.0,0.0,0.0,0.0,0.0,0.0,0.0,0.0,0.0,0.0,0.0,0.0,0.0,0.0,0.0,0.0,0.0,0.0,0.0,0.0,0.0,0.0,0.0,0.0,0.0,0.0,0.0,0.0,0.0,0.0,0.0,0.0,0.0,0.0,0.0438,0.0875,0.1422,0.1786,0.2114,0.226,0.2296,0.2296,0.2296,0.2296,0.2296,0.2296,0.2296,0.2296,0.2296,0.2296,0.2296,0.2296,0.2296,0.2292,0.2291,0.2291,0.2295,0.2296,0.2285,0.2273,0.2272,0.2254,0.2279,0.2255,0.2244,0.225,0.2056,0.1581,0.1066,0.0,-0.1187,-0.2872,-0.439,-0.532,0.0,0.0,0.0,0.0,0.0,0.0,0.0,0.0,0.0,0.0,0.0,0.0,0.0,0.0,0.0,0.0,0.0,0.0,0.0,0.0,0.0,0.0,0.0,0.0,0.0,0.0,0.0,0.0,0.0,0.0,0.0,0.0,0.0,0.0,0.0,0.0,0.0,0.0,0.0,0.0,0.0,0.0,0.0,0.0,0.0,0.0,0.0,0.0,0.0,0.0,0.0,0.0,0.0,0.0,0.0,0.0,0.0,0.0,0.0,0.0,0.0,0.0,0.0,0.0,0.0,0.0,0.0,0.0,0.0,0.0,0.0,0.0,0.0,0.0,0.0,0.0401,0.0985,0.1531,0.1895,0.2223,0.226,0.226,0.2296,0.2296,0.2296,0.2296,0.2296,0.2296,0.2296,0.2296,0.2296,0.2296,0.2296,0.2296,0.2296,0.2296,0.2296,0.2296,0.2294,0.228,0.2298,0.2268,0.2251,0.222,0.2226,0.2043,0.177,0.1501,0.0958,0.0035,-0.1333,-0.2583,-0.3395,-0.4739,-0.5373,0.0,0.0,0.0,0.0,0.0,0.0,0.0,0.0,0.0,0.0,0.0,0.0,0.0,0.0,0.0,0.0,0.0,0.0,0.0,0.0,0.0,0.0,0.0,0.0,0.0,0.0,0.0,0.0,0.0,0.0,0.0,0.0,0.0,0.0,0.0,0.0,0.0,0.0,0.0,0.0,0.0,0.0,0.0,0.0,0.0,0.0,0.0,0.0,0.0,0.0,0.0,0.0,0.0,0.0,0.0,0.0,0.0,0.0,0.0,0.0,0.0,0.0,0.0,0.0,0.0,0.0,0.0,0.0,0.0,0.0,0.0,0.0,0.0,0.0,0.0,0.062,0.1095,0.1495,0.1786,0.2041,0.2187,0.2223,0.2296,0.2296,0.2296,0.2296,0.2296,0.2296,0.2296,0.2296,0.2296,0.2296,0.2296,0.2296,0.2296,0.2296,0.2296,0.2296,0.2295,0.2287,0.2269,0.2236,0.2188,0.1805,0.1686,0.1536,0.1266,0.0391,-0.0464,-0.153,-0.2955,-0.412,-0.468,-0.5121,-0.5783]},{"header":{"parameterUnit":"m.s-1","parameterCategory":1,"la1":31.0,"la2":29.5877,"lo1":-88.7671,"lo2":-86.6584,"dy":0.0162,"dx":0.0185,"nx":115,"ny":88,"refTime":"2023-04-23T00:00:00:Z","depth":0,"parameterNumber":3,"parameterNumberName":"V-component_of_WINDS"},"data":[0.0,0.0,0.0,0.0,0.0,0.0,0.0,0.0,0.0,0.0,0.0,0.0,0.0,0.0,0.0,0.0,0.0,0.0,0.0,0.0,0.0,0.0,0.0,0.0,0.0,0.0,0.0,0.0,0.0,0.0,0.0,0.0,0.0,0.0,0.0,0.0,0.0,0.0,0.0,0.0,0.0,0.0,0.0,0.0,0.0,0.0,0.0,0.0,0.0,0.0,0.0,0.0,0.0,0.0,0.0,0.0,0.0,0.0,0.0,0.0,0.0,0.0,0.0,0.0,0.0,0.0,0.0,0.0,0.0,0.0,0.0,0.0,0.0,0.0,0.0,0.0,0.0,0.0,0.0,0.0,0.0,0.0,0.0,0.0,0.0,0.0,0.0,0.0,0.0,0.0,0.0,0.0,0.0,0.0,0.0,0.0,0.0,0.0,0.0,0.0,0.0,0.0,0.0,0.0,0.0,0.0,0.0,0.0,0.0,0.0,0.0,0.0,0.0,0.0,0.0,0.0,0.0,0.0,0.0,0.0,0.0,0.0,0.0,0.0,0.0,0.0,0.0,0.0,0.0,0.0,0.0,0.0,0.0,0.0,0.0,0.0,0.0,0.0,0.0,0.0,0.0,0.0,0.0,0.0,0.0,0.0,0.0,0.0,0.0,0.0,0.0,0.0,0.0,0.0,0.0,0.0,0.0,0.0,0.0,0.0,0.0,0.0,0.0,0.0,0.0,0.0,0.0,0.0,0.0,0.0,0.0,0.0,0.0,0.0,0.0,0.0,0.0,0.0,0.0,0.0,0.0,0.0,0.0,0.0,0.0,0.0,0.0,0.0,0.0,0.0,0.0,0.0,0.0,0.0,0.0,0.0,0.0,0.0,0.0,0.0,0.0,0.0,0.0,0.0,0.0,0.0,0.0,0.0,0.0,0.0,0.0,0.0,0.0,0.0,0.0,0.0,0.0,0.0,0.0,0.0,0.0,0.0,0.0,0.0,0.0,0.0,0.0,0.0,0.0,0.0,0.0,0.0,0.0,0.0,0.0,0.0,0.0,0.0,0.0,0.0,0.0,0.0,0.0,0.0,0.0,0.0,0.0,0.0,0.0,0.0,0.0,0.0,0.0,0.0,0.0,0.0,0.0,0.0,0.0,0.0,0.0,0.0,0.0,0.0,0.0,0.0,0.0,0.0,0.0,0.0,0.0,0.0,0.0,0.0,0.0,0.0,0.0,0.0,0.0,0.0,0.0,0.0,0.0,0.0,0.0,0.0,0.0,0.0,0.0,0.0,0.0,0.0,0.0,0.0,0.0,0.0,0.0,0.0,0.0,0.0,0.0,0.0,0.0,0.0,0.0,0.0,0.0,0.0,0.0,0.0,0.0,0.0,0.0,0.0,0.0,0.0,0.0,0.0,0.0,0.0,0.0,0.0,0.0,0.0,0.0,0.0,0.0,0.0,0.0,0.0,0.0,0.0,0.0,0.0,0.0,0.0,0.0,0.0,0.0,0.0,0.0,0.0,0.0,0.0,0.0,0.0,0.0,0.0,0.0,0.0,0.0,0.0,0.0,0.0,0.0,0.0,0.0,0.0,0.0,0.0,0.0,0.0,0.0,0.0,0.0,0.0,0.0,0.0,0.0,0.0,0.0,0.0,0.0,0.0,0.0,0.0,0.0,0.0,0.0,0.0,0.0,0.0,0.0,0.0,0.0,0.0,0.0,0.0,0.0,0.0,0.0,0.0,0.0,0.0,0.0,0.0,0.0,0.0,0.0,0.0,0.0,0.0,0.0,0.0,0.0,0.0,0.0,0.0,0.0,0.0,0.0,0.0,0.0,0.0,0.0,0.0,0.0,0.0,0.0,0.0,0.0,0.0,0.0,0.0,0.0,0.0,0.0,0.0,0.0,0.0,0.0,0.0,0.0,0.0,0.0,0.0,0.0,0.0,0.0,0.0,0.0,0.0,0.0,0.0,0.0,0.0,0.0,0.0,0.0,0.0,0.0,0.0,0.0,0.0,0.0,0.0,0.0,0.0,0.0,0.0,0.0,0.0,0.0,0.0,0.0,0.0,0.0,0.0,0.0,0.0,0.0,0.0,0.0,0.0,0.0,0.0,0.0,0.0,0.0,0.0,0.0,0.0,0.0,0.0,0.0,0.0,0.0,0.0,0.0,0.0,0.0,0.0,0.0,0.0,0.0,0.0,0.0,0.0,0.0,0.0,0.0,0.0,0.0,0.0,0.0,0.0,0.0,0.0,0.0,0.0,0.0,0.0,0.0,0.0,0.0,0.0,0.0,0.0,0.0,0.0,0.0,0.0,0.0,0.0,0.0,0.0,0.0,0.0,0.0,0.0,0.0,0.0,0.0,0.0,0.0,0.0,0.0,0.0,0.0,0.0,0.0,0.0,0.0,0.0,0.0,0.0,0.0,0.0,0.0,0.0,0.0,0.0,0.0,0.0,0.0,0.0,0.0,0.0,0.0,0.0,0.0,0.0,0.0,0.0,0.0,0.0,0.0,0.0,0.0,0.0,0.0,0.0,0.0,0.0,0.0,0.0,0.0,0.0,0.0,0.0,0.0,0.0,0.0,0.0,0.0,0.0,0.0,0.0,0.0,0.0,0.0,0.0,0.0,0.0,0.0,0.0,0.0,0.0,0.0,0.0,0.0,0.0,0.0,0.0,0.0,0.0,0.0,0.0,0.0,0.0,0.0,0.0,0.0,0.0,0.0,0.0,0.0,0.0,0.0,0.0,0.0,0.0,0.0,0.0,0.0,0.0,0.0,0.0,0.0,0.0,0.0,0.0,0.0,0.0,0.0,0.0,0.0,0.0,0.0,0.0,0.0,0.0,0.0,0.0,0.0,0.0,0.0,0.0,0.0,0.0,0.0,0.0,0.0,0.0,0.0,0.0,0.0,0.0,0.0,0.0,0.0,0.0,0.0,0.0,0.0,0.0,0.0,0.0,0.0,0.0,0.0,0.0,0.0,0.0,0.0,0.0,0.0,0.0,0.0,0.0,0.0,0.0,0.0,0.0,0.0,0.0,0.0,0.0,0.0,0.0,0.0,0.0,0.0,0.0,0.0,0.0,0.0,0.0,0.0,0.0,0.0,0.0,0.0,0.0,0.0,0.0,0.0,0.0,0.0,0.0,0.0,0.0,0.0,0.0,0.0,0.0,0.0,0.0,0.0,0.0,0.0,0.0,0.0,0.0,0.0,0.0,0.0,0.0,0.0,0.0,0.0,0.0,0.0,0.0,0.0,0.0,0.0,0.0,0.0,0.0,0.0,0.0,0.0,0.0,0.0,0.0,0.0,0.0,0.0,0.0,0.0,0.0,0.0,0.0,0.0,0.0,0.0,0.0,0.0,0.0,0.0,0.0,0.0,0.0,0.0,0.0,0.0,0.0,0.0,0.0,0.0,0.0,0.0,0.0,0.0,0.0,0.0,0.0,0.0,0.0,0.0,0.0,0.0,0.0,0.0,0.0,0.0,0.0,0.0,0.0,0.0,0.0,0.0,0.0,0.0,0.0,0.0,0.0,0.0,0.0,0.0,0.0,0.0,0.0,0.0,0.0,0.0,0.0,0.0,0.0,0.0,0.0,0.0,0.0,0.0,0.0,0.0,0.0,0.0,0.0,0.0,0.0,0.0,0.0,0.0,0.0,0.0,0.0,0.0,0.0,0.0,0.0,0.0,0.0,0.0,0.0,0.0,0.0,0.0,0.0,0.0,0.0,0.0,0.0,0.0,0.0,0.0,0.0,0.0,0.0,0.0,0.0,0.0,0.0,0.0,0.0,0.0,0.0,0.0,0.0,0.0,0.0,0.0,0.0,0.0,0.0,0.0,0.0,0.0,0.0,0.0,0.0,0.0,0.0,0.0,0.0,0.0,0.0,0.0,0.0,0.0,0.0,0.0,0.0,0.0,0.0,0.0,0.0,0.0,0.0,0.0,0.0,0.0,0.0,0.0,0.0,0.0,0.0,0.0,0.0,0.0,0.0,0.0,0.0,0.0,0.0,0.0,0.0,0.0,0.0,0.0,0.0,0.0,0.0,0.0,0.0,0.0,0.0,0.0,0.0,0.0,0.0,0.0,0.0,0.0,0.0,0.0,0.0,0.0,0.0,0.0,0.0,0.0,0.0,0.0,0.0,0.0,0.0,0.0,0.0,0.0,0.0,0.0,0.0,0.0,0.0,0.0,0.0,0.0,0.0,0.0,0.0,0.0,0.0,0.0,0.0,0.0,0.0,0.0,0.0,0.0,0.0,0.0,0.0,0.0,0.0,2.8396,0.0,0.0,0.0,0.0,0.0,0.0,0.0,0.0,0.0,0.0,0.0,0.0,0.0,0.0,0.0,0.0,0.0,0.0,0.0,0.0,0.0,0.0,0.0,0.0,0.0,0.0,0.0,0.0,0.0,0.0,0.0,0.0,0.0,0.0,0.0,0.0,0.0,0.0,0.0,0.0,0.0,0.0,0.0,0.0,0.0,0.0,0.0,0.0,0.0,0.0,0.0,0.0,0.0,0.0,0.0,0.0,0.0,0.0,0.0,0.0,0.0,0.0,0.0,0.0,0.0,0.0,0.0,0.0,0.0,0.0,0.0,0.0,0.0,0.0,0.0,0.0,0.0,0.0,0.0,0.0,0.0,0.0,0.0,0.0,0.0,0.0,0.0,0.0,0.0,0.0,0.0,0.0,0.0,0.0,0.0,0.0,0.0,0.0,0.0,0.0,0.0,0.0,0.0,0.0,0.0,0.0,0.0,0.0,0.0,0.0,2.9809,2.9776,2.9771,2.9394,2.8556,0.0,0.0,0.0,0.0,0.0,0.0,0.0,0.0,0.0,0.0,0.0,0.0,0.0,0.0,0.0,0.0,0.0,0.0,0.0,0.0,0.0,0.0,0.0,0.0,0.0,0.0,0.0,0.0,0.0,0.0,0.0,0.0,0.0,0.0,0.0,0.0,0.0,0.0,0.0,0.0,0.0,0.0,0.0,0.0,0.0,0.0,0.0,0.0,0.0,0.0,0.0,0.0,0.0,0.0,0.0,0.0,0.0,0.0,0.0,0.0,0.0,0.0,0.0,0.0,0.0,0.0,0.0,0.0,0.0,0.0,0.0,0.0,0.0,0.0,0.0,0.0,0.0,0.0,0.0,0.0,0.0,0.0,0.0,0.0,0.0,0.0,0.0,0.0,0.0,0.0,0.0,0.0,0.0,0.0,0.0,0.0,0.0,0.0,0.0,0.0,0.0,0.0,0.0,0.0,0.0,0.0,0.0,0.0,0.0,0.0,0.0,0.0,2.9655,2.9251,2.8399,0.0,0.0,0.0,0.0,0.0,0.0,0.0,0.0,0.0,0.0,0.0,0.0,0.0,0.0,0.0,0.0,0.0,0.0,0.0,0.0,0.0,0.0,0.0,0.0,0.0,0.0,0.0,0.0,0.0,0.0,0.0,0.0,0.0,0.0,0.0,0.0,0.0,0.0,0.0,0.0,0.0,0.0,0.0,0.0,0.0,0.0,0.0,0.0,0.0,0.0,0.0,0.0,0.0,0.0,0.0,0.0,0.0,0.0,0.0,0.0,0.0,0.0,0.0,0.0,0.0,0.0,0.0,0.0,0.0,0.0,0.0,0.0,0.0,0.0,0.0,0.0,0.0,0.0,0.0,0.0,0.0,0.0,0.0,0.0,0.0,0.0,0.0,0.0,0.0,0.0,0.0,0.0,0.0,0.0,0.0,0.0,0.0,0.0,0.0,0.0,0.0,0.0,0.0,0.0,0.0,0.0,0.0,0.0,0.0,0.0,2.9512,2.9512,2.9512,0.0,2.8376,0.0,0.0,0.0,0.0,0.0,0.0,0.0,0.0,0.0,0.0,0.0,0.0,0.0,0.0,0.0,0.0,0.0,0.0,0.0,0.0,0.0,0.0,0.0,0.0,0.0,0.0,0.0,0.0,0.0,0.0,0.0,0.0,0.0,0.0,0.0,0.0,0.0,0.0,0.0,0.0,0.0,0.0,0.0,0.0,0.0,0.0,0.0,0.0,0.0,0.0,0.0,0.0,0.0,0.0,0.0,0.0,0.0,0.0,0.0,0.0,0.0,0.0,0.0,0.0,0.0,0.0,0.0,0.0,0.0,0.0,0.0,0.0,0.0,0.0,0.0,0.0,0.0,0.0,0.0,0.0,0.0,0.0,0.0,0.0,0.0,0.0,0.0,0.0,0.0,0.0,0.0,0.0,0.0,0.0,0.0,0.0,0.0,0.0,0.0,0.0,0.0,0.0,0.0,0.0,0.0,0.0,0.0,0.0,0.0,0.0,2.9328,2.931,2.9315,2.918,0.0,0.0,0.0,0.0,0.0,0.0,0.0,0.0,0.0,0.0,0.0,0.0,0.0,0.0,0.0,0.0,0.0,0.0,0.0,0.0,0.0,0.0,0.0,0.0,0.0,0.0,0.0,0.0,0.0,0.0,0.0,0.0,0.0,0.0,0.0,0.0,0.0,0.0,0.0,0.0,0.0,0.0,0.0,0.0,0.0,0.0,0.0,0.0,0.0,0.0,0.0,0.0,0.0,0.0,0.0,0.0,0.0,0.0,0.0,0.0,0.0,0.0,0.0,0.0,0.0,0.0,0.0,0.0,0.0,0.0,0.0,0.0,0.0,0.0,0.0,0.0,0.0,0.0,0.0,0.0,0.0,0.0,0.0,0.0,0.0,0.0,0.0,0.0,0.0,0.0,0.0,0.0,0.0,0.0,0.0,0.0,0.0,0.0,0.0,0.0,0.0,0.0,0.0,0.0,0.0,0.0,0.0,0.0,0.0,0.0,2.9213,2.9213,2.9213,2.9213,2.9213,2.9213,0.0,0.0,0.0,0.0,0.0,0.0,0.0,0.0,0.0,0.0,0.0,0.0,0.0,0.0,0.0,0.0,0.0,0.0,0.0,0.0,0.0,0.0,0.0,0.0,0.0,0.0,0.0,0.0,0.0,0.0,0.0,0.0,0.0,0.0,0.0,0.0,0.0,0.0,0.0,0.0,0.0,0.0,0.0,0.0,0.0,0.0,0.0,0.0,0.0,0.0,0.0,0.0,0.0,0.0,0.0,0.0,0.0,0.0,0.0,0.0,0.0,0.0,0.0,0.0,0.0,0.0,0.0,0.0,0.0,0.0,0.0,0.0,0.0,0.0,0.0,0.0,0.0,0.0,0.0,0.0,0.0,0.0,0.0,0.0,0.0,0.0,0.0,0.0,0.0,0.0,0.0,0.0,0.0,0.0,0.0,0.0,0.0,0.0,0.0,0.0,0.0,0.0,0.0,0.0,0.0,0.0,0.0,0.0,2.9213,2.9213,2.9213,2.9226,2.9207,2.9213,0.0,0.0,0.0,0.0,0.0,0.0,0.0,0.0,0.0,0.0,0.0,0.0,0.0,0.0,0.0,0.0,0.0,0.0,0.0,0.0,0.0,0.0,0.0,0.0,0.0,0.0,0.0,0.0,0.0,0.0,0.0,0.0,0.0,0.0,0.0,0.0,0.0,0.0,0.0,0.0,0.0,0.0,0.0,0.0,0.0,0.0,0.0,0.0,0.0,0.0,0.0,0.0,0.0,0.0,0.0,0.0,0.0,0.0,0.0,0.0,0.0,0.0,0.0,0.0,0.0,0.0,0.0,0.0,0.0,0.0,0.0,0.0,0.0,0.0,0.0,0.0,0.0,0.0,0.0,0.0,0.0,0.0,0.0,0.0,0.0,0.0,0.0,0.0,0.0,0.0,0.0,0.0,0.0,0.0,0.0,0.0,0.0,0.0,0.0,0.0,0.0,0.0,0.0,0.0,0.0,0.0,0.0,0.0,0.0,2.9079,2.9055,2.9319,2.9803,2.9337,2.9079,0.0,0.0,0.0,0.0,0.0,0.0,0.0,0.0,0.0,0.0,0.0,0.0,0.0,0.0,0.0,0.0,0.0,0.0,0.0,0.0,0.0,0.0,0.0,0.0,0.0,0.0,0.0,0.0,0.0,0.0,0.0,0.0,0.0,0.0,0.0,0.0,0.0,0.0,0.0,0.0,0.0,0.0,0.0,0.0,0.0,0.0,0.0,0.0,0.0,0.0,0.0,0.0,0.0,0.0,0.0,0.0,0.0,0.0,0.0,0.0,0.0,0.0,0.0,0.0,0.0,0.0,0.0,0.0,0.0,0.0,0.0,0.0,0.0,0.0,0.0,0.0,0.0,0.0,0.0,0.0,0.0,0.0,0.0,0.0,0.0,0.0,0.0,0.0,0.0,0.0,0.0,0.0,0.0,0.0,0.0,0.0,0.0,0.0,0.0,0.0,0.0,0.0,0.0,0.0,0.0,0.0,0.0,0.0,0.0,2.9372,0.0,2.991,3.0173,2.9671,2.9274,0.0,0.0,0.0,0.0,0.0,0.0,0.0,0.0,0.0,0.0,0.0,0.0,0.0,0.0,0.0,0.0,0.0,0.0,0.0,0.0,0.0,0.0,0.0,0.0,0.0,0.0,0.0,0.0,0.0,0.0,0.0,0.0,0.0,0.0,0.0,0.0,0.0,0.0,0.0,0.0,0.0,0.0,0.0,0.0,0.0,0.0,0.0,0.0,0.0,0.0,0.0,0.0,0.0,0.0,0.0,0.0,0.0,0.0,0.0,0.0,0.0,0.0,0.0,0.0,0.0,0.0,0.0,0.0,0.0,0.0,0.0,0.0,0.0,0.0,0.0,0.0,0.0,0.0,0.0,0.0,0.0,0.0,0.0,0.0,0.0,0.0,0.0,0.0,0.0,0.0,0.0,0.0,0.0,0.0,0.0,0.0,0.0,0.0,0.0,0.0,0.0,0.0,0.0,0.0,0.0,0.0,0.0,0.0,2.9427,3.021,3.0931,3.0944,3.0283,3.0204,2.98,0.0,0.0,0.0,0.0,0.0,0.0,0.0,0.0,0.0,0.0,0.0,0.0,0.0,0.0,0.0,0.0,0.0,0.0,0.0,0.0,0.0,0.0,0.0,0.0,0.0,0.0,0.0,0.0,0.0,0.0,0.0,0.0,0.0,0.0,0.0,0.0,0.0,0.0,0.0,0.0,0.0,0.0,0.0,0.0,0.0,0.0,0.0,0.0,0.0,0.0,0.0,0.0,0.0,0.0,0.0,0.0,0.0,0.0,0.0,0.0,0.0,0.0,0.0,0.0,0.0,0.0,0.0,0.0,0.0,0.0,0.0,0.0,0.0,0.0,0.0,0.0,0.0,0.0,0.0,0.0,0.0,0.0,0.0,0.0,0.0,0.0,0.0,0.0,0.0,0.0,0.0,0.0,0.0,0.0,0.0,0.0,0.0,0.0,0.0,0.0,0.0,0.0,0.0,0.0,0.0,0.0,0.0,0.0,0.0,3.1017,3.0723,3.0993,3.1763,3.0772,3.0075,0.0,0.0,0.0,0.0,0.0,0.0,0.0,0.0,0.0,0.0,0.0,0.0,0.0,0.0,0.0,0.0,0.0,0.0,0.0,0.0,0.0,0.0,0.0,0.0,0.0,0.0,0.0,0.0,0.0,0.0,0.0,0.0,0.0,0.0,0.0,0.0,0.0,0.0,0.0,0.0,0.0,0.0,0.0,0.0,0.0,0.0,0.0,0.0,0.0,0.0,0.0,0.0,0.0,0.0,0.0,0.0,0.0,0.0,0.0,0.0,0.0,0.0,0.0,0.0,0.0,0.0,0.0,0.0,0.0,0.0,0.0,0.0,0.0,0.0,0.0,0.0,0.0,0.0,0.0,0.0,0.0,0.0,0.0,0.0,0.0,0.0,0.0,0.0,0.0,0.0,0.0,0.0,0.0,0.0,0.0,0.0,0.0,0.0,0.0,0.0,0.0,0.0,0.0,0.0,0.0,0.0,0.0,0.0,0.0,3.2253,3.1813,3.1873,3.2583,3.161,3.0809,3.0222,0.0,0.0,0.0,0.0,0.0,0.0,0.0,0.0,0.0,0.0,0.0,0.0,0.0,0.0,0.0,0.0,0.0,0.0,0.0,0.0,0.0,0.0,0.0,0.0,0.0,0.0,0.0,0.0,0.0,0.0,0.0,0.0,0.0,0.0,0.0,0.0,0.0,0.0,0.0,0.0,0.0,0.0,0.0,0.0,0.0,0.0,0.0,0.0,0.0,0.0,0.0,0.0,0.0,0.0,0.0,0.0,0.0,0.0,0.0,0.0,0.0,0.0,0.0,0.0,0.0,0.0,0.0,0.0,0.0,0.0,0.0,0.0,0.0,0.0,0.0,0.0,0.0,0.0,0.0,0.0,0.0,0.0,0.0,0.0,0.0,0.0,0.0,0.0,0.0,0.0,0.0,0.0,0.0,0.0,0.0,0.0,0.0,0.0,0.0,0.0,0.0,0.0,0.0,0.0,0.0,0.0,0.0,0.0,3.3715,3.3825,3.3495,3.2791,3.2644,3.1885,0.0,0.0,0.0,0.0,0.0,0.0,0.0,0.0,0.0,0.0,0.0,0.0,0.0,0.0,0.0,0.0,0.0,0.0,0.0,0.0,0.0,0.0,0.0,0.0,0.0,0.0,0.0,0.0,0.0,0.0,0.0,0.0,0.0,0.0,0.0,0.0,0.0,0.0,0.0,0.0,0.0,0.0,0.0,0.0,0.0,0.0,0.0,0.0,0.0,0.0,0.0,0.0,0.0,0.0,0.0,0.0,0.0,0.0,0.0,0.0,0.0,0.0,0.0,0.0,0.0,0.0,0.0,0.0,0.0,0.0,0.0,0.0,0.0,0.0,0.0,0.0,0.0,0.0,0.0,0.0,0.0,0.0,0.0,0.0,0.0,0.0,0.0,0.0,0.0,0.0,0.0,0.0,0.0,0.0,0.0,0.0,0.0,0.0,0.0,0.0,0.0,0.0,0.0,0.0,0.0,0.0,0.0,0.0,0.0,3.2956,3.4069,3.4575,3.4362,3.3225,3.2373,0.0,0.0,0.0,0.0,0.0,0.0,0.0,0.0,0.0,0.0,0.0,0.0,0.0,0.0,0.0,0.0,0.0,0.0,0.0,0.0,0.0,0.0,0.0,0.0,0.0,0.0,0.0,0.0,0.0,0.0,0.0,0.0,0.0,0.0,0.0,0.0,0.0,0.0,0.0,0.0,0.0,0.0,0.0,0.0,0.0,0.0,0.0,0.0,0.0,0.0,0.0,0.0,0.0,0.0,0.0,0.0,0.0,0.0,0.0,0.0,0.0,0.0,0.0,0.0,0.0,0.0,0.0,0.0,0.0,0.0,0.0,0.0,0.0,0.0,0.0,0.0,0.0,0.0,0.0,0.0,0.0,0.0,0.0,0.0,0.0,0.0,0.0,0.0,0.0,0.0,0.0,0.0,0.0,0.0,0.0,0.0,0.0,0.0,0.0,0.0,0.0,0.0,0.0,0.0,0.0,0.0,0.0,0.0,3.4277,3.4174,3.5066,3.5701,3.6039,3.4122,3.3037,0.0,0.0,0.0,0.0,0.0,0.0,0.0,0.0,0.0,0.0,0.0,0.0,0.0,0.0,0.0,0.0,0.0,0.0,0.0,0.0,0.0,0.0,0.0,0.0,0.0,0.0,0.0,0.0,0.0,0.0,0.0,0.0,0.0,0.0,0.0,0.0,0.0,0.0,0.0,0.0,0.0,0.0,0.0,0.0,0.0,0.0,0.0,0.0,0.0,0.0,0.0,0.0,0.0,0.0,0.0,0.0,0.0,0.0,0.0,0.0,0.0,0.0,0.0,0.0,0.0,0.0,0.0,0.0,0.0,0.0,0.0,0.0,0.0,0.0,0.0,0.0,0.0,0.0,0.0,0.0,0.0,0.0,0.0,0.0,0.0,0.0,0.0,0.0,0.0,0.0,0.0,0.0,0.0,0.0,0.0,0.0,0.0,0.0,0.0,0.0,0.0,0.0,0.0,0.0,0.0,0.0,0.0,0.0,3.547,3.6138,3.642,3.6861,3.7401,3.512,3.3826,0.0,0.0,0.0,0.0,0.0,0.0,0.0,0.0,0.0,0.0,0.0,0.0,0.0,0.0,0.0,0.0,0.0,0.0,0.0,0.0,0.0,0.0,0.0,0.0,0.0,0.0,0.0,0.0,0.0,0.0,0.0,0.0,0.0,0.0,0.0,0.0,0.0,0.0,0.0,0.0,0.0,0.0,0.0,0.0,0.0,0.0,0.0,0.0,0.0,0.0,0.0,0.0,0.0,0.0,0.0,0.0,0.0,0.0,0.0,0.0,0.0,0.0,0.0,0.0,0.0,0.0,0.0,0.0,0.0,0.0,0.0,0.0,0.0,0.0,0.0,0.0,0.0,0.0,0.0,0.0,0.0,0.0,0.0,0.0,0.0,0.0,0.0,0.0,0.0,0.0,0.0,0.0,0.0,0.0,0.0,0.0,0.0,0.0,0.0,0.0,0.0,0.0,0.0,0.0,0.0,0.0,0.0,0.0,3.5789,3.5316,3.7195,3.7955,3.7485,3.5694,3.4671,0.0,0.0,0.0,0.0,0.0,0.0,0.0,0.0,0.0,0.0,0.0,0.0,0.0,0.0,0.0,0.0,0.0,0.0,0.0,0.0,0.0,0.0,0.0,0.0,0.0,0.0,0.0,0.0,0.0,0.0,0.0,0.0,0.0,0.0,0.0,0.0,0.0,0.0,0.0,0.0,0.0,0.0,0.0,0.0,0.0,0.0,0.0,0.0,3.3807,0.0,0.0,0.0,0.0,0.0,0.0,0.0,0.0,0.0,0.0,0.0,0.0,0.0,0.0,0.0,0.0,0.0,0.0,0.0,0.0,0.0,0.0,0.0,0.0,0.0,0.0,0.0,0.0,0.0,0.0,0.0,0.0,0.0,0.0,0.0,0.0,0.0,0.0,0.0,0.0,0.0,0.0,0.0,0.0,0.0,0.0,0.0,0.0,0.0,0.0,0.0,0.0,0.0,0.0,0.0,0.0,0.0,0.0,0.0,3.5463,3.5078,3.7074,3.7925,3.7492,3.6633,3.5941,0.0,0.0,0.0,0.0,0.0,0.0,0.0,0.0,0.0,0.0,0.0,0.0,0.0,0.0,0.0,0.0,0.0,0.0,0.0,0.0,0.0,0.0,0.0,0.0,0.0,0.0,0.0,0.0,0.0,0.0,0.0,0.0,0.0,0.0,0.0,0.0,0.0,0.0,0.0,0.0,0.0,0.0,0.0,0.0,0.0,0.0,0.0,0.0,0.0,0.0,0.0,0.0,0.0,0.0,0.0,0.0,0.0,0.0,0.0,0.0,0.0,0.0,0.0,0.0,0.0,0.0,0.0,0.0,0.0,0.0,0.0,0.0,0.0,0.0,0.0,0.0,0.0,0.0,0.0,0.0,0.0,0.0,0.0,0.0,0.0,0.0,0.0,0.0,0.0,0.0,0.0,0.0,0.0,0.0,0.0,0.0,0.0,0.0,0.0,0.0,0.0,0.0,0.0,0.0,0.0,0.0,0.0,3.4614,3.5085,3.5261,3.6835,3.7694,3.7676,3.7804,3.7327,3.6164,0.0,0.0,0.0,0.0,0.0,0.0,0.0,0.0,0.0,0.0,0.0,0.0,0.0,0.0,0.0,0.0,0.0,0.0,0.0,0.0,0.0,0.0,0.0,0.0,0.0,0.0,0.0,0.0,0.0,0.0,0.0,0.0,0.0,0.0,0.0,0.0,0.0,0.0,3.4181,3.4192,0.0,0.0,0.0,0.0,0.0,0.0,0.0,0.0,3.3984,0.0,0.0,0.0,0.0,0.0,0.0,0.0,0.0,0.0,0.0,0.0,0.0,0.0,0.0,0.0,0.0,0.0,0.0,0.0,0.0,0.0,0.0,0.0,0.0,0.0,0.0,0.0,0.0,0.0,0.0,0.0,0.0,0.0,0.0,0.0,0.0,0.0,0.0,0.0,0.0,0.0,0.0,0.0,0.0,0.0,0.0,0.0,0.0,0.0,0.0,0.0,0.0,0.0,0.0,0.0,0.0,3.3881,3.4733,3.5478,3.6101,3.7661,3.8505,3.8524,3.9148,3.8487,3.638,0.0,0.0,0.0,0.0,0.0,0.0,0.0,0.0,0.0,0.0,0.0,0.0,0.0,0.0,0.0,0.0,0.0,0.0,0.0,0.0,0.0,0.0,0.0,0.0,0.0,0.0,0.0,0.0,0.0,0.0,0.0,0.0,0.0,0.0,0.0,0.0,0.0,0.0,0.0,3.5899,3.5888,0.0,0.0,0.0,0.0,0.0,0.0,0.0,0.0,3.5059,0.0,0.0,0.0,0.0,0.0,0.0,0.0,0.0,0.0,0.0,0.0,0.0,0.0,0.0,0.0,0.0,0.0,0.0,0.0,0.0,0.0,0.0,0.0,0.0,0.0,0.0,0.0,0.0,0.0,0.0,0.0,0.0,0.0,0.0,0.0,0.0,0.0,0.0,0.0,0.0,0.0,0.0,0.0,0.0,0.0,0.0,0.0,0.0,0.0,0.0,0.0,0.0,0.0,0.0,0.0,3.4006,3.5267,3.5887,3.5679,3.7239,3.8072,3.8091,3.8854,3.8348,0.0,0.0,0.0,0.0,0.0,0.0,0.0,0.0,0.0,0.0,0.0,0.0,0.0,0.0,0.0,0.0,0.0,0.0,0.0,0.0,0.0,0.0,0.0,0.0,0.0,0.0,0.0,0.0,0.0,0.0,0.0,0.0,0.0,0.0,0.0,0.0,0.0,0.0,0.0,0.0,3.6285,3.6285,3.6285,0.0,0.0,0.0,0.0,0.0,0.0,3.5672,3.5819,0.0,0.0,0.0,0.0,0.0,0.0,0.0,0.0,0.0,0.0,0.0,0.0,0.0,0.0,0.0,0.0,0.0,0.0,0.0,0.0,0.0,0.0,0.0,0.0,0.0,0.0,0.0,0.0,0.0,0.0,0.0,0.0,0.0,0.0,0.0,0.0,0.0,0.0,0.0,0.0,0.0,0.0,0.0,0.0,0.0,0.0,0.0,0.0,0.0,0.0,0.0,0.0,0.0,0.0,0.0,3.4797,3.6195,3.6574,3.5844,3.7221,3.7896,3.7786,3.8531,3.8175,0.0,0.0,0.0,0.0,0.0,0.0,0.0,0.0,0.0,0.0,0.0,0.0,0.0,0.0,0.0,0.0,0.0,0.0,0.0,0.0,0.0,0.0,0.0,0.0,0.0,0.0,0.0,0.0,0.0,0.0,0.0,0.0,0.0,0.0,0.0,0.0,0.0,0.0,0.0,0.0,0.0,3.6964,3.6824,3.678,0.0,0.0,0.0,0.0,3.6549,3.6806,0.0,0.0,0.0,0.0,0.0,0.0,0.0,0.0,0.0,0.0,0.0,0.0,0.0,0.0,0.0,0.0,0.0,0.0,0.0,0.0,0.0,0.0,0.0,0.0,0.0,0.0,0.0,0.0,0.0,0.0,0.0,0.0,0.0,0.0,0.0,0.0,0.0,0.0,0.0,0.0,0.0,0.0,0.0,0.0,0.0,0.0,0.0,0.0,0.0,0.0,0.0,0.0,0.0,0.0,0.0,0.0,3.7397,3.7699,3.7979,3.83,3.9166,3.9276,3.8597,3.935,3.9009,0.0,0.0,0.0,0.0,0.0,0.0,0.0,0.0,0.0,0.0,0.0,0.0,0.0,0.0,0.0,0.0,0.0,0.0,0.0,0.0,0.0,0.0,0.0,0.0,0.0,0.0,0.0,0.0,0.0,0.0,0.0,0.0,0.0,0.0,0.0,0.0,0.0,0.0,0.0,0.0,0.0,3.9229,3.8516,3.8414,3.8175,0.0,0.0,3.7364,3.7364,3.855,0.0,0.0,0.0,0.0,0.0,0.0,0.0,0.0,0.0,0.0,0.0,0.0,0.0,0.0,0.0,0.0,0.0,0.0,0.0,0.0,0.0,0.0,0.0,0.0,0.0,0.0,0.0,0.0,0.0,0.0,0.0,0.0,0.0,0.0,0.0,0.0,0.0,0.0,0.0,0.0,0.0,0.0,0.0,0.0,0.0,0.0,0.0,0.0,0.0,0.0,0.0,0.0,0.0,0.0,0.0,3.7734,3.8202,3.9231,3.9796,3.9906,4.0489,4.0422,3.9645,3.9846,3.9199,0.0,0.0,0.0,0.0,0.0,0.0,0.0,0.0,0.0,0.0,0.0,0.0,0.0,0.0,0.0,0.0,0.0,0.0,0.0,0.0,0.0,0.0,0.0,0.0,0.0,0.0,0.0,0.0,0.0,0.0,0.0,0.0,0.0,0.0,0.0,0.0,0.0,0.0,0.0,0.0,0.0,0.0,3.8744,3.8699,0.0,0.0,0.0,3.8851,3.8869,0.0,0.0,0.0,0.0,0.0,0.0,0.0,0.0,0.0,0.0,0.0,0.0,0.0,0.0,0.0,0.0,0.0,0.0,0.0,0.0,0.0,0.0,0.0,0.0,0.0,0.0,0.0,0.0,0.0,0.0,0.0,0.0,0.0,0.0,0.0,0.0,0.0,0.0,0.0,0.0,0.0,0.0,0.0,0.0,0.0,0.0,0.0,0.0,0.0,0.0,0.0,0.0,0.0,0.0,0.0,0.0,0.0,3.9071,4.0399,4.1002,4.0798,4.1511,4.1329,4.0144,4.0351,0.0,0.0,0.0,0.0,0.0,0.0,0.0,0.0,0.0,0.0,0.0,0.0,0.0,0.0,0.0,0.0,0.0,0.0,0.0,0.0,0.0,0.0,0.0,0.0,0.0,0.0,0.0,3.5606,0.0,0.0,0.0,0.0,0.0,0.0,0.0,0.0,0.0,0.0,0.0,0.0,0.0,0.0,3.9311,3.905,3.9355,3.9557,0.0,0.0,4.0226,4.0202,4.0367,4.0367,0.0,0.0,0.0,0.0,0.0,0.0,0.0,0.0,0.0,0.0,0.0,0.0,0.0,0.0,0.0,0.0,0.0,0.0,0.0,0.0,0.0,0.0,0.0,0.0,0.0,0.0,0.0,0.0,0.0,0.0,0.0,0.0,0.0,0.0,0.0,0.0,0.0,0.0,0.0,0.0,0.0,0.0,0.0,0.0,0.0,0.0,0.0,0.0,0.0,0.0,0.0,0.0,0.0,0.0,3.9519,4.0788,4.1005,4.0999,4.0766,4.2208,4.1915,3.9683,4.0984,4.0916,0.0,0.0,0.0,0.0,0.0,0.0,0.0,0.0,0.0,0.0,0.0,0.0,0.0,0.0,0.0,0.0,0.0,0.0,0.0,0.0,0.0,0.0,0.0,0.0,0.0,0.0,0.0,0.0,0.0,0.0,0.0,0.0,0.0,0.0,0.0,0.0,0.0,0.0,0.0,0.0,0.0,4.0772,4.0021,4.1196,4.1871,0.0,4.1048,4.1109,4.1028,4.1644,4.165,4.0215,0.0,0.0,0.0,0.0,0.0,0.0,0.0,0.0,0.0,0.0,0.0,0.0,0.0,0.0,0.0,0.0,0.0,0.0,0.0,0.0,0.0,0.0,0.0,0.0,0.0,0.0,0.0,0.0,0.0,0.0,0.0,0.0,0.0,0.0,0.0,0.0,0.0,0.0,0.0,0.0,0.0,0.0,0.0,0.0,0.0,0.0,0.0,0.0,0.0,0.0,0.0,0.0,0.0,4.0724,4.1315,4.1869,4.2104,4.2017,4.2387,4.1931,4.0525,4.0973,4.0647,0.0,0.0,0.0,0.0,0.0,0.0,0.0,0.0,0.0,0.0,0.0,0.0,0.0,0.0,0.0,0.0,0.0,0.0,0.0,0.0,0.0,0.0,0.0,0.0,0.0,0.0,0.0,0.0,3.7302,3.7396,3.8187,0.0,0.0,0.0,0.0,0.0,0.0,0.0,0.0,0.0,0.0,4.177,4.1941,4.2508,0.0,0.0,4.2409,4.2384,4.2288,4.2072,4.1704,4.1032,4.028,0.0,0.0,0.0,0.0,0.0,0.0,0.0,0.0,0.0,0.0,0.0,0.0,0.0,0.0,0.0,0.0,0.0,0.0,0.0,0.0,0.0,0.0,0.0,0.0,0.0,0.0,0.0,0.0,0.0,0.0,0.0,0.0,0.0,0.0,0.0,0.0,0.0,0.0,0.0,0.0,0.0,0.0,0.0,0.0,0.0,0.0,0.0,0.0,0.0,0.0,0.0,0.0,4.1346,4.1151,4.224,4.2545,4.2044,4.2297,4.1925,4.0924,4.0969,4.0576,0.0,0.0,0.0,0.0,0.0,0.0,0.0,0.0,0.0,0.0,0.0,0.0,0.0,0.0,0.0,0.0,0.0,0.0,0.0,0.0,0.0,0.0,0.0,0.0,0.0,0.0,0.0,0.0,3.8565,3.8656,3.9228,0.0,0.0,0.0,0.0,0.0,0.0,0.0,0.0,0.0,0.0,4.2684,4.3482,4.3595,4.3588,4.3555,4.3373,4.3263,4.3367,4.2667,4.2099,4.202,0.0,0.0,0.0,0.0,0.0,0.0,0.0,0.0,0.0,0.0,0.0,0.0,0.0,0.0,0.0,0.0,0.0,0.0,0.0,0.0,0.0,0.0,0.0,0.0,0.0,0.0,0.0,4.2737,0.0,0.0,4.2722,0.0,0.0,0.0,0.0,0.0,0.0,0.0,0.0,0.0,0.0,0.0,0.0,0.0,0.0,0.0,0.0,0.0,0.0,0.0,0.0,0.0,0.0,4.117,4.042,4.2025,4.2049,4.0549,4.1963,4.2015,4.0482,4.1103,4.1011,4.0067,0.0,0.0,0.0,0.0,0.0,0.0,0.0,0.0,0.0,0.0,0.0,0.0,0.0,0.0,0.0,0.0,0.0,0.0,0.0,0.0,0.0,0.0,0.0,0.0,0.0,0.0,3.9804,4.064,4.1217,0.0,0.0,0.0,0.0,0.0,0.0,0.0,0.0,0.0,4.3101,4.3314,4.3609,4.4464,4.4519,4.4499,4.4425,4.3783,4.3532,4.4189,4.3599,4.3088,0.0,0.0,0.0,0.0,0.0,0.0,0.0,0.0,0.0,0.0,0.0,0.0,0.0,0.0,0.0,0.0,0.0,0.0,0.0,0.0,0.0,0.0,0.0,0.0,0.0,0.0,0.0,4.279,4.279,0.0,0.0,0.0,0.0,0.0,0.0,0.0,0.0,0.0,0.0,0.0,4.3929,4.3906,0.0,0.0,0.0,0.0,0.0,0.0,0.0,0.0,0.0,0.0,0.0,0.0,4.3013,4.2803,4.3305,4.3324,4.2784,4.2789,4.2545,4.1987,4.2221,4.2166,4.1737,0.0,0.0,0.0,0.0,0.0,0.0,0.0,0.0,0.0,0.0,0.0,0.0,0.0,0.0,0.0,0.0,0.0,0.0,0.0,0.0,0.0,0.0,0.0,0.0,0.0,4.1059,0.0,0.0,0.0,0.0,0.0,0.0,0.0,0.0,0.0,0.0,0.0,4.18,4.3502,4.422,4.4881,4.5745,4.5841,4.6019,0.0,0.0,0.0,0.0,0.0,0.0,0.0,0.0,0.0,0.0,0.0,0.0,0.0,0.0,4.3805,4.2237,4.2026,4.2246,4.2812,0.0,0.0,0.0,0.0,0.0,0.0,0.0,0.0,0.0,0.0,0.0,0.0,0.0,0.0,4.4237,4.4237,4.4218,0.0,0.0,0.0,0.0,0.0,0.0,0.0,0.0,4.5792,4.638,4.6725,4.668,4.6532,4.6259,4.5728,4.5244,0.0,0.0,0.0,0.0,0.0,0.0,0.0,0.0,4.4348,4.407,4.4876,4.5057,4.447,4.4202,4.3959,4.3673,4.3367,4.3064,4.2673,4.2607,4.2297,0.0,0.0,0.0,0.0,0.0,0.0,0.0,0.0,0.0,0.0,0.0,0.0,0.0,0.0,0.0,0.0,0.0,0.0,0.0,0.0,0.0,0.0,0.0,4.2075,0.0,0.0,0.0,0.0,0.0,0.0,0.0,0.0,0.0,4.332,4.2669,4.2947,4.4946,4.5453,4.5979,4.6833,0.0,0.0,0.0,0.0,0.0,0.0,0.0,4.5139,4.5037,4.4502,4.4295,4.4856,4.5406,4.5962,4.6531,0.0,0.0,4.4279,4.397,4.4197,4.4739,4.4859,4.4871,4.4859,4.4625,4.4279,0.0,0.0,0.0,0.0,4.6839,0.0,0.0,0.0,4.7328,4.6958,0.0,4.6838,0.0,0.0,0.0,0.0,4.5728,4.656,0.0,0.0,4.9142,5.0128,5.1046,5.0912,5.0546,4.9914,4.9663,4.9164,4.8243,4.5037,0.0,0.0,0.0,0.0,0.0,0.0,4.5068,4.4446,4.6595,4.7002,4.555,4.6137,4.6156,4.5397,4.4584,4.3801,4.2985,4.2926,4.2824,4.2747,4.269,0.0,0.0,0.0,0.0,0.0,0.0,0.0,0.0,0.0,0.0,0.0,0.0,0.0,0.0,0.0,0.0,0.0,0.0,0.0,0.0,4.2826,0.0,0.0,0.0,0.0,0.0,0.0,0.0,0.0,0.0,4.4443,4.5104,4.4446,4.4873,4.7322,0.0,0.0,0.0,0.0,4.7813,4.7851,4.7813,4.7752,4.7734,4.769,4.7652,4.7646,0.0,0.0,4.7722,4.7706,4.7677,4.7677,4.7788,4.7713,4.7511,4.729,4.729,4.7365,4.7353,4.7416,4.7384,4.6758,4.6253,5.0084,0.0,0.0,0.0,0.0,4.8817,4.9311,5.0062,4.9188,4.8837,4.8759,4.7511,0.0,0.0,0.0,0.0,0.0,0.0,4.9072,4.9456,5.0903,5.1748,5.2033,5.1994,5.1865,5.1598,5.0437,4.9713,4.94,4.7842,4.6655,4.5854,0.0,0.0,0.0,0.0,4.6908,4.7765,4.7904,4.7972,4.8001,4.7627,4.7316,4.7087,4.6858,4.6323,4.5468,4.5414,4.485,4.3685,4.3613,0.0,0.0,0.0,0.0,0.0,0.0,0.0,0.0,0.0,0.0,0.0,0.0,0.0,0.0,0.0,0.0,0.0,0.0,0.0,4.3633,4.4257,4.4651,0.0,0.0,0.0,0.0,0.0,0.0,0.0,0.0,0.0,4.6987,4.5809,4.5619,0.0,0.0,4.7521,4.7775,4.7794,4.8023,4.8626,4.8214,0.0,4.8604,4.8191,4.7766,4.7766,4.8287,4.8694,4.8694,4.9154,4.9529,4.9529,4.9541,4.9529,4.9431,4.846,4.7983,4.8433,4.8624,4.8624,4.8586,4.8408,4.8084,5.3116,5.0789,4.9734,4.9838,5.0654,5.0707,5.1206,5.1953,5.1085,5.0697,5.0655,4.9602,4.8989,4.87,4.8176,0.0,0.0,0.0,5.0969,5.1392,5.279,5.3615,5.3941,5.3964,5.3766,5.3397,5.241,5.1749,5.1402,5.0525,4.9779,4.9099,0.0,4.705,4.7476,4.7804,4.845,4.9349,4.9196,4.9298,4.9717,4.9213,4.8633,4.7994,4.8245,4.782,4.6633,4.6576,4.6116,4.5121,4.482,4.4714,0.0,0.0,0.0,0.0,0.0,0.0,0.0,0.0,0.0,0.0,0.0,4.539,4.5477,0.0,0.0,0.0,4.502,4.4681,4.4643,4.5132,0.0,0.0,0.0,0.0,0.0,0.0,0.0,4.6666,4.713,4.7865,4.887,4.8145,4.7682,4.8236,4.8602,4.8806,4.8787,0.0,4.9977,5.0499,4.9843,4.9475,4.9996,4.9366,4.8787,4.8806,4.9194,4.9557,4.9601,4.9996,5.0277,5.0296,5.0296,5.0296,5.0296,4.9456,4.8926,4.9461,4.9582,4.9582,4.9582,4.9333,4.8932,5.6019,5.5097,5.2662,5.2063,5.2718,5.2783,5.3317,5.4022,5.3125,5.272,5.2698,5.2507,5.196,5.1199,5.128,0.0,5.1257,5.2239,5.3106,5.3847,5.4776,5.5592,5.6275,5.6295,5.5883,5.5106,5.5048,5.4582,5.375,5.2912,5.2504,5.2426,5.0122,4.8839,4.8753,4.9386,4.9761,4.981,5.0469,5.0849,5.0893,5.084,5.0064,4.8578,4.9091,4.863,4.7026,4.693,4.6872,4.6719,4.6136,4.5804,4.5789,0.0,0.0,0.0,0.0,0.0,0.0,0.0,0.0,0.0,0.0,0.0,0.0,0.0,0.0,0.0,4.571,0.0,4.58,4.58,0.0,0.0,0.0,4.7325,4.8125,4.828,4.8327,4.8323,0.0,0.0,5.051,5.0829,5.0528,4.9466,5.0029,5.0539,5.052,5.18,5.2821,5.2571,5.2132,5.1667,5.1314,5.0702,5.0199,5.017,5.0331,5.0289,5.0308,5.0327,5.0329,5.0346,5.0348,5.0398,5.043,5.0371,5.0348,5.0423,5.0344,5.0277,5.0225,4.9715,4.9276,5.8098,5.7861,5.72,5.6712,5.6353,5.6359,5.6832,5.7437,5.6,5.5378,5.5242,5.3281,5.196,5.1238,5.184,5.2093,5.2203,5.4365,5.5126,5.4796,5.6275,5.6741,5.6314,5.6314,5.6197,5.5961,5.532,5.4893,5.466,5.3808,5.34,5.3361,5.2766,5.211,5.1454,5.1034,5.1065,5.1567,5.1749,5.2104,5.2648,5.2036,5.1491,5.1106,5.0612,4.9881,4.8878,4.8816,4.8223,4.6927,4.671,4.6642,4.6677,4.6043,0.0,0.0,0.0,0.0,0.0,0.0,0.0,0.0,0.0,4.5636,4.5677,0.0,4.5684,0.0,4.6236,4.6864,4.752,4.7619,0.0,0.0,4.8013,4.8107,4.8343,4.8457,4.8522,4.8457,4.9016,4.9561,4.9858,5.1041,5.1726,5.1375,5.2055,5.2579,5.2618,5.2883,5.2935,5.2401,5.2574,5.2416,5.1198,5.0769,5.0606,5.0466,5.0547,5.0611,5.0615,5.0615,5.0615,5.0615,5.0596,5.0846,5.1414,5.1077,5.0899,5.1371,5.0924,5.0296,5.0296,5.013,5.0021,5.938,5.938,5.938,5.9341,5.9224,5.847,5.8389,5.8681,5.7437,5.7088,5.7321,5.5883,5.5006,5.4618,5.5048,5.5262,5.5359,5.6758,5.7146,5.6758,5.769,5.7674,5.6897,5.7243,5.7013,5.6295,5.6197,5.5961,5.5553,5.509,5.4877,5.4857,5.4857,5.4624,5.4116,5.2934,5.2498,5.2854,5.2854,5.3055,5.3422,5.2636,5.2016,5.1641,5.1126,5.0441,4.9625,4.9591,4.8953,4.7658,4.7261,4.6932,4.6565,4.61,4.6071,0.0,0.0,0.0,0.0,0.0,0.0,0.0,0.0,0.0,0.0,0.0,4.6983,4.695,4.7369,4.7826,4.8275,4.8405,4.8585,4.8933,4.9042,4.9227,4.9615,4.9701,4.9868,5.0206,5.0351,5.0823,5.1857,5.2505,5.3137,5.3809,5.3995,5.3858,5.3438,5.3599,5.3536,5.2756,5.2644,5.2441,5.1395,5.1279,5.1411,5.165,5.148,5.1279,5.126,5.0951,5.0681,5.0681,5.0681,5.0835,5.1299,5.1048,5.0893,5.1161,5.0919,5.0535,5.0481,5.0481,5.0466,6.0374,6.0254,6.0254,6.0717,6.1296,5.9765,5.9066,5.8914,5.8101,5.8078,5.8658,5.8755,5.8817,5.8817,5.8817,5.8817,5.8817,5.8914,5.8914,5.8817,5.8914,5.8545,5.779,5.8467,5.804,5.6683,5.7382,5.7363,5.6644,5.6625,5.6625,5.6625,5.6625,5.6625,5.6544,5.511,5.4197,5.3886,5.3866,5.3908,5.4005,5.3183,5.2329,5.1568,5.1292,5.0775,4.9935,4.9896,4.9493,4.8647,4.7974,4.7298,4.6543,4.6388,4.6388,0.0,4.7104,0.0,0.0,0.0,0.0,0.0,0.0,0.0,0.0,4.8663,4.8747,4.868,4.8819,4.8899,4.8855,4.8896,4.9202,4.9888,5.0025,5.037,5.1086,5.1299,5.1627,5.2329,5.1863,5.2404,5.4304,5.4235,5.4488,5.5582,5.5459,5.4777,5.3848,5.4145,5.4275,5.3588,5.2685,5.2125,5.1988,5.2007,5.2213,5.2737,5.2406,5.2007,5.1831,5.1344,5.0915,5.0818,5.0888,5.0981,5.091,5.0895,5.0837,5.1024,5.0919,5.0758,5.0692,5.0674,5.0656,6.1785,6.1163,6.1163,6.1241,6.1377,6.1043,6.0503,5.9791,5.8952,5.8292,5.7887,5.8525,5.8817,5.8817,5.8817,5.8817,5.8855,5.9535,5.9477,5.8836,5.9516,5.9399,5.8603,5.8735,5.8638,5.8347,5.8502,5.8486,5.8331,5.8331,5.8328,5.8308,5.8328,5.8308,5.8311,0.0,0.0,0.0,5.4734,5.5087,5.5751,5.4951,5.4096,5.3245,5.2508,0.0,5.0981,5.092,5.0496,4.9664,4.9487,0.0,0.0,0.0,0.0,0.0,0.0,0.0,0.0,0.0,0.0,0.0,5.0139,4.9922,4.8721,4.9232,4.9643,4.9656,5.0278,5.0705,5.0679,5.0702,5.0766,5.0902,5.0947,5.1005,5.1199,5.1763,5.2232,5.2368,5.2876,5.3381,5.3925,5.4388,5.4873,5.534,5.5728,5.5673,5.4837,5.4781,5.4804,5.4594,5.3203,5.2309,5.2175,5.2253,5.2109,5.1713,5.2008,5.203,5.158,5.1816,5.1765,5.1254,5.1651,5.2036,5.2036,5.1554,5.127,5.1939,5.1532,5.1035,5.0752,5.0705,5.0692,6.309,6.2682,6.2682,6.2682,0.0,6.2682,6.2196,6.1303,6.0001,5.9224,5.8898,5.9707,6.0076,6.0095,6.0095,6.0095,6.0114,6.0545,6.0503,6.0114,6.0545,6.0273,5.9458,5.9881,5.9629,5.8817,5.9244,5.9224,5.8836,5.8817,5.8817,5.8817,5.8817,5.8817,5.8817,5.8817,5.8176,5.689,5.6871,5.7088,5.7476,5.6719,5.5867,5.5013,5.4138,0.0,0.0,0.0,0.0,0.0,0.0,0.0,0.0,4.9496,0.0,5.0486,5.0503,5.0464,5.0484,5.0875,5.1302,5.1733,5.2176,5.2076,5.1186,5.1535,5.1791,5.1791,5.2176,5.2429,5.2426,5.2426,5.2429,5.2448,5.2429,5.2429,5.2487,5.2779,5.3206,5.3591,5.3692,5.3983,5.4877,5.4912,5.5395,5.6078,5.5864,5.5825,5.6078,5.5148,5.4135,5.3319,5.2873,5.2391,5.2311,5.235,5.2495,5.2353,5.2376,5.2229,5.1863,5.1801,5.1668,5.1319,5.1552,5.1804,5.1785,5.1471,5.1319,5.1665,5.1494,5.1175,5.0984,5.0947,5.0925,6.4142,6.4003,6.4003,6.4003,6.4003,6.4003,6.3579,6.2818,6.1264,0.0,0.0,6.1299,6.1626,6.1626,6.1629,6.1629,6.1649,6.1785,6.1863,6.1843,6.1863,6.1474,6.084,6.1536,6.1109,5.9807,6.0448,6.0413,5.9729,5.9571,5.9496,5.9477,5.9357,5.926,5.926,5.9263,5.926,5.924,5.8969,5.8817,5.8794,5.814,5.7421,5.6544,5.5689,5.4815,5.3964,5.3789,5.307,5.1727,5.163,5.1319,5.0625,5.0564,5.0875,5.1591,5.2271,5.264,5.2643,5.3303,5.3769,5.3925,5.3944,5.3866,5.373,5.3847,5.3866,5.373,5.3828,5.3866,5.373,5.3695,5.3714,5.3714,5.3714,5.3695,5.3695,5.3866,5.4174,5.4776,5.4527,5.4682,5.5984,5.565,5.5728,5.6819,5.6159,5.5573,5.6586,5.5637,5.4313,5.3284,5.3553,5.3417,5.2986,5.318,5.3261,5.3491,5.3183,5.2834,5.2581,5.2212,5.186,5.1824,5.1746,5.1921,5.1727,5.161,5.1413,5.1416,5.1277,5.1199,5.1199,5.1199,5.1169,6.464,6.4003,6.4003,6.4003,6.4003,6.4003,6.3948,6.3731,6.276,6.2332,6.2352,6.2449,6.2523,6.2523,6.2523,6.2523,6.2585,6.3284,6.3637,6.3637,6.3637,6.3556,6.3463,6.3575,6.3517,6.3307,6.3385,6.3385,6.3191,6.2488,6.2154,6.2041,6.1396,6.1027,6.1024,6.1047,6.1027,6.1008,5.9571,5.8817,5.8797,5.8677,5.8234,5.7444,5.6605,5.5728,5.4854,5.4138,5.3598,5.3361,5.3342,5.3284,5.3167,5.3128,5.3228,5.3342,5.3458,5.3517,5.3536,5.3636,5.4022,5.4737,5.4835,5.4504,5.3789,5.4388,5.4504,5.3847,5.4407,5.4504,5.3828,5.3831,5.3928,5.3831,5.3772,5.3733,5.3869,5.4469,5.4912,5.5048,5.5592,5.5906,5.6178,5.6155,5.6139,5.6411,5.6372,5.6019,5.5883,5.6392,5.6897,5.6764,5.6783,5.6236,5.4796,5.5262,5.4935,5.3886,5.4177,5.4174,5.3497,5.3747,5.3786,5.34,5.3672,5.3883,5.3381,5.272,5.2251,5.2115,5.1665,5.1238,5.1199,5.1199,5.1174,6.612,6.5401,6.5343,6.5362,6.535,6.5392,6.5445,6.5424,6.5034,6.43,6.3444,6.3402,6.342,6.3455,6.3457,6.3477,6.3457,6.3377,6.3355,6.3319,6.2868,6.2873,6.3263,6.3302,6.3299,6.3335,6.3789,6.3754,6.3326,6.3346,6.3401,6.3381,6.2993,6.2798,6.2798,6.2818,6.2818,6.2779,6.1086,6.0212,6.0212,6.0212,5.9807,5.8995,5.8567,5.7942,5.7104,5.668,5.6061,5.5148,5.5129,5.4896,5.4446,5.4407,5.4601,5.5071,5.511,5.511,5.511,5.5116,5.5293,5.5729,5.5753,5.5617,5.5211,5.5497,5.5534,5.5187,5.5887,5.6275,5.5887,5.6197,5.6466,5.6486,5.6466,5.6275,5.5926,5.6139,5.6214,5.5848,5.6039,5.6295,5.6314,5.6314,5.6528,5.6877,5.6994,5.6819,5.6411,5.7033,5.7075,5.587,5.5848,5.5634,5.4624,5.5029,5.4974,5.3866,5.4427,5.4563,5.3905,5.4119,5.41,5.3808,5.408,5.4119,5.375,5.3012,5.2526,5.2329,5.1746,5.128,5.1199,5.1199,5.1199,6.732,6.6533,6.6549,6.6552,6.6543,6.6615,6.665,6.6697,6.6697,6.592,6.4716,6.4423,6.4352,6.4397,6.4399,6.4398,6.432,6.391,6.3694,6.3596,6.2991,6.2907,6.328,6.3293,6.3215,6.3111,6.3717,6.3662,6.3141,6.3503,6.3612,6.3456,6.344,6.344,6.344,6.344,6.344,6.3362,6.2117,6.1519,6.1691,6.1513,6.1066,6.0448,6.0176,5.9805,5.915,5.894,5.8239,5.7023,5.6911,5.6597,5.5955,5.5702,5.6014,5.6775,5.6714,5.6714,5.6895,5.6907,5.6932,5.6974,5.6977,5.6977,5.6991,5.6944,5.6811,5.6734,5.7192,5.7617,5.7837,5.8354,5.8849,5.8849,5.8849,5.844,5.7983,5.788,5.7667,5.6984,5.6703,5.6605,5.6547,5.6411,5.6528,5.7052,5.7308,5.7308,5.7308,5.7308,5.6356,5.5246,5.5165,5.567,5.4799,5.5207,5.5281,5.4449,5.4854,5.5009,5.4585,5.4352,5.4333,5.443,5.4371,5.4488,5.4294,5.3653,5.3106,5.2834,5.2135,5.1471,5.1238,5.1219,5.1199,6.743,6.6736,6.6696,6.6663,6.6681,6.6688,6.6696,6.6722,6.6719,6.6662,6.6383,6.5639,6.5273,6.5295,6.5279,6.5281,6.5339,6.6017,6.6234,6.6195,6.625,6.5854,6.5088,6.5086,6.4734,6.403,6.4078,6.4094,6.3872,6.3357,6.2596,6.1823,6.1726,6.1916,6.182,6.1859,6.1801,6.1745,6.1589,6.1853,6.2486,6.1804,6.1358,6.1299,6.051,6.0102,6.0049,5.9318,5.8874,5.8759,5.8723,5.8685,5.8509,5.7864,5.7826,5.8586,5.796,5.7904,5.8608,5.8769,5.8598,5.8757,5.8587,5.8567,5.8586,5.8654,5.8374,5.7806,5.7649,5.8129,5.8744,5.8992,5.9141,5.9195,5.9141,5.8919,5.8834,5.8795,5.8719,5.8593,5.7861,5.7483,5.7405,5.6868,5.6427,5.6664,5.6625,5.6644,5.6722,5.6703,5.6703,5.645,5.734,5.7806,5.7169,5.7227,5.6741,5.612,5.6081,5.6023,5.5845,5.5828,5.6023,5.5556,5.5848,5.579,5.5692,5.534,5.4407,5.365,5.2892,5.2096,5.1452,5.1277,5.1296,6.8201,6.7428,6.691,6.6735,6.675,6.6751,6.6776,6.6756,6.6756,6.6772,6.6766,6.6383,6.6229,6.6209,6.6229,6.6229,6.6229,6.6112,6.6053,6.5995,6.5546,6.5332,6.5423,6.4914,6.4503,6.4247,6.4639,6.4619,6.4341,6.4758,6.4921,6.461,6.4591,6.4336,6.3846,6.3807,6.3572,6.3045,6.2519,6.2416,6.2615,6.1905,6.1459,6.142,6.111,6.0949,6.094,6.0594,6.0217,5.9829,5.9773,5.9538,5.9032,5.8172,5.7859,5.8152,5.7408,5.7086,5.7494,5.7534,5.7537,5.7577,5.7577,5.7577,5.7596,5.8006,5.8319,5.8573,5.8937,5.9402,5.9754,6.0182,6.0473,6.0473,6.0472,6.0289,5.9781,5.9719,5.9549,5.9011,5.8638,5.8421,5.8247,5.7611,5.7117,5.6994,5.6703,5.6544,5.6936,5.7075,5.7285,5.7729,5.8409,5.8117,5.7266,5.7327,5.713,5.6664,5.6741,5.6994,5.6408,5.6314,5.6295,5.6314,5.6314,5.6314,5.6217,5.5612,5.4835,5.4271,5.375,5.2934,5.2096,5.1901,5.1746,6.8756,6.7989,6.7314,6.7245,6.7479,6.7244,6.7159,6.7101,6.6919,6.6801,6.68,6.6798,6.6952,6.7107,6.6913,6.6796,6.6718,6.6191,6.5917,6.5858,6.5274,6.531,6.5758,6.5251,6.4919,6.496,6.5271,6.5017,6.4433,6.5389,6.6046,6.6046,6.6046,6.5733,6.5166,6.5107,6.4795,6.415,6.3506,6.3213,6.3116,6.2355,6.1783,6.1529,6.1487,6.1494,6.1523,6.1524,6.1275,6.0716,6.0678,6.0404,5.978,5.8901,5.8451,5.8412,5.8099,5.7869,5.7927,5.7907,5.796,5.7996,5.801,5.7991,5.8088,5.8538,5.9124,5.9754,6.0351,6.0659,6.0755,6.1204,6.1516,6.1555,6.1554,6.128,6.0746,6.0666,6.0427,5.9795,5.9548,5.9234,5.8909,5.836,5.7959,5.7878,5.745,5.7146,5.7751,5.7946,5.814,5.8697,5.8797,5.835,5.7263,5.7285,5.7266,5.6974,5.7091,5.6877,5.6408,5.6333,5.6314,5.6314,5.6314,5.6295,5.6295,5.5709,5.5204,5.4893,5.433,5.3594,5.2895,5.2779,5.2407,6.8847,6.8148,6.8056,6.8452,6.9198,6.834,6.7991,6.7819,6.7147,6.6811,6.681,6.6802,6.7265,6.7869,6.7188,6.6835,6.6835,6.6855,6.6835,6.6835,6.6738,6.67,6.6721,6.6701,6.6665,6.6513,6.603,6.5365,6.4578,6.4541,6.4402,6.4581,6.4839,6.4582,6.4546,6.4607,6.4365,6.4295,6.4158,6.4192,6.4094,6.3351,6.2478,6.1737,6.1529,6.1587,6.1601,6.1601,6.1619,6.163,6.1575,6.1573,6.1453,6.0675,6.0151,6.0189,6.085,6.1278,6.114,6.1003,6.106,6.1211,6.0841,6.125,6.0723,6.0899,6.1075,6.1465,6.1415,6.1539,6.1539,6.1584,6.1678,6.1676,6.1692,6.161,6.1543,6.1426,6.1499,6.1192,6.0639,6.003,5.9223,5.8916,5.8852,5.8824,5.8712,5.8655,5.872,5.8768,5.8852,5.8969,5.8991,5.8778,5.8642,5.7985,5.7599,5.7327,5.6877,5.6447,5.6372,5.6314,5.6314,5.6314,5.6314,5.6295,5.6275,5.61,5.5747,5.5301,5.4643,5.3983,5.373,5.3672,5.3303,6.9705,6.895,6.8927,6.8811,6.854,6.8227,6.7799,6.7313,6.6998,6.686,6.6879,6.6877,6.7008,6.7274,6.7529,6.7936,6.8436,6.8456,6.8456,6.8475,6.8456,6.8456,6.8397,6.7908,6.7634,6.7595,6.7342,6.7342,6.7499,6.7011,6.7029,6.7499,6.7558,6.705,6.6113,6.5898,6.541,6.4415,6.4298,6.4298,6.4337,6.3985,6.3651,6.3296,6.2731,6.2201,6.1684,6.2191,6.2263,6.1738,6.1719,6.1699,6.1621,6.0861,6.0139,5.9669,5.9865,6.004,6.004,6.004,6.004,6.004,6.004,6.0137,6.0118,6.0528,6.088,6.0959,6.1446,6.168,6.1699,6.1699,6.1699,6.1699,6.1699,6.1706,6.1679,6.1663,6.1649,6.1579,6.1308,6.0992,6.0579,6.0147,5.9823,5.9737,5.9285,5.9209,5.9572,5.9658,5.9775,6.0312,6.0464,6.0464,6.0445,5.8681,5.7557,5.7344,5.7013,5.6547,5.6314,5.6314,5.6314,5.6314,5.6314,5.6314,5.6295,5.6256,5.6,5.5887,5.5187,5.4838,5.464,5.4566,5.4119,7.0348,6.9856,6.9834,6.9658,6.9309,6.8762,6.8392,6.8022,6.7552,6.7316,6.7355,6.7588,6.7682,6.7794,6.8536,6.9411,7.0087,6.9689,6.9391,6.9391,6.9391,6.9547,6.9684,6.9214,6.9097,6.9274,6.9059,6.9137,6.9313,6.8806,6.8845,6.9333,6.9391,6.8846,6.7811,6.7636,6.6913,6.5781,6.5547,6.543,6.5118,6.4553,6.4298,6.422,6.3712,6.3164,6.2559,6.3106,6.3008,6.2246,6.2129,6.1992,6.166,6.1134,6.0567,6.0021,5.9962,5.9923,5.9943,5.9922,5.9962,5.9962,5.9962,5.9943,5.9982,6.0489,6.0782,6.0958,6.1289,6.1699,6.1699,6.1699,6.1699,6.1699,6.1699,6.1699,6.168,6.1427,6.1271,6.1279,6.1471,6.1558,6.156,6.1052,6.0789,6.0707,6.0123,6.0063,6.0455,6.0618,6.0692,6.1285,6.1288,6.1248,6.0891,5.938,5.8257,5.7946,5.6916,5.6489,5.6314,5.6314,5.6314,5.6314,5.6314,5.6314,5.6314,5.6314,5.6314,5.6314,5.6081,5.5673,5.5534,5.5437,5.4912,7.072,7.0719,7.0695,7.1048,7.1286,6.9997,6.9862,7.0,6.8807,6.82,6.8278,6.8939,6.9132,6.9423,7.0009,7.1024,7.1293,7.0265,6.9688,6.9667,6.9646,7.0016,7.0659,7.0619,7.0933,7.1538,7.0971,7.0211,6.9666,6.9508,6.9469,6.9508,6.9666,6.9588,6.9372,6.9256,6.8903,6.8064,6.777,6.7459,6.6738,6.5235,6.4473,6.4473,6.4376,6.4278,6.4239,6.4239,6.3732,6.295,6.2833,6.254,6.1816,6.1602,6.1641,6.1504,6.1582,6.1621,6.1582,6.1504,6.1426,6.1426,6.1582,6.1426,6.1368,6.1504,6.1582,6.1582,6.1641,6.1699,6.1699,6.1699,6.1699,6.1699,6.1699,6.1699,6.1563,6.0959,6.0451,6.0687,6.1257,6.1642,6.1652,6.138,6.1191,6.1074,6.0965,6.0824,6.0838,6.0847,6.1266,6.1298,6.1184,6.1108,6.065,6.004,5.9322,5.8548,5.7188,5.6314,5.6314,5.6314,5.6314,5.6314,5.6314,5.6314,5.6314,5.6314,5.6314,5.6295,5.6295,5.6295,5.61,5.5867,5.5709,7.1601,7.1601,7.1601,7.1366,7.1074,7.0507,7.0176,6.9844,6.9258,6.9082,6.9082,6.9335,6.9451,6.9605,7.0308,7.0873,7.1102,7.1096,7.1188,7.1142,7.1153,7.1266,7.1519,7.1577,7.1733,7.1812,7.1109,7.0912,7.1011,7.0582,7.0562,7.1089,7.1167,7.0855,7.0309,7.027,6.9879,6.904,6.8414,6.7945,6.7556,6.6053,6.5449,6.5898,6.5507,6.5194,6.5176,6.463,6.3595,6.2226,6.2109,6.1973,6.1758,6.1699,6.1699,6.1699,6.1699,6.1699,6.1699,6.1699,6.1699,6.1719,6.1719,6.1699,6.1699,6.1738,6.1719,6.1719,6.1699,6.1699,6.1699,6.1699,6.1699,6.1699,6.1699,6.168,6.1621,6.1426,6.1328,6.1309,6.1543,6.1446,6.0999,6.0821,6.0649,6.0163,6.0019,5.9957,5.9915,5.9988,5.9778,5.977,6.0108,6.0596,6.0171,5.9786,5.9285,5.8599,5.7476,5.6411,5.6353,5.6314,5.6314,5.6314,5.6314,5.6372,5.6353,5.6411,5.6489,5.6411,5.6431,5.6392,5.6333,5.6178,5.5961,7.1992,7.1992,7.1992,7.1699,7.1152,7.0859,7.0625,7.0371,7.0058,6.9922,6.9941,7.0273,7.0195,7.0116,7.08,7.117,7.1246,7.1771,7.2002,7.1997,7.1987,7.2002,7.2001,7.1996,7.1995,7.1916,7.1463,7.146,7.1948,7.1499,7.146,7.1909,7.1987,7.1733,7.1226,7.1167,7.0757,6.9918,6.9372,6.8765,6.7945,6.6756,6.6152,6.6269,6.5878,6.5468,6.5157,6.4864,6.3984,6.248,6.1914,6.1719,6.1699,6.1699,6.1699,6.1699,6.1699,6.1699,6.1699,6.1699,6.1875,6.209,6.2187,6.2187,6.2187,6.2187,6.2109,6.1758,6.1699,6.1699,6.1699,6.1699,6.1699,6.1699,6.1699,6.1543,6.1368,6.1524,6.1465,6.1328,6.1465,6.1348,6.1036,6.049,6.0256,5.9675,5.9301,5.9117,5.91,5.9099,5.9014,5.9059,5.9447,5.9736,5.9708,5.9434,5.912,5.8512,5.7751,5.6913,5.645,5.6353,5.6314,5.6314,5.6314,5.6683,5.6741,5.6877,5.6974,5.68,5.6683,5.6644,5.6625,5.6353,5.6178,7.1992,7.1992,7.1992,7.1972,7.1816,7.1172,7.1211,7.1699,7.1113,7.0722,7.082,7.1406,7.1367,7.0976,7.1465,7.1855,7.1972,7.1952,7.199,7.1989,7.1985,7.2001,7.1997,7.1991,7.1988,7.1986,7.1939,7.1953,7.1994,7.1896,7.199,7.1991,7.1991,7.1989,7.1851,7.1968,7.1519,7.0875,7.0639,6.978,6.8394,6.7244,6.6543,6.5956,6.5722,6.5292,6.4825,6.4999,6.4628,6.3204,6.2422,6.207,6.1855,6.1777,6.1855,6.1758,6.1699,6.1699,6.1699,6.1875,6.207,6.2579,6.2774,6.293,6.2716,6.2559,6.2343,6.1777,6.1699,6.1758,6.1816,6.1875,6.1875,6.1797,6.1797,6.1407,6.0744,6.127,6.1368,6.0958,6.1211,6.1621,6.1407,6.0764,6.0393,6.0022,5.9498,5.919,5.904,5.8979,5.8945,5.8944,5.8921,5.8909,5.8917,5.918,5.8853,5.8307,5.7829,5.7467,5.6896,5.678,5.6625,5.6567,5.6605,5.6936,5.7285,5.7518,5.7499,5.7305,5.7188,5.7072,5.678,5.6431,5.6314,7.1992,7.1992,7.1992,7.1992,7.1972,7.1719,7.1777,7.1953,7.1777,7.1269,7.1035,7.1621,7.1543,7.0859,7.1601,7.1992,7.1992,7.1992,7.1992,7.1992,7.1991,7.1988,7.2001,7.1998,7.1997,7.1996,7.1994,7.1994,7.1994,7.1992,7.1989,7.2002,7.2001,7.1997,7.199,7.1989,7.1909,7.1577,7.0971,7.0541,6.978,6.7869,6.7088,6.7361,6.6268,6.5565,6.5194,6.4843,6.4513,6.4044,6.3771,6.3301,6.2735,6.2657,6.2422,6.1953,6.1797,6.1738,6.1855,6.2304,6.2462,6.2129,6.2696,6.2716,6.209,6.2051,6.1934,6.1699,6.1699,6.1934,6.2442,6.2618,6.2618,6.2579,6.2187,6.1699,6.1426,6.1543,6.1582,6.1426,6.1563,6.1407,6.0997,6.0607,6.0178,5.9708,5.9357,5.9103,5.9031,5.8702,5.8563,5.8246,5.8155,5.8124,5.8222,5.8592,5.8544,5.8063,5.7902,5.8063,5.7734,5.7658,5.7463,5.7289,5.7324,5.7577,5.8059,5.8447,5.8176,5.781,5.7538,5.7305,5.6722,5.6314,5.6314,7.1992,7.1992,7.1992,7.1992,7.1992,7.1992,7.1992,7.1992,7.1972,7.1758,7.1445,7.1758,7.1719,7.1347,7.1777,7.1992,7.1992,7.1992,7.1992,7.1992,7.1992,7.1992,7.1989,7.1986,7.1985,7.1984,7.2001,7.1999,7.1999,7.2,7.1997,7.1994,7.1993,7.199,7.1986,7.1984,7.2,7.19,7.1468,7.1115,7.0562,6.8884,6.8298,6.8239,6.7049,6.6113,6.6014,6.5625,6.5079,6.4513,6.4259,6.4064,6.3634,6.3537,6.3301,6.2813,6.2794,6.2676,6.2383,6.2755,6.2755,6.2442,6.2774,6.2696,6.2402,6.2226,6.2187,6.1758,6.1719,6.1953,6.2363,6.2774,6.2969,6.295,6.2852,6.2462,6.1836,6.168,6.1699,6.1719,6.168,6.1543,6.0959,6.0666,6.0198,5.9747,5.9396,5.922,5.9065,5.8596,5.8343,5.8343,5.8011,5.7993,5.8039,5.8316,5.8633,5.8157,5.842,5.856,5.8239,5.8225,5.8244,5.8069,5.8104,5.8276,5.8817,5.903,5.8603,5.8234,5.7907,5.7324,5.6703,5.6314,5.6314,7.1992,7.1992,7.1992,7.1933,7.1855,7.1933,7.1894,7.1855,7.1953,7.1894,7.1777,7.1933,7.1836,7.1875,7.1836,7.1992,7.1992,7.1992,7.1992,7.1992,7.1992,7.1992,7.1992,7.1991,7.199,7.199,7.1985,7.1984,7.1985,7.1984,7.2002,7.2001,7.2001,7.2,7.1998,7.1998,7.1995,7.199,7.1929,7.1575,7.0963,6.9948,6.9479,6.9245,6.8109,6.7287,6.7149,6.6894,6.6269,6.4825,6.463,6.461,6.4513,6.4434,6.4181,6.3946,6.3712,6.3478,6.2989,6.2794,6.2891,6.2735,6.2813,6.2911,6.2716,6.2559,6.2324,6.1738,6.1719,6.1836,6.2148,6.2696,6.3184,6.334,6.3829,6.3418,6.2402,6.1895,6.1836,6.1816,6.1816,6.1699,6.1524,6.1114,6.0549,6.0606,6.0196,6.0079,5.9865,5.9513,5.9318,5.922,5.8714,5.8032,5.8056,5.8115,5.8387,5.8456,5.9034,5.9165,5.8482,5.8444,5.875,5.8869,5.894,5.9189,5.9616,5.9516,5.903,5.837,5.7829,5.7188,5.6567,5.6392,5.6314,7.1992,7.1992,7.1992,7.1601,7.1152,7.168,7.1621,7.1113,7.1738,7.166,7.1269,7.1699,7.1621,7.1094,7.1719,7.1992,7.1992,7.1992,7.1992,7.1992,7.1992,7.1992,7.1992,7.1992,7.1992,7.1992,7.1992,7.1992,7.1992,7.1992,7.199,7.1989,7.1988,7.1986,7.2001,7.2002,7.1999,7.1998,7.1998,7.1898,7.1584,7.0802,7.0315,7.0178,6.9293,6.8875,6.8671,6.8181,6.7654,6.7224,6.6562,6.5802,6.5352,6.5234,6.4687,6.375,6.3379,6.2969,6.2363,6.2696,6.2716,6.2363,6.2696,6.2696,6.2031,6.2031,6.1953,6.1699,6.1719,6.1973,6.2481,6.3439,6.3751,6.3849,6.4064,6.4142,6.3693,6.3086,6.2755,6.2618,6.2207,6.1719,6.1758,6.168,6.1407,6.1387,6.125,6.1133,6.0801,6.0411,6.0255,6.0118,5.9456,5.8851,5.8812,5.8851,5.8999,5.9128,5.9589,5.9993,5.9288,5.8874,5.9269,5.9588,5.983,6.0102,6.0351,5.9849,5.9322,5.8528,5.7732,5.7072,5.6567,5.6411,5.6314,7.1992,7.1992,7.1992,7.1738,7.1445,7.1797,7.1738,7.1465,7.1777,7.1758,7.1484,7.1836,7.1719,7.1347,7.1758,7.1992,7.1992,7.1992,7.1992,7.1992,7.1992,7.1992,7.1992,7.1992,7.1992,7.1992,7.1992,7.1992,7.1992,7.1992,7.1992,7.1991,7.1992,7.1991,7.1989,7.1989,7.1988,7.1986,7.1985,7.1984,7.1864,7.1161,7.04,7.0283,6.9986,6.9863,6.9333,6.8531,6.8156,6.7898,6.7272,6.643,6.5781,6.5604,6.4902,6.3927,6.3615,6.3439,6.3204,6.3282,6.3458,6.293,6.3028,6.2716,6.2285,6.1992,6.1699,6.1699,6.1738,6.1934,6.2383,6.3145,6.3595,6.3771,6.4083,6.4278,6.422,6.3888,6.3615,6.3537,6.3282,6.2794,6.254,6.2285,6.1914,6.1738,6.1543,6.1426,6.1446,6.1114,6.1094,6.0841,6.0178,5.9768,5.9729,5.9768,5.9905,5.9992,6.016,6.0546,6.0446,6.0095,5.9877,6.0211,6.0568,6.0704,6.0814,6.0215,5.9461,5.8661,5.7849,5.7072,5.6547,5.6372,5.6314,7.1992,7.1992,7.1992,7.1914,7.1836,7.1914,7.1777,7.1523,7.1914,7.1855,7.1836,7.1914,7.1953,7.1972,7.1953,7.1992,7.1992,7.1992,7.1992,7.1992,7.1992,7.1992,7.1992,7.1992,7.1992,7.1992,7.1992,7.1992,7.1992,7.1992,7.1992,7.1992,7.1992,7.1992,7.1992,7.1992,7.1992,7.199,7.199,7.1989,7.1927,7.1322,7.0697,7.0382,7.0578,7.0634,7.0007,6.9244,6.854,6.8278,6.7456,6.6553,6.5864,6.5722,6.5409,6.4571,6.4493,6.4298,6.4064,6.4161,6.4181,6.4278,6.3693,6.3262,6.3047,6.2696,6.2304,6.1973,6.1914,6.1719,6.1777,6.2598,6.3008,6.3204,6.381,6.4298,6.4473,6.4493,6.4473,6.42,6.3946,6.3576,6.3243,6.295,6.2501,6.207,6.1875,6.1699,6.1699,6.168,6.1543,6.1485,6.088,6.0645,6.0606,6.0509,6.0666,6.0452,6.0592,6.0784,6.1013,6.0564,6.0248,6.0958,6.1305,6.1277,6.0903,6.0158,5.9419,5.8687,5.7904,5.711,5.6664,5.6353,5.6314,7.1992,7.1992,7.1992,7.1601,7.1094,7.168,7.1191,7.0234,7.1445,7.1562,7.1094,7.164,7.1914,7.1914,7.1972,7.1972,7.1953,7.1992,7.1992,7.1992,7.1992,7.1992,7.1992,7.1992,7.1992,7.1992,7.1992,7.1992,7.1992,7.1992,7.1992,7.1992,7.1992,7.1992,7.1992,7.1992,7.1992,7.1992,7.1992,7.1992,7.1914,7.1777,7.1582,7.1305,7.152,7.1518,7.1339,7.0654,6.9947,6.9216,6.8336,6.7124,6.6166,6.6217,6.6018,6.5371,6.5137,6.4864,6.4532,6.4376,6.4337,6.4259,6.4181,6.4103,6.4044,6.3849,6.3301,6.2755,6.2187,6.1758,6.1738,6.2422,6.2872,6.3184,6.3595,6.4376,6.4921,6.5097,6.4941,6.4571,6.4395,6.4337,6.4064,6.3691,6.3184,6.2656,6.2226,6.1914,6.1699,6.1699,6.166,6.1641,6.1582,6.1485,6.1485,6.1348,6.127,6.0744,6.0687,6.0687,6.0768,6.0486,6.0601,6.126,6.143,6.1249,6.0736,6.0144,5.9325,5.8548,5.7829,5.7133,5.6683,5.6314,5.6314,7.1992,7.1992,7.1992,7.1777,7.1406,7.1308,7.1152,7.084,7.1152,7.1094,7.0918,7.1133,7.1055,7.0879,7.1191,7.1523,7.1914,7.1992,7.1992,7.1992,7.1992,7.1992,7.1992,7.1992,7.1992,7.1992,7.1992,7.1992,7.1992,7.1992,7.1992,7.1992,7.1992,7.1992,7.1992,7.1992,7.1992,7.1992,7.1992,7.1992,7.1992,7.1992,7.1992,7.1992,7.1992,7.1991,7.1834,7.115,7.0289,6.9425,6.8584,6.7507,6.6781,6.6425,6.6284,6.5302,6.5024,6.5079,6.4961,6.5001,6.5175,6.5528,6.5254,6.5001,6.4844,6.4532,6.4142,6.3634,6.2911,6.2363,6.2422,6.2462,6.2324,6.2402,6.2813,6.3438,6.4121,6.4648,6.4765,6.4825,6.5293,6.5293,6.4999,6.4531,6.3926,6.3321,6.2696,6.2285,6.1953,6.1836,6.1895,6.1738,6.1738,6.1777,6.1738,6.166,6.1621,6.1172,6.0919,6.0919,6.0963,6.0886,6.1046,6.1502,6.1452,6.1265,6.0993,6.053,5.9471,5.8512,5.7946,5.7386,5.6703,5.6314,5.6431,7.1992,7.1992,7.1797,7.1836,7.1836,7.1074,7.1074,7.1523,7.123,7.0781,7.0469,7.0605,7.039,7.0078,7.0625,7.1387,7.1992,7.1992,7.1992,7.1992,7.1992,7.1992,7.1992,7.1992,7.1992,7.1992,7.1992,7.1992,7.1992,7.1992,7.1992,7.1992,7.1992,7.1992,7.1992,7.1992,7.1992,7.1992,7.1992,7.1992,7.1992,7.1992,7.1992,7.1992,7.1992,7.1992,7.1914,7.1445,7.0469,6.9607,6.8785,6.7964,6.7101,6.6884,6.6257,6.5119,6.4836,6.5199,6.5585,6.5839,6.6055,6.6445,6.6133,6.5917,6.5643,6.5196,6.461,6.4415,6.3771,6.3262,6.3184,6.2696,6.2324,6.209,6.2168,6.2304,6.3086,6.375,6.4433,6.4922,6.5937,6.6074,6.5604,6.5312,6.4687,6.4297,6.3691,6.3243,6.2872,6.2324,6.2187,6.1914,6.1836,6.1875,6.1836,6.1699,6.168,6.1524,6.1387,6.1387,6.1485,6.1549,6.1691,6.1662,6.1581,6.1411,6.1175,6.0949,6.0175,5.9343,5.8444,5.7832,5.7518,5.711,5.6994,7.1992,7.1933,7.1191,7.1289,7.1816,7.1055,7.0762,7.0937,7.1426,7.0918,6.9707,7.0312,7.0566,7.0683,7.1308,7.1816,7.1972,7.1992,7.1992,7.1992,7.1992,7.1992,7.1992,7.1992,7.1992,7.1992,7.1992,7.1992,7.1992,7.1992,7.1992,7.1992,7.1992,7.1992,7.1992,7.1992,7.1992,7.1992,7.1992,7.1992,7.1992,7.1992,7.1992,7.1992,7.1992,7.1992,7.1992,7.1699,7.1055,6.9647,6.9333,6.8454,6.7242,6.6906,6.6849,6.6632,6.6548,6.6533,6.6566,6.6523,6.6543,6.6777,6.6621,6.664,6.6347,6.5917,6.5429,6.5409,6.4649,6.4181,6.4142,6.3985,6.3576,6.3047,6.2657,6.2716,6.3067,6.3204,6.3828,6.4356,6.5157,6.582,6.5937,6.5722,6.5487,6.5116,6.4707,6.422,6.3732,6.3164,6.2794,6.2598,6.2285,6.2265,6.2051,6.1895,6.1738,6.1738,6.1719,6.1719,6.1699,6.1699,6.1699,6.1681,6.1601,6.1576,6.1451,6.1186,6.0837,6.0141,5.9163,5.8804,5.8642,5.8195,5.7651,7.1992,7.1953,7.1582,7.164,7.1855,7.1074,7.0703,7.0683,7.0547,7.0117,6.9551,6.9765,7.0215,7.0703,7.1152,7.1543,7.1894,7.2031,7.2012,7.2012,7.2012,7.2012,7.1992,7.1992,7.1992,7.2129,7.1992,7.1992,7.2012,7.2051,7.1992,7.1992,7.2012,7.1992,7.1992,7.1992,7.1992,7.1992,7.1992,7.1992,7.1992,7.1992,7.1992,7.1992,7.1992,7.1992,7.1992,7.1972,7.1426,7.0234,6.9745,6.8867,6.7812,6.7225,6.6873,6.6871,6.685,6.6802,6.6789,6.6801,6.6798,6.6796,6.6796,6.6757,6.6718,6.6504,6.625,6.6269,6.5508,6.5098,6.4903,6.4571,6.3868,6.336,6.3282,6.3106,6.3106,6.3067,6.336,6.3849,6.4356,6.504,6.5625,6.5567,6.5448,6.5429,6.5116,6.4786,6.4356,6.3927,6.3654,6.3478,6.3106,6.2794,6.2442,6.2168,6.1875,6.1797,6.1758,6.1758,6.1719,6.1699,6.1699,6.1699,6.1665,6.1653,6.1653,6.1441,6.1085,6.0501,5.9876,5.9568,5.9254,5.8875,5.8525,7.1992,7.1992,7.1777,7.1797,7.1875,7.0859,7.0508,7.0625,7.0078,6.9648,6.9531,6.9687,7.0078,7.0586,7.1113,7.1933,7.2344,7.2324,7.2324,7.2285,7.2129,7.2148,7.2246,7.2246,7.2265,7.2617,7.2539,7.2637,7.2754,7.2695,7.2617,7.207,7.2344,7.2187,7.2031,7.1992,7.1992,7.1992,7.1992,7.1992,7.1992,7.1992,7.1992,7.1992,7.1992,7.1992,7.1992,7.1992,7.1562,7.0703,7.0137,6.9414,6.8555,6.7793,6.7383,6.7264,6.7146,6.6869,6.684,6.683,6.6801,6.6798,6.6798,6.6798,6.6801,6.6799,6.6796,6.6699,6.6289,6.5937,6.5761,6.5313,6.4805,6.4297,6.3867,6.3594,6.336,6.3439,6.3537,6.3946,6.4298,6.4298,6.4786,6.5059,6.5253,6.5526,6.5468,6.5273,6.502,6.4727,6.4473,6.4298,6.4179,6.375,6.3243,6.2813,6.2363,6.1973,6.1953,6.1797,6.1758,6.1719,6.1699,6.1699,6.1699,6.1705,6.168,6.1523,6.1335,6.0867,6.0419,6.0086,5.9749,5.9442,5.9474,7.1992,7.1933,7.1133,7.1289,7.1855,7.0195,6.9961,7.0566,7.0508,7.0019,6.9609,7.0215,7.0293,7.0371,7.1797,7.2773,7.3105,7.3203,7.3027,7.2754,7.2519,7.2637,7.2734,7.2754,7.289,7.3887,7.3594,7.3652,7.416,7.414,7.334,7.2324,7.2793,7.2578,7.2246,7.1992,7.1992,7.1992,7.1992,7.1992,7.1992,7.1992,7.1992,7.1992,7.1992,7.1992,7.1992,7.1992,7.1719,7.0879,7.0566,7.0039,6.914,6.834,6.791,6.7578,6.7168,6.6911,6.6868,6.6839,6.6808,6.6801,6.682,6.6824,6.6829,6.6802,6.6799,6.682,6.6586,6.6584,6.6602,6.6543,6.582,6.5214,6.4648,6.4355,6.4142,6.3985,6.4083,6.4239,6.4298,6.4298,6.4298,6.4649,6.5175,6.5487,6.5936,6.5781,6.5898,6.5664,6.5313,6.5157,6.5234,6.4882,6.4317,6.381,6.3223,6.2735,6.252,6.2129,6.1797,6.1758,6.1719,6.1699,6.1699,6.1699,6.1703,6.1597,6.1461,6.1277,6.0997,6.0659,6.062,6.054,6.0653,7.1191,7.1172,7.082,7.1191,7.1855,7.0176,6.9609,6.9785,6.9394,6.9336,6.9531,7.0801,7.1328,7.1406,7.1719,7.25,7.2578,7.3105,7.2988,7.3027,7.3086,7.3418,7.3496,7.3633,7.4004,7.4512,7.4277,7.418,7.4512,7.5137,7.4726,7.3984,7.3515,7.2734,7.2285,7.2109,7.2051,7.2031,7.2012,7.1992,7.1992,7.1992,7.1992,7.1992,7.1992,7.1992,7.1992,7.1992,7.1777,7.1426,7.0957,7.0254,6.9472,6.8652,6.8047,6.7617,6.7109,6.6933,6.6891,6.6885,6.6859,6.6856,6.6856,6.6856,6.6859,6.6856,6.6856,6.6854,6.6829,6.6826,6.6786,6.6743,6.6406,6.5878,6.5469,6.5158,6.4925,6.4751,6.4652,6.4809,6.4534,6.4298,6.4298,6.4337,6.4903,6.5448,6.5936,6.6328,6.6386,6.6445,6.6055,6.5684,6.5682,6.5565,6.5001,6.4493,6.3985,6.3478,6.2989,6.2442,6.1914,6.1738,6.1699,6.1699,6.1699,6.1699,6.1704,6.1675,6.1578,6.1439,6.1363,6.1247,6.1326,6.1431,6.1428,7.0625,7.0996,7.0527,7.0801,7.1367,7.0097,6.9609,6.9629,6.8965,6.9023,6.9883,7.1328,7.1816,7.1777,7.2265,7.2695,7.3047,7.3457,7.3476,7.3711,7.4082,7.4336,7.4316,7.4414,7.4746,7.5097,7.5078,7.5078,7.5586,7.6015,7.5644,7.4922,7.414,7.3418,7.3008,7.248,7.2363,7.2363,7.209,7.2012,7.1992,7.1992,7.1992,7.1992,7.1992,7.1992,7.1992,7.1972,7.1777,7.1406,7.0937,7.0293,6.9492,6.8691,6.7969,6.7441,6.7031,6.6914,6.6894,6.6888,6.6905,6.6885,6.6883,6.6884,6.6906,6.6904,6.6881,6.6882,6.6858,6.6835,6.6835,6.6812,6.6732,6.6265,6.6206,6.5953,6.5716,6.554,6.542,6.5378,6.516,6.5137,6.4825,6.4903,6.5118,6.5682,6.6152,6.6504,6.6621,6.666,6.664,6.625,6.5975,6.58,6.5546,6.4786,6.4025,6.336,6.2891,6.2481,6.2051,6.1855,6.1699,6.1699,6.1699,6.1699,6.1703,6.169,6.1669,6.1601,6.1518,6.1418,6.1432,6.1462,6.1438,7.0351,7.1699,7.0097,6.9941,7.0605,6.9863,6.9902,7.039,6.9765,6.9824,7.0605,7.1601,7.1621,7.1387,7.2363,7.3164,7.3887,7.4277,7.4609,7.4961,7.5039,7.5195,7.5254,7.5351,7.5644,7.6601,7.6387,7.623,7.6894,7.6875,7.6504,7.5879,7.5058,7.4355,7.4394,7.3613,7.3242,7.3125,7.2383,7.207,7.1992,7.1992,7.1992,7.1992,7.1992,7.1992,7.1738,7.1738,7.1406,7.0762,7.0625,7.0039,6.9258,6.8594,6.8105,6.789,6.7226,6.6953,6.6894,6.6894,6.6889,6.6891,6.689,6.6889,6.689,6.6889,6.6906,6.6888,6.6885,6.6884,6.6883,6.6882,6.6803,6.6743,6.6664,6.6586,6.6329,6.6211,6.6091,6.5991,6.6315,6.6445,6.5918,6.5604,6.5604,6.5936,6.6406,6.664,6.6679,6.6543,6.6445,6.5977,6.5547,6.543,6.5098,6.4688,6.4064,6.336,6.2833,6.2462,6.209,6.1797,6.1699,6.1738,6.1699,6.1699,6.1699,6.1701,6.1681,6.1636,6.1558,6.149,6.1506,6.1486,6.1467,6.8945,6.9414,6.8847,6.9101,6.9805,6.9629,6.9961,7.0566,7.041,7.043,7.084,7.1621,7.1894,7.1875,7.207,7.2969,7.373,7.4472,7.4922,7.5097,7.5722,7.5976,7.6055,7.623,7.6562,7.6953,7.6855,7.6797,7.7129,7.7207,7.7109,7.6582,7.5625,7.4824,7.3789,7.2988,7.2637,7.3008,7.25,7.1992,7.1992,7.1992,7.1992,7.1992,7.1972,7.1699,7.1269,7.123,7.0703,6.998,6.9844,6.9433,6.8769,6.8144,6.791,6.7558,6.6933,6.6914,6.6894,6.6894,6.6894,6.6894,6.6894,6.6894,6.6894,6.6894,6.6893,6.6892,6.6891,6.689,6.689,6.6905,6.6844,6.6863,6.6804,6.6824,6.6706,6.6725,6.6664,6.6604,6.6776,6.6745,6.6407,6.6172,6.6133,6.6191,6.6601,6.6347,6.6269,6.5956,6.5741,6.5157,6.4747,6.4727,6.4571,6.4259,6.3868,6.3243,6.2852,6.2579,6.2207,6.207,6.1953,6.209,6.1895,6.1719,6.1973,6.211,6.1783,6.1647,6.164,6.1596,6.154,6.1528,6.1487,6.8262,6.8984,6.8437,6.8691,6.9394,6.9453,6.9922,7.0722,7.1269,7.1445,7.1347,7.1777,7.1972,7.1972,7.2051,7.2461,7.334,7.418,7.4941,7.5176,7.6484,7.668,7.6719,7.6836,7.7012,7.7207,7.7207,7.7207,7.7207,7.7207,7.6953,7.6484,7.5879,7.4863,7.3808,7.3203,7.2793,7.2988,7.25,7.1992,7.1992,7.1992,7.1992,7.1894,7.168,7.1269,7.0801,7.0351,6.9902,6.9258,6.8867,6.8594,6.8047,6.7676,6.7441,6.7031,6.6894,6.6894,6.6894,6.6894,6.6894,6.6894,6.6894,6.6894,6.6894,6.6894,6.6894,6.6894,6.6894,6.6894,6.6894,6.6894,6.6889,6.6889,6.6889,6.6889,6.6906,6.6906,6.6904,6.6883,6.6838,6.6828,6.6799,6.6759,6.664,6.6699,6.6796,6.6386,6.6034,6.58,6.5546,6.5059,6.4493,6.4434,6.4278,6.3907,6.3498,6.3067,6.2989,6.2989,6.3106,6.3106,6.2774,6.2579,6.2774,6.2872,6.2676,6.2561,6.2387,6.21,6.1841,6.1754,6.1621,6.1554,6.1517,6.8359,7.0234,6.8847,6.8574,6.9258,6.9551,7.0078,7.084,7.2422,7.2637,7.1992,7.1933,7.209,7.2109,7.209,7.2715,7.3515,7.4355,7.5,7.5664,7.6387,7.6621,7.6758,7.6894,7.6894,7.7051,7.7168,7.7207,7.7207,7.6953,7.6562,7.584,7.5,7.4297,7.375,7.3262,7.3008,7.2969,7.248,7.207,7.1992,7.1836,7.1738,7.1543,7.1094,7.0605,7.0137,6.9726,6.9023,6.8476,6.8144,6.7637,6.7226,6.6933,6.6894,6.6894,6.6894,6.6894,6.6894,6.6894,6.6894,6.6894,6.6894,6.6894,6.6894,6.6894,6.6894,6.6894,6.6894,6.6894,6.6894,6.6894,6.6894,6.6894,6.6894,6.6893,6.6891,6.689,6.6888,6.6864,6.6837,6.6809,6.68,6.6796,6.6796,6.6796,6.6796,6.6738,6.6406,6.6191,6.5918,6.5547,6.4981,6.4376,6.4103,6.3907,6.3732,6.3498,6.3771,6.3849,6.3985,6.3966,6.3654,6.3576,6.4005,6.4005,6.3556,6.3282,6.3127,6.2802,6.2479,6.1868,6.1719,6.1597,6.1532,6.7695,6.875,6.7715,6.7754,6.875,7.0469,7.1074,7.0898,7.1914,7.2168,7.1992,7.1992,7.2265,7.289,7.2949,7.3789,7.4414,7.4902,7.5215,7.5586,7.5625,7.5449,7.5605,7.5996,7.6191,7.6504,7.6777,7.7051,7.6953,7.666,7.582,7.4961,7.4238,7.3574,7.3047,7.2539,7.2832,7.2851,7.2305,7.2051,7.1719,7.1387,7.1269,7.0937,7.0312,6.9746,6.9121,6.8808,6.8125,6.7519,6.7324,6.7031,6.6992,6.6894,6.6894,6.6894,6.6894,6.6894,6.6894,6.6894,6.6894,6.6894,6.6894,6.6894,6.6894,6.6894,6.6894,6.6894,6.6894,6.6894,6.6894,6.6894,6.6894,6.6894,6.6894,6.6893,6.6891,6.689,6.6887,6.6863,6.6815,6.6807,6.6799,6.6796,6.6796,6.6796,6.6796,6.6796,6.6738,6.6484,6.625,6.5898,6.5313,6.4688,6.4434,6.4239,6.4103,6.4025,6.4415,6.4571,6.4376,6.4337,6.4317,6.4395,6.4552,6.4454,6.42,6.4025,6.3945,6.3628,6.3267,6.2476,6.1836,6.169,6.1686,6.7422,6.8027,6.7246,6.7402,6.8437,7.0176,7.082,7.0898,7.1972,7.2383,7.2012,7.1992,7.2305,7.2637,7.2734,7.3203,7.4023,7.4082,7.4316,7.4433,7.4648,7.4765,7.4883,7.5078,7.5312,7.5703,7.6094,7.6367,7.625,7.5781,7.5,7.4648,7.373,7.3086,7.2676,7.2402,7.2305,7.2265,7.2051,7.1836,7.1465,7.0898,7.0508,7.041,6.9668,6.873,6.8222,6.7988,6.7402,6.6972,6.6914,6.6894,6.6894,6.6894,6.6894,6.6894,6.6894,6.6894,6.6894,6.6894,6.6894,6.6894,6.6894,6.6894,6.6894,6.6894,6.6894,6.6894,6.6894,6.6894,6.6894,6.6894,6.6894,6.6894,6.6893,6.6892,6.6891,6.6889,6.6865,6.6839,6.6832,6.6805,6.6799,6.6798,6.6796,6.6796,6.6796,6.6796,6.6757,6.6621,6.6445,6.6191,6.5586,6.4961,6.4805,6.4805,6.4805,6.4961,6.541,6.543,6.5001,6.4825,6.4942,6.4922,6.4902,6.4922,6.5079,6.4903,6.4767,6.4468,6.4031,6.3201,6.2399,6.1781,6.1838,6.7402,6.8144,6.7363,6.75,6.8281,6.9277,7.0078,7.0859,7.2344,7.2734,7.207,7.1992,7.2109,7.2461,7.2519,7.2617,7.3222,7.3476,7.373,7.3398,7.3789,7.4101,7.4512,7.4551,7.4648,7.4902,7.5371,7.5937,7.5078,7.4785,7.4726,7.4492,7.3535,7.291,7.2715,7.2265,7.2109,7.2012,7.1582,7.1191,7.1328,7.0664,6.9726,7.0097,6.918,6.8008,6.7851,6.7441,6.6894,6.6894,6.6894,6.6894,6.6894,6.6894,6.6894,6.6894,6.6894,6.6894,6.6894,6.6894,6.6894,6.6894,6.6894,6.6894,6.6894,6.6894,6.6894,6.6894,6.6894,6.6894,6.6894,6.6894,6.6894,6.6894,6.6893,6.6892,6.689,6.6887,6.6841,6.6815,6.6826,6.6799,6.6798,6.6796,6.6796,6.6796,6.6796,6.6796,6.6777,6.6699,6.6601,6.6445,6.6074,6.5645,6.5664,6.5664,6.5684,6.5917,6.625,6.625,6.5781,6.5645,6.5604,6.5565,6.5526,6.5918,6.6074,6.582,6.5587,6.5419,6.4869,6.3944,6.3096,6.22,6.1989,6.7402,6.8164,6.7969,6.8027,6.8398,6.9765,7.0469,7.0801,7.1836,7.2226,7.2012,7.2051,7.2344,7.2734,7.2656,7.289,7.3574,7.2988,7.3652,7.3418,7.3359,7.3652,7.4219,7.4004,7.4062,7.4726,7.5293,7.5508,7.5234,7.4805,7.416,7.3574,7.2832,7.2461,7.2441,7.2012,7.1972,7.1933,7.1406,7.125,7.1621,7.0566,6.9609,6.9316,6.8398,6.7519,6.7305,6.7129,6.6914,6.6894,6.6894,6.6894,6.6894,6.6894,6.6894,6.6894,6.6894,6.6894,6.6894,6.6894,6.6894,6.6894,6.6894,6.6894,6.6894,6.6894,6.6894,6.6894,6.6894,6.6894,6.6894,6.6894,6.6894,6.6894,6.6892,6.6891,6.689,6.6844,6.6816,6.6808,6.68,6.6798,6.6796,6.6796,6.6796,6.6796,6.6796,6.6796,6.6796,6.6757,6.6757,6.666,6.6699,6.6464,6.6425,6.6347,6.625,6.6328,6.6562,6.6543,6.6425,6.5663,6.5077,6.5878,6.625,6.6113,6.6133,6.6543,6.633,6.5852,6.5189,6.4061,6.3348,6.2524,6.2355,6.7187,6.7617,6.7617,6.8086,6.8867,6.9805,7.0566,7.1289,7.1797,7.1992,7.1992,7.2031,7.2265,7.2578,7.2344,7.2676,7.3203,7.248,7.2578,7.2695,7.289,7.3086,7.3281,7.3555,7.3652,7.414,7.4043,7.4199,7.498,7.3984,7.3008,7.2734,7.2168,7.1992,7.1992,7.1992,7.1992,7.1972,7.1426,7.1562,7.1836,7.0547,6.9824,6.9316,6.8613,6.7676,6.7305,6.7187,6.6914,6.6894,6.6894,6.6894,6.6894,6.6894,6.6894,6.6894,6.6894,6.6894,6.6894,6.6894,6.6894,6.6894,6.6894,6.6894,6.6894,6.6894,6.6894,6.6894,6.6894,6.6894,6.6894,6.6894,6.6894,6.6894,6.6894,6.6893,6.6869,6.684,6.6812,6.6802,6.6798,6.6796,6.6796,6.6796,6.6796,6.6796,6.6796,6.6796,6.6796,6.6796,6.6796,6.6796,6.6796,6.6796,6.6679,6.664,6.666,6.6757,6.6796,6.6484,6.6113,6.5058,6.455,6.5273,6.5586,6.5274,6.5469,6.612,6.586,6.5128,6.4609,6.3993,6.3392,6.2776,6.2371,6.6972,6.7051,6.7226,6.8086,6.9414,6.9785,7.0586,7.166,7.1953,7.1992,7.1933,7.1836,7.1836,7.1543,7.1152,7.1406,7.1523,7.1406,7.1543,7.2187,7.2187,7.291,7.3281,7.3281,7.3301,7.3281,7.3281,7.3711,7.4355,7.3476,7.291,7.2207,7.1992,7.1992,7.1992,7.1992,7.1992,7.1992,7.1836,7.1914,7.1347,7.0469,7.0195,6.9785,6.9238,6.834,6.7871,6.7558,6.709,6.6894,6.6894,6.6894,6.6894,6.6894,6.6894,6.6894,6.6894,6.6894,6.6894,6.6894,6.6894,6.6894,6.6894,6.6894,6.6894,6.6894,6.6894,6.6894,6.6894,6.6894,6.6894,6.6894,6.6894,6.6894,6.6894,6.6893,6.6868,6.6838,6.6809,6.6799,6.6798,6.6798,6.6796,6.6796,6.6796,6.6796,6.6796,6.6796,6.6796,6.6796,6.6796,6.6796,6.6796,6.6796,6.6796,6.6796,6.6796,6.6796,6.6738,6.6328,6.58,6.4941,6.4453,6.4591,6.4747,6.4557,6.4898,6.553,6.5051,6.4805,6.4302,6.3971,6.3464,6.2849,6.219,6.7324,6.7988,6.8633,6.914,6.9629,7.0859,7.1328,7.1094,7.1738,7.1992,7.1855,7.125,7.0937,7.0937,7.084,7.0937,7.1015,7.0762,7.1816,7.2851,7.2226,7.3047,7.3594,7.3301,7.293,7.3203,7.3672,7.3926,7.4355,7.4101,7.3359,7.2265,7.207,7.2051,7.2031,7.2031,7.1992,7.1992,7.1992,7.1992,7.1777,7.1015,7.0215,6.9785,6.9394,6.832,6.7676,6.7773,6.7441,6.7148,6.6894,6.6894,6.6894,6.6894,6.6894,6.6894,6.6894,6.6894,6.6894,6.6894,6.6894,6.6894,6.6894,6.6894,6.6894,6.6894,6.6894,6.6894,6.6894,6.6894,6.6894,6.6894,6.6894,6.6894,6.6894,6.6891,6.6885,6.6839,6.6812,6.6805,6.68,6.6799,6.6796,6.6796,6.6796,6.6796,6.6796,6.6796,6.6796,6.6796,6.6796,6.6796,6.6796,6.6796,6.6796,6.6796,6.6796,6.6796,6.6777,6.6543,6.5996,6.504,6.4689,6.4858,6.4372,6.4005,6.446,6.5135,6.5428,6.5216,6.4463,6.393,6.3441,6.2878,6.2192]}]]